Time,TemperatureF,DewpointF,PressureIn,WindDirection,WindDirectionDegrees,WindSpeedMPH,WindSpeedGustMPH,Humidity,HourlyPrecipIn,Conditions,Clouds,dailyrainin,SolarRadiationWatts/m^2,SoftwareType,DateUTC
2013-02-18 00:00:00,20.0,4.4,30.05,South,191,0.0,0.0,50,0.00,,,0.00,0.00,VWS V14.01,2013-02-18 05:00:00,
2013-02-18 00:01:00,20.0,4.4,30.06,SSW,206,0.0,0.0,50,0.00,,,0.00,0.00,VWS V14.01,2013-02-18 05:01:00,
2013-02-18 00:02:00,20.0,4.8,30.05,SSW,212,0.0,0.0,51,0.00,,,0.00,0.00,VWS V14.01,2013-02-18 05:02:00,
2013-02-18 00:03:00,20.0,4.4,30.05,SW,230,0.0,0.0,50,0.00,,,0.00,0.00,VWS V14.01,2013-02-18 05:03:00,
2013-02-18 00:04:00,20.0,4.4,30.05,South,172,0.0,0.0,50,0.00,,,0.00,0.00,VWS V14.01,2013-02-18 05:04:00,
2013-02-18 00:05:00,20.2,4.6,30.06,WSW,240,0.0,0.0,50,0.00,,,0.00,0.00,VWS V14.01,2013-02-18 05:05:00,
2013-02-18 00:06:00,20.2,4.6,30.06,SSE,168,0.0,0.0,50,0.00,,,0.00,0.00,VWS V14.01,2013-02-18 05:06:00,
2013-02-18 00:07:00,20.2,4.6,30.06,West,275,0.0,0.0,50,0.00,,,0.00,0.00,VWS V14.01,2013-02-18 05:07:00,
2013-02-18 00:08:00,20.2,4.6,30.06,SSW,208,0.0,0.0,50,0.00,,,0.00,0.00,VWS V14.01,2013-02-18 05:08:00,
2013-02-18 00:09:00,20.2,4.6,30.06,WNW,285,0.0,0.0,50,0.00,,,0.00,0.00,VWS V14.01,2013-02-18 05:09:00,
2013-02-18 00:10:00,20.2,4.6,30.06,WSW,240,0.0,0.0,50,0.00,,,0.00,0.00,VWS V14.01,2013-02-18 05:10:00,
2013-02-18 00:11:00,20.2,4.6,30.06,SW,223,0.0,0.0,50,0.00,,,0.00,0.00,VWS V14.01,2013-02-18 05:11:00,
2013-02-18 00:12:00,20.2,4.6,30.06,SSW,203,0.0,0.0,50,0.00,,,0.00,0.00,VWS V14.01,2013-02-18 05:12:00,
2013-02-18 00:13:00,20.2,4.6,30.06,South,172,0.0,0.0,50,0.00,,,0.00,0.00,VWS V14.01,2013-02-18 05:13:00,
2013-02-18 00:14:00,20.0,4.4,30.06,SSW,192,0.0,0.0,50,0.00,,,0.00,0.00,VWS V14.01,2013-02-18 05:14:00,
2013-02-18 00:15:00,20.0,4.4,30.05,SSE,150,0.0,0.0,50,0.00,,,0.00,0.00,VWS V14.01,2013-02-18 05:15:00,
2013-02-18 00:16:00,20.2,4.6,30.06,SW,223,0.0,0.0,50,0.00,,,0.00,0.00,VWS V14.01,2013-02-18 05:16:00,
2013-02-18 00:17:00,20.0,4.4,30.05,South,188,0.0,0.0,50,0.00,,,0.00,0.00,VWS V14.01,2013-02-18 05:17:00,
2013-02-18 00:18:00,20.0,4.4,30.05,SSW,193,0.0,0.0,50,0.00,,,0.00,0.00,VWS V14.01,2013-02-18 05:18:00,
2013-02-18 00:19:00,20.0,4.4,30.05,South,189,0.0,0.0,50,0.00,,,0.00,0.00,VWS V14.01,2013-02-18 05:19:00,
2013-02-18 00:20:00,20.0,4.4,30.05,SSW,200,0.0,0.0,50,0.00,,,0.00,0.00,VWS V14.01,2013-02-18 05:20:00,
2013-02-18 00:21:00,20.0,4.4,30.05,SW,227,0.0,0.0,50,0.00,,,0.00,0.00,VWS V14.01,2013-02-18 05:21:00,
2013-02-18 00:22:00,20.0,4.4,30.05,South,188,0.0,0.0,50,0.00,,,0.00,0.00,VWS V14.01,2013-02-18 05:22:00,
2013-02-18 00:23:00,20.0,4.4,30.05,SW,233,0.0,0.0,50,0.00,,,0.00,0.00,VWS V14.01,2013-02-18 05:23:00,
2013-02-18 00:24:00,20.0,4.4,30.05,WSW,237,0.0,0.0,50,0.00,,,0.00,0.00,VWS V14.01,2013-02-18 05:24:00,
2013-02-18 00:25:00,20.0,4.4,30.05,SSW,206,0.0,0.0,50,0.00,,,0.00,0.00,VWS V14.01,2013-02-18 05:25:00,
2013-02-18 00:26:00,20.0,4.4,30.05,NW,304,0.0,0.0,50,0.00,,,0.00,0.00,VWS V14.01,2013-02-18 05:26:00,
2013-02-18 00:27:00,20.0,4.4,30.05,South,176,0.0,0.0,50,0.00,,,0.00,0.00,VWS V14.01,2013-02-18 05:27:00,
2013-02-18 00:28:00,20.0,4.4,30.05,SW,233,0.0,0.0,50,0.00,,,0.00,0.00,VWS V14.01,2013-02-18 05:28:00,
2013-02-18 00:29:00,20.0,4.4,30.05,SSW,209,0.0,0.0,50,0.00,,,0.00,0.00,VWS V14.01,2013-02-18 05:29:00,
2013-02-18 00:30:00,20.0,4.4,30.06,SE,131,0.0,0.0,50,0.00,,,0.00,0.00,VWS V14.01,2013-02-18 05:30:00,
2013-02-18 00:31:00,20.0,4.4,30.06,SE,138,0.0,0.0,50,0.00,,,0.00,0.00,VWS V14.01,2013-02-18 05:31:00,
2013-02-18 00:32:00,20.0,4.4,30.06,SSW,192,0.0,0.0,50,0.00,,,0.00,0.00,VWS V14.01,2013-02-18 05:32:00,
2013-02-18 00:33:00,20.0,4.4,30.05,South,181,0.0,0.0,50,0.00,,,0.00,0.00,VWS V14.01,2013-02-18 05:33:00,
2013-02-18 00:34:00,20.0,4.4,30.06,SSE,151,0.0,0.0,50,0.00,,,0.00,0.00,VWS V14.01,2013-02-18 05:34:00,
2013-02-18 00:35:00,20.0,4.4,30.06,South,189,0.0,0.0,50,0.00,,,0.00,0.00,VWS V14.01,2013-02-18 05:35:00,
2013-02-18 00:36:00,20.0,4.4,30.06,SSW,200,0.0,0.0,50,0.00,,,0.00,0.00,VWS V14.01,2013-02-18 05:36:00,
2013-02-18 00:37:00,20.0,4.4,30.06,SW,215,0.0,0.0,50,0.00,,,0.00,0.00,VWS V14.01,2013-02-18 05:37:00,
2013-02-18 00:38:00,20.0,4.4,30.06,WNW,288,0.0,0.0,50,0.00,,,0.00,0.00,VWS V14.01,2013-02-18 05:38:00,
2013-02-18 00:39:00,20.0,4.4,30.06,SE,133,0.0,0.0,50,0.00,,,0.00,0.00,VWS V14.01,2013-02-18 05:39:00,
2013-02-18 00:40:00,20.0,4.4,30.06,SSE,154,0.0,0.0,50,0.00,,,0.00,0.00,VWS V14.01,2013-02-18 05:40:00,
2013-02-18 00:41:00,20.0,4.4,30.06,SSE,157,0.0,0.0,50,0.00,,,0.00,0.00,VWS V14.01,2013-02-18 05:41:00,
2013-02-18 00:42:00,20.0,4.4,30.06,South,176,0.0,0.0,50,0.00,,,0.00,0.00,VWS V14.01,2013-02-18 05:42:00,
2013-02-18 00:43:00,19.9,4.3,30.06,SSE,155,0.0,0.0,50,0.00,,,0.00,0.00,VWS V14.01,2013-02-18 05:43:00,
2013-02-18 00:44:00,20.0,4.4,30.06,SE,133,0.0,0.0,50,0.00,,,0.00,0.00,VWS V14.01,2013-02-18 05:44:00,
2013-02-18 00:45:00,19.9,4.3,30.06,SSE,160,0.0,0.0,50,0.00,,,0.00,0.00,VWS V14.01,2013-02-18 05:45:00,
2013-02-18 00:46:00,19.9,4.3,30.06,SSE,158,0.0,0.0,50,0.00,,,0.00,0.00,VWS V14.01,2013-02-18 05:46:00,
2013-02-18 00:47:00,19.9,4.3,30.06,South,171,0.0,0.0,50,0.00,,,0.00,0.00,VWS V14.01,2013-02-18 05:47:00,
2013-02-18 00:48:00,19.9,4.3,30.06,SE,131,0.0,0.0,50,0.00,,,0.00,0.00,VWS V14.01,2013-02-18 05:48:00,
2013-02-18 00:49:00,19.9,4.3,30.06,SSE,168,0.0,0.0,50,0.00,,,0.00,0.00,VWS V14.01,2013-02-18 05:49:00,
2013-02-18 00:50:00,19.9,4.3,30.06,SSE,160,0.0,0.0,50,0.00,,,0.00,0.00,VWS V14.01,2013-02-18 05:50:00,
2013-02-18 00:51:00,19.9,4.3,30.06,SSE,161,0.0,0.0,50,0.00,,,0.00,0.00,VWS V14.01,2013-02-18 05:51:00,
2013-02-18 00:52:00,19.9,4.3,30.06,SSE,151,0.0,0.0,50,0.00,,,0.00,0.00,VWS V14.01,2013-02-18 05:52:00,
2013-02-18 00:53:00,19.9,4.3,30.06,ESE,107,0.0,0.0,50,0.00,,,0.00,0.00,VWS V14.01,2013-02-18 05:53:00,
2013-02-18 00:54:00,19.9,4.3,30.06,SE,140,0.0,0.0,50,0.00,,,0.00,0.00,VWS V14.01,2013-02-18 05:54:00,
2013-02-18 00:55:00,19.9,4.3,30.06,SSE,165,0.0,0.0,50,0.00,,,0.00,0.00,VWS V14.01,2013-02-18 05:55:00,
2013-02-18 00:56:00,19.9,4.3,30.06,SSE,161,0.0,0.0,50,0.00,,,0.00,0.00,VWS V14.01,2013-02-18 05:56:00,
2013-02-18 00:57:00,19.9,4.3,30.06,SSE,167,0.0,0.0,50,0.00,,,0.00,0.00,VWS V14.01,2013-02-18 05:57:00,
2013-02-18 00:58:00,19.9,4.3,30.06,SSE,168,0.0,0.0,50,0.00,,,0.00,0.00,VWS V14.01,2013-02-18 05:58:00,
2013-02-18 00:59:00,19.9,4.3,30.06,South,171,0.0,0.0,50,0.00,,,0.00,0.00,VWS V14.01,2013-02-18 05:59:00,
2013-02-18 01:00:00,19.9,4.3,30.07,SE,140,0.0,0.0,50,0.00,,,0.00,0.00,VWS V14.01,2013-02-18 06:00:00,
2013-02-18 01:01:00,19.9,4.3,30.07,SE,138,0.0,0.0,50,0.00,,,0.00,0.00,VWS V14.01,2013-02-18 06:01:00,
2013-02-18 01:02:00,19.9,4.3,30.06,SSE,167,0.0,0.0,50,0.00,,,0.00,0.00,VWS V14.01,2013-02-18 06:02:00,
2013-02-18 01:03:00,19.9,4.3,30.07,South,176,0.0,0.0,50,0.00,,,0.00,0.00,VWS V14.01,2013-02-18 06:03:00,
2013-02-18 01:04:00,19.9,4.3,30.07,SE,145,0.0,0.0,50,0.00,,,0.00,0.00,VWS V14.01,2013-02-18 06:04:00,
2013-02-18 01:05:00,19.9,4.3,30.07,ESE,119,0.0,0.0,50,0.00,,,0.00,0.00,VWS V14.01,2013-02-18 06:05:00,
2013-02-18 01:06:00,19.9,4.3,30.07,SE,136,0.0,0.0,50,0.00,,,0.00,0.00,VWS V14.01,2013-02-18 06:06:00,
2013-02-18 01:07:00,19.9,4.3,30.07,South,176,0.0,0.0,50,0.00,,,0.00,0.00,VWS V14.01,2013-02-18 06:07:00,
2013-02-18 01:08:00,19.9,4.3,30.07,SE,144,0.0,0.0,50,0.00,,,0.00,0.00,VWS V14.01,2013-02-18 06:08:00,
2013-02-18 01:09:00,19.9,4.3,30.07,SE,145,0.0,0.0,50,0.00,,,0.00,0.00,VWS V14.01,2013-02-18 06:09:00,
2013-02-18 01:10:00,19.9,4.3,30.07,SE,128,0.0,0.0,50,0.00,,,0.00,0.00,VWS V14.01,2013-02-18 06:10:00,
2013-02-18 01:11:00,19.9,4.3,30.07,SSE,154,0.0,0.0,50,0.00,,,0.00,0.00,VWS V14.01,2013-02-18 06:11:00,
2013-02-18 01:12:00,19.9,4.3,30.07,SSE,147,0.0,0.0,50,0.00,,,0.00,0.00,VWS V14.01,2013-02-18 06:12:00,
2013-02-18 01:13:00,19.9,4.3,30.07,SE,141,0.0,0.0,50,0.00,,,0.00,0.00,VWS V14.01,2013-02-18 06:13:00,
2013-02-18 01:14:00,19.9,4.3,30.07,South,178,0.0,0.0,50,0.00,,,0.00,0.00,VWS V14.01,2013-02-18 06:14:00,
2013-02-18 01:15:00,19.9,4.3,30.07,East,97,0.0,0.0,50,0.00,,,0.00,0.00,VWS V14.01,2013-02-18 06:15:00,
2013-02-18 01:16:00,20.0,4.4,30.07,SSE,160,0.0,0.0,50,0.00,,,0.00,0.00,VWS V14.01,2013-02-18 06:16:00,
2013-02-18 01:17:00,20.0,4.4,30.07,SE,144,0.0,0.0,50,0.00,,,0.00,0.00,VWS V14.01,2013-02-18 06:17:00,
2013-02-18 01:18:00,19.9,4.3,30.07,SE,141,0.0,0.0,50,0.00,,,0.00,0.00,VWS V14.01,2013-02-18 06:18:00,
2013-02-18 01:19:00,20.0,4.4,30.07,South,174,0.0,0.0,50,0.00,,,0.00,0.00,VWS V14.01,2013-02-18 06:19:00,
2013-02-18 01:20:00,20.0,4.4,30.07,SE,133,0.0,0.0,50,0.00,,,0.00,0.00,VWS V14.01,2013-02-18 06:20:00,
2013-02-18 01:21:00,20.0,4.4,30.07,SE,128,0.0,0.0,50,0.00,,,0.00,0.00,VWS V14.01,2013-02-18 06:21:00,
2013-02-18 01:22:00,20.0,4.4,30.07,SE,133,0.0,0.0,50,0.00,,,0.00,0.00,VWS V14.01,2013-02-18 06:22:00,
2013-02-18 01:23:00,20.0,4.4,30.07,SE,145,0.0,0.0,50,0.00,,,0.00,0.00,VWS V14.01,2013-02-18 06:23:00,
2013-02-18 01:24:00,20.0,4.4,30.07,SE,134,0.0,0.0,50,0.00,,,0.00,0.00,VWS V14.01,2013-02-18 06:24:00,
2013-02-18 01:25:00,20.0,4.4,30.07,SE,128,0.0,0.0,50,0.00,,,0.00,0.00,VWS V14.01,2013-02-18 06:25:00,
2013-02-18 01:26:00,20.0,4.4,30.07,South,178,0.0,0.0,50,0.00,,,0.00,0.00,VWS V14.01,2013-02-18 06:26:00,
2013-02-18 01:27:00,20.0,4.4,30.07,SSE,147,0.0,0.0,50,0.00,,,0.00,0.00,VWS V14.01,2013-02-18 06:27:00,
2013-02-18 01:28:00,20.0,4.4,30.07,SE,143,0.0,0.0,50,0.00,,,0.00,0.00,VWS V14.01,2013-02-18 06:28:00,
2013-02-18 01:29:00,20.0,4.4,30.07,SSE,162,0.0,0.0,50,0.00,,,0.00,0.00,VWS V14.01,2013-02-18 06:29:00,
2013-02-18 01:30:00,20.0,4.4,30.07,SE,138,0.0,0.0,50,0.00,,,0.00,0.00,VWS V14.01,2013-02-18 06:30:00,
2013-02-18 01:31:00,20.0,4.4,30.07,ESE,114,0.0,0.0,50,0.00,,,0.00,0.00,VWS V14.01,2013-02-18 06:31:00,
2013-02-18 01:32:00,20.0,4.4,30.07,SSE,164,0.0,0.0,50,0.00,,,0.00,0.00,VWS V14.01,2013-02-18 06:32:00,
2013-02-18 01:33:00,20.0,4.4,30.07,SE,145,0.0,0.0,50,0.00,,,0.00,0.00,VWS V14.01,2013-02-18 06:33:00,
2013-02-18 01:34:00,20.0,4.4,30.07,SE,138,0.0,0.0,50,0.00,,,0.00,0.00,VWS V14.01,2013-02-18 06:34:00,
2013-02-18 01:35:00,20.0,4.4,30.07,SE,143,0.0,0.0,50,0.00,,,0.00,0.00,VWS V14.01,2013-02-18 06:35:00,
2013-02-18 01:36:00,20.0,4.4,30.07,SE,137,0.0,0.0,50,0.00,,,0.00,0.00,VWS V14.01,2013-02-18 06:36:00,
2013-02-18 01:37:00,19.9,4.3,30.07,SE,138,0.0,0.0,50,0.00,,,0.00,0.00,VWS V14.01,2013-02-18 06:37:00,
2013-02-18 01:38:00,20.0,4.4,30.07,SSE,157,0.0,0.0,50,0.00,,,0.00,0.00,VWS V14.01,2013-02-18 06:38:00,
2013-02-18 01:39:00,20.0,4.4,30.07,SE,138,0.0,0.0,50,0.00,,,0.00,0.00,VWS V14.01,2013-02-18 06:39:00,
2013-02-18 01:40:00,19.9,4.3,30.07,South,169,0.0,0.0,50,0.00,,,0.00,0.00,VWS V14.01,2013-02-18 06:40:00,
2013-02-18 01:41:00,19.9,4.3,30.07,SE,136,0.0,0.0,50,0.00,,,0.00,0.00,VWS V14.01,2013-02-18 06:41:00,
2013-02-18 01:42:00,19.9,4.3,30.07,SSE,161,0.0,0.0,50,0.00,,,0.00,0.00,VWS V14.01,2013-02-18 06:42:00,
2013-02-18 01:43:00,19.9,4.3,30.07,SE,144,0.0,0.0,50,0.00,,,0.00,0.00,VWS V14.01,2013-02-18 06:43:00,
2013-02-18 01:44:00,19.9,4.3,30.07,SSE,158,0.0,0.0,50,0.00,,,0.00,0.00,VWS V14.01,2013-02-18 06:44:00,
2013-02-18 01:45:00,19.9,4.3,30.07,SSE,154,0.0,0.0,50,0.00,,,0.00,0.00,VWS V14.01,2013-02-18 06:45:00,
2013-02-18 01:46:00,19.9,4.3,30.07,SSE,150,0.0,0.0,50,0.00,,,0.00,0.00,VWS V14.01,2013-02-18 06:46:00,
2013-02-18 01:47:00,19.7,4.1,30.07,SSE,151,0.0,0.0,50,0.00,,,0.00,0.00,VWS V14.01,2013-02-18 06:47:00,
2013-02-18 01:48:00,19.7,4.1,30.07,SSE,151,0.0,0.0,50,0.00,,,0.00,0.00,VWS V14.01,2013-02-18 06:48:00,
2013-02-18 01:49:00,19.9,4.3,30.07,SE,144,0.0,0.0,50,0.00,,,0.00,0.00,VWS V14.01,2013-02-18 06:49:00,
2013-02-18 01:50:00,19.9,4.3,30.07,South,186,0.0,0.0,50,0.00,,,0.00,0.00,VWS V14.01,2013-02-18 06:50:00,
2013-02-18 01:51:00,19.9,4.3,30.07,South,181,0.0,0.0,50,0.00,,,0.00,0.00,VWS V14.01,2013-02-18 06:51:00,
2013-02-18 01:52:00,19.9,4.3,30.07,SE,145,0.0,0.0,50,0.00,,,0.00,0.00,VWS V14.01,2013-02-18 06:52:00,
2013-02-18 01:53:00,19.9,4.3,30.07,SSE,150,0.0,0.0,50,0.00,,,0.00,0.00,VWS V14.01,2013-02-18 06:53:00,
2013-02-18 01:54:00,19.9,4.3,30.07,SE,141,0.0,0.0,50,0.00,,,0.00,0.00,VWS V14.01,2013-02-18 06:54:00,
2013-02-18 01:55:00,20.0,4.4,30.07,SSE,164,0.0,0.0,50,0.00,,,0.00,0.00,VWS V14.01,2013-02-18 06:55:00,
2013-02-18 01:56:00,20.0,4.4,30.07,SSE,165,0.0,0.0,50,0.00,,,0.00,0.00,VWS V14.01,2013-02-18 06:56:00,
2013-02-18 01:57:00,20.0,4.4,30.07,SSE,148,0.0,0.0,50,0.00,,,0.00,0.00,VWS V14.01,2013-02-18 06:57:00,
2013-02-18 01:58:00,20.0,4.4,30.07,SSE,158,0.0,0.0,50,0.00,,,0.00,0.00,VWS V14.01,2013-02-18 06:58:00,
2013-02-18 01:59:00,20.0,4.4,30.07,SE,133,0.0,0.0,50,0.00,,,0.00,0.00,VWS V14.01,2013-02-18 06:59:00,
2013-02-18 02:00:00,20.0,4.4,30.07,SE,145,0.0,0.0,50,0.00,,,0.00,0.00,VWS V14.01,2013-02-18 07:00:00,
2013-02-18 02:01:00,20.0,4.4,30.07,SSE,165,0.0,0.0,50,0.00,,,0.00,0.00,VWS V14.01,2013-02-18 07:01:00,
2013-02-18 02:02:00,20.0,4.4,30.07,SSE,158,0.0,0.0,50,0.00,,,0.00,0.00,VWS V14.01,2013-02-18 07:02:00,
2013-02-18 02:03:00,20.0,4.4,30.07,SSE,158,0.0,0.0,50,0.00,,,0.00,0.00,VWS V14.01,2013-02-18 07:03:00,
2013-02-18 02:04:00,20.0,4.4,30.07,SSW,196,0.0,0.0,50,0.00,,,0.00,0.00,VWS V14.01,2013-02-18 07:04:00,
2013-02-18 02:05:00,20.0,4.4,30.07,SE,144,0.0,0.0,50,0.00,,,0.00,0.00,VWS V14.01,2013-02-18 07:05:00,
2013-02-18 02:06:00,20.0,4.4,30.07,SSE,167,0.0,0.0,50,0.00,,,0.00,0.00,VWS V14.01,2013-02-18 07:06:00,
2013-02-18 02:07:00,20.0,4.4,30.07,SSE,167,0.0,0.0,50,0.00,,,0.00,0.00,VWS V14.01,2013-02-18 07:07:00,
2013-02-18 02:08:00,20.0,4.4,30.07,SSE,155,0.0,0.0,50,0.00,,,0.00,0.00,VWS V14.01,2013-02-18 07:08:00,
2013-02-18 02:09:00,20.0,4.4,30.07,South,191,0.0,0.0,50,0.00,,,0.00,0.00,VWS V14.01,2013-02-18 07:09:00,
2013-02-18 02:10:00,20.0,4.4,30.07,South,184,0.0,0.0,50,0.00,,,0.00,0.00,VWS V14.01,2013-02-18 07:10:00,
2013-02-18 02:11:00,20.0,4.4,30.07,SW,232,0.0,0.0,50,0.00,,,0.00,0.00,VWS V14.01,2013-02-18 07:11:00,
2013-02-18 02:12:00,20.0,4.4,30.07,SSE,168,0.0,0.0,50,0.00,,,0.00,0.00,VWS V14.01,2013-02-18 07:12:00,
2013-02-18 02:13:00,20.0,4.4,30.07,SE,144,0.0,0.0,50,0.00,,,0.00,0.00,VWS V14.01,2013-02-18 07:13:00,
2013-02-18 02:14:00,20.0,4.4,30.07,South,171,0.0,0.0,50,0.00,,,0.00,0.00,VWS V14.01,2013-02-18 07:14:00,
2013-02-18 02:15:00,20.0,4.4,30.07,South,184,0.0,0.0,50,0.00,,,0.00,0.00,VWS V14.01,2013-02-18 07:15:00,
2013-02-18 02:16:00,19.9,4.3,30.09,SSE,148,0.0,0.0,50,0.00,,,0.00,0.00,VWS V14.01,2013-02-18 07:16:00,
2013-02-18 02:17:00,19.9,4.3,30.09,SSE,151,0.0,0.0,50,0.00,,,0.00,0.00,VWS V14.01,2013-02-18 07:17:00,
2013-02-18 02:18:00,19.9,4.3,30.09,SSW,192,0.0,0.0,50,0.00,,,0.00,0.00,VWS V14.01,2013-02-18 07:18:00,
2013-02-18 02:19:00,19.9,4.3,30.09,South,178,0.0,0.0,50,0.00,,,0.00,0.00,VWS V14.01,2013-02-18 07:19:00,
2013-02-18 02:20:00,19.9,4.3,30.09,SSE,160,0.0,0.0,50,0.00,,,0.00,0.00,VWS V14.01,2013-02-18 07:20:00,
2013-02-18 02:21:00,19.9,4.3,30.09,SSE,148,0.0,0.0,50,0.00,,,0.00,0.00,VWS V14.01,2013-02-18 07:21:00,
2013-02-18 02:22:00,19.9,4.3,30.09,South,181,0.0,0.0,50,0.00,,,0.00,0.00,VWS V14.01,2013-02-18 07:22:00,
2013-02-18 02:23:00,19.7,4.1,30.09,West,275,0.0,0.0,50,0.00,,,0.00,0.00,VWS V14.01,2013-02-18 07:23:00,
2013-02-18 02:24:00,19.9,4.3,30.09,WSW,237,0.0,0.0,50,0.00,,,0.00,0.00,VWS V14.01,2013-02-18 07:24:00,
2013-02-18 02:25:00,19.9,4.3,30.09,SSW,202,0.0,0.0,50,0.00,,,0.00,0.00,VWS V14.01,2013-02-18 07:25:00,
2013-02-18 02:26:00,19.9,4.3,30.09,WSW,256,0.0,0.0,50,0.00,,,0.00,0.00,VWS V14.01,2013-02-18 07:26:00,
2013-02-18 02:27:00,19.9,4.3,30.09,South,181,0.0,0.0,50,0.00,,,0.00,0.00,VWS V14.01,2013-02-18 07:27:00,
2013-02-18 02:28:00,19.9,4.3,30.09,South,181,0.0,0.0,50,0.00,,,0.00,0.00,VWS V14.01,2013-02-18 07:28:00,
2013-02-18 02:29:00,19.9,4.3,30.09,South,179,0.0,0.0,50,0.00,,,0.00,0.00,VWS V14.01,2013-02-18 07:29:00,
2013-02-18 02:30:00,19.9,4.3,30.09,South,182,0.0,0.0,50,0.00,,,0.00,0.00,VWS V14.01,2013-02-18 07:30:00,
2013-02-18 02:31:00,19.9,4.3,30.09,WNW,284,0.0,0.0,50,0.00,,,0.00,0.00,VWS V14.01,2013-02-18 07:31:00,
2013-02-18 02:32:00,19.9,4.3,30.09,SSW,203,0.0,0.0,50,0.00,,,0.00,0.00,VWS V14.01,2013-02-18 07:32:00,
2013-02-18 02:33:00,19.9,4.3,30.09,SSW,199,0.0,0.0,50,0.00,,,0.00,0.00,VWS V14.01,2013-02-18 07:33:00,
2013-02-18 02:34:00,19.9,4.3,30.09,South,174,0.0,0.0,50,0.00,,,0.00,0.00,VWS V14.01,2013-02-18 07:34:00,
2013-02-18 02:35:00,19.9,4.3,30.09,South,185,0.0,0.0,50,0.00,,,0.00,0.00,VWS V14.01,2013-02-18 07:35:00,
2013-02-18 02:36:00,19.9,4.3,30.09,WSW,251,0.0,0.0,50,0.00,,,0.00,0.00,VWS V14.01,2013-02-18 07:36:00,
2013-02-18 02:37:00,19.9,4.3,30.09,SSW,196,0.0,0.0,50,0.00,,,0.00,0.00,VWS V14.01,2013-02-18 07:37:00,
2013-02-18 02:38:00,19.7,4.1,30.09,South,179,0.0,0.0,50,0.00,,,0.00,0.00,VWS V14.01,2013-02-18 07:38:00,
2013-02-18 02:39:00,19.7,4.1,30.09,South,185,0.0,0.0,50,0.00,,,0.00,0.00,VWS V14.01,2013-02-18 07:39:00,
2013-02-18 02:40:00,19.7,4.1,30.09,WNW,282,0.0,0.0,50,0.00,,,0.00,0.00,VWS V14.01,2013-02-18 07:40:00,
2013-02-18 02:41:00,19.7,4.1,30.09,SW,232,0.0,0.0,50,0.00,,,0.00,0.00,VWS V14.01,2013-02-18 07:41:00,
2013-02-18 02:42:00,19.7,4.1,30.09,SSW,192,0.0,0.0,50,0.00,,,0.00,0.00,VWS V14.01,2013-02-18 07:42:00,
2013-02-18 02:43:00,19.7,4.1,30.09,South,179,0.0,0.0,50,0.00,,,0.00,0.00,VWS V14.01,2013-02-18 07:43:00,
2013-02-18 02:44:00,19.7,4.1,30.09,South,179,0.0,0.0,50,0.00,,,0.00,0.00,VWS V14.01,2013-02-18 07:44:00,
2013-02-18 02:45:00,19.7,4.1,30.09,SSW,203,0.0,0.0,50,0.00,,,0.00,0.00,VWS V14.01,2013-02-18 07:45:00,
2013-02-18 02:46:00,19.7,4.1,30.09,WSW,243,0.0,0.0,50,0.00,,,0.00,0.00,VWS V14.01,2013-02-18 07:46:00,
2013-02-18 02:47:00,19.7,4.1,30.09,SSW,202,0.0,0.0,50,0.00,,,0.00,0.00,VWS V14.01,2013-02-18 07:47:00,
2013-02-18 02:48:00,19.7,4.1,30.09,WSW,240,0.0,0.0,50,0.00,,,0.00,0.00,VWS V14.01,2013-02-18 07:48:00,
2013-02-18 02:49:00,19.7,4.1,30.09,WSW,246,0.0,0.0,50,0.00,,,0.00,0.00,VWS V14.01,2013-02-18 07:49:00,
2013-02-18 02:50:00,19.7,4.1,30.09,South,176,0.0,0.0,50,0.00,,,0.00,0.00,VWS V14.01,2013-02-18 07:50:00,
2013-02-18 02:51:00,19.7,4.1,30.09,South,175,0.0,0.0,50,0.00,,,0.00,0.00,VWS V14.01,2013-02-18 07:51:00,
2013-02-18 02:52:00,19.7,4.1,30.09,SSW,196,0.0,0.0,50,0.00,,,0.00,0.00,VWS V14.01,2013-02-18 07:52:00,
2013-02-18 02:53:00,19.7,4.1,30.09,SSW,203,0.0,0.0,50,0.00,,,0.00,0.00,VWS V14.01,2013-02-18 07:53:00,
2013-02-18 02:54:00,19.7,4.1,30.09,WSW,237,0.0,0.0,50,0.00,,,0.00,0.00,VWS V14.01,2013-02-18 07:54:00,
2013-02-18 02:55:00,19.7,4.1,30.09,SW,230,0.0,0.0,50,0.00,,,0.00,0.00,VWS V14.01,2013-02-18 07:55:00,
2013-02-18 02:56:00,19.7,4.1,30.09,SSW,193,0.0,0.0,50,0.00,,,0.00,0.00,VWS V14.01,2013-02-18 07:56:00,
2013-02-18 02:57:00,19.7,4.1,30.09,SSW,208,0.0,0.0,50,0.00,,,0.00,0.00,VWS V14.01,2013-02-18 07:57:00,
2013-02-18 02:58:00,19.7,4.1,30.09,SSW,192,0.0,0.0,50,0.00,,,0.00,0.00,VWS V14.01,2013-02-18 07:58:00,
2013-02-18 02:59:00,19.7,4.1,30.09,WSW,237,0.0,0.0,50,0.00,,,0.00,0.00,VWS V14.01,2013-02-18 07:59:00,
2013-02-18 03:00:00,19.7,4.1,30.09,SSW,208,0.0,0.0,50,0.00,,,0.00,0.00,VWS V14.01,2013-02-18 08:00:00,
2013-02-18 03:01:00,19.7,4.1,30.09,WSW,237,0.0,0.0,50,0.00,,,0.00,0.00,VWS V14.01,2013-02-18 08:01:00,
2013-02-18 03:02:00,19.7,4.1,30.09,SSW,193,0.0,0.0,50,0.00,,,0.00,0.00,VWS V14.01,2013-02-18 08:02:00,
2013-02-18 03:03:00,19.7,4.1,30.09,SSW,193,0.0,0.0,50,0.00,,,0.00,0.00,VWS V14.01,2013-02-18 08:03:00,
2013-02-18 03:04:00,19.7,4.1,30.09,SSW,203,0.0,0.0,50,0.00,,,0.00,0.00,VWS V14.01,2013-02-18 08:04:00,
2013-02-18 03:05:00,19.7,4.1,30.09,SSW,208,0.0,0.0,50,0.00,,,0.00,0.00,VWS V14.01,2013-02-18 08:05:00,
2013-02-18 03:06:00,19.7,4.1,30.09,South,189,0.0,0.0,50,0.00,,,0.00,0.00,VWS V14.01,2013-02-18 08:06:00,
2013-02-18 03:07:00,19.7,4.1,30.09,SSE,168,0.0,0.0,50,0.00,,,0.00,0.00,VWS V14.01,2013-02-18 08:07:00,
2013-02-18 03:08:00,19.7,4.1,30.09,South,179,0.0,0.0,50,0.00,,,0.00,0.00,VWS V14.01,2013-02-18 08:08:00,
2013-02-18 03:09:00,19.7,4.1,30.09,SSW,212,0.0,0.0,50,0.00,,,0.00,0.00,VWS V14.01,2013-02-18 08:09:00,
2013-02-18 03:10:00,19.7,4.1,30.09,SSE,165,0.0,0.0,50,0.00,,,0.00,0.00,VWS V14.01,2013-02-18 08:10:00,
2013-02-18 03:11:00,19.7,4.1,30.09,South,189,0.0,0.0,50,0.00,,,0.00,0.00,VWS V14.01,2013-02-18 08:11:00,
2013-02-18 03:12:00,19.7,4.1,30.09,South,179,0.0,0.0,50,0.00,,,0.00,0.00,VWS V14.01,2013-02-18 08:12:00,
2013-02-18 03:13:00,19.7,4.1,30.09,SSE,168,0.0,0.0,50,0.00,,,0.00,0.00,VWS V14.01,2013-02-18 08:13:00,
2013-02-18 03:14:00,19.7,4.1,30.09,SSE,168,0.0,0.0,50,0.00,,,0.00,0.00,VWS V14.01,2013-02-18 08:14:00,
2013-02-18 03:15:00,19.7,4.1,30.09,SSE,168,0.0,0.0,50,0.00,,,0.00,0.00,VWS V14.01,2013-02-18 08:15:00,
2013-02-18 03:16:00,19.7,4.1,30.09,South,188,0.0,0.0,50,0.00,,,0.00,0.00,VWS V14.01,2013-02-18 08:16:00,
2013-02-18 03:17:00,19.7,4.1,30.09,SSE,160,0.0,0.0,50,0.00,,,0.00,0.00,VWS V14.01,2013-02-18 08:17:00,
2013-02-18 03:18:00,19.7,4.1,30.09,South,179,0.0,0.0,50,0.00,,,0.00,0.00,VWS V14.01,2013-02-18 08:18:00,
2013-02-18 03:19:00,19.7,4.1,30.09,South,179,0.0,0.0,50,0.00,,,0.00,0.00,VWS V14.01,2013-02-18 08:19:00,
2013-02-18 03:20:00,19.7,4.1,30.09,South,178,0.0,0.0,50,0.00,,,0.00,0.00,VWS V14.01,2013-02-18 08:20:00,
2013-02-18 03:21:00,19.7,4.1,30.09,South,182,0.0,0.0,50,0.00,,,0.00,0.00,VWS V14.01,2013-02-18 08:21:00,
2013-02-18 03:22:00,19.7,4.1,30.09,SSE,160,0.0,0.0,50,0.00,,,0.00,0.00,VWS V14.01,2013-02-18 08:22:00,
2013-02-18 03:23:00,19.7,4.1,30.09,SSE,158,0.0,0.0,50,0.00,,,0.00,0.00,VWS V14.01,2013-02-18 08:23:00,
2013-02-18 03:24:00,19.7,4.1,30.09,SSE,158,0.0,0.0,50,0.00,,,0.00,0.00,VWS V14.01,2013-02-18 08:24:00,
2013-02-18 03:25:00,19.7,4.1,30.09,South,185,0.0,0.0,50,0.00,,,0.00,0.00,VWS V14.01,2013-02-18 08:25:00,
2013-02-18 03:26:00,19.7,4.1,30.09,South,178,0.0,0.0,50,0.00,,,0.00,0.00,VWS V14.01,2013-02-18 08:26:00,
2013-02-18 03:27:00,19.7,4.1,30.09,SSE,164,0.0,0.0,50,0.00,,,0.00,0.00,VWS V14.01,2013-02-18 08:27:00,
2013-02-18 03:28:00,19.7,4.1,30.09,SSE,162,0.0,0.0,50,0.00,,,0.00,0.00,VWS V14.01,2013-02-18 08:28:00,
2013-02-18 03:29:00,19.7,4.1,30.09,SSE,168,0.0,0.0,50,0.00,,,0.00,0.00,VWS V14.01,2013-02-18 08:29:00,
2013-02-18 03:30:00,19.7,4.1,30.09,SSE,165,0.0,0.0,50,0.00,,,0.00,0.00,VWS V14.01,2013-02-18 08:30:00,
2013-02-18 03:31:00,19.7,4.1,30.09,South,174,0.0,0.0,50,0.00,,,0.00,0.00,VWS V14.01,2013-02-18 08:31:00,
2013-02-18 03:32:00,19.7,4.1,30.09,South,171,0.0,0.0,50,0.00,,,0.00,0.00,VWS V14.01,2013-02-18 08:32:00,
2013-02-18 03:33:00,19.7,4.1,30.09,South,179,0.0,0.0,50,0.00,,,0.00,0.00,VWS V14.01,2013-02-18 08:33:00,
2013-02-18 03:34:00,19.7,4.1,30.09,South,169,0.0,0.0,50,0.00,,,0.00,0.00,VWS V14.01,2013-02-18 08:34:00,
2013-02-18 03:35:00,19.7,4.1,30.09,South,178,0.0,0.0,50,0.00,,,0.00,0.00,VWS V14.01,2013-02-18 08:35:00,
2013-02-18 03:36:00,19.7,4.1,30.09,South,184,0.0,0.0,50,0.00,,,0.00,0.00,VWS V14.01,2013-02-18 08:36:00,
2013-02-18 03:37:00,19.7,4.1,30.09,SSE,160,0.0,0.0,50,0.00,,,0.00,0.00,VWS V14.01,2013-02-18 08:37:00,
2013-02-18 03:38:00,19.7,4.1,30.09,South,185,0.0,0.0,50,0.00,,,0.00,0.00,VWS V14.01,2013-02-18 08:38:00,
2013-02-18 03:39:00,19.7,4.1,30.09,South,184,0.0,0.0,50,0.00,,,0.00,0.00,VWS V14.01,2013-02-18 08:39:00,
2013-02-18 03:40:00,19.7,4.1,30.09,South,184,0.0,0.0,50,0.00,,,0.00,0.00,VWS V14.01,2013-02-18 08:40:00,
2013-02-18 03:41:00,19.7,4.1,30.09,South,191,0.0,0.0,50,0.00,,,0.00,0.00,VWS V14.01,2013-02-18 08:41:00,
2013-02-18 03:42:00,19.7,4.1,30.09,South,185,0.0,0.0,50,0.00,,,0.00,0.00,VWS V14.01,2013-02-18 08:42:00,
2013-02-18 03:43:00,19.7,4.1,30.09,South,191,0.0,0.0,50,0.00,,,0.00,0.00,VWS V14.01,2013-02-18 08:43:00,
2013-02-18 03:44:00,19.7,4.1,30.09,South,189,0.0,0.0,50,0.00,,,0.00,0.00,VWS V14.01,2013-02-18 08:44:00,
2013-02-18 03:45:00,19.7,4.1,30.10,South,185,0.0,0.0,50,0.00,,,0.00,0.00,VWS V14.01,2013-02-18 08:45:00,
2013-02-18 03:46:00,19.7,4.1,30.10,South,184,0.0,0.0,50,0.00,,,0.00,0.00,VWS V14.01,2013-02-18 08:46:00,
2013-02-18 03:47:00,19.7,4.1,30.09,South,191,0.0,0.0,50,0.00,,,0.00,0.00,VWS V14.01,2013-02-18 08:47:00,
2013-02-18 03:48:00,19.7,4.1,30.10,South,182,0.0,0.0,50,0.00,,,0.00,0.00,VWS V14.01,2013-02-18 08:48:00,
2013-02-18 03:49:00,19.7,4.1,30.10,South,182,0.0,0.0,50,0.00,,,0.00,0.00,VWS V14.01,2013-02-18 08:49:00,
2013-02-18 03:50:00,19.5,3.9,30.10,SSE,151,0.0,0.0,50,0.00,,,0.00,0.00,VWS V14.01,2013-02-18 08:50:00,
2013-02-18 03:51:00,19.5,3.9,30.10,SSE,151,0.0,0.0,50,0.00,,,0.00,0.00,VWS V14.01,2013-02-18 08:51:00,
2013-02-18 03:52:00,19.5,3.9,30.10,SSE,152,0.0,0.0,50,0.00,,,0.00,0.00,VWS V14.01,2013-02-18 08:52:00,
2013-02-18 03:53:00,19.7,4.1,30.10,South,182,0.0,0.0,50,0.00,,,0.00,0.00,VWS V14.01,2013-02-18 08:53:00,
2013-02-18 03:54:00,19.5,3.9,30.10,SSE,157,0.0,0.0,50,0.00,,,0.00,0.00,VWS V14.01,2013-02-18 08:54:00,
2013-02-18 03:55:00,19.5,3.9,30.10,SSE,161,0.0,0.0,50,0.00,,,0.00,0.00,VWS V14.01,2013-02-18 08:55:00,
2013-02-18 03:56:00,19.5,3.9,30.10,SSE,161,0.0,0.0,50,0.00,,,0.00,0.00,VWS V14.01,2013-02-18 08:56:00,
2013-02-18 03:57:00,19.4,3.8,30.10,SSE,165,0.0,0.0,50,0.00,,,0.00,0.00,VWS V14.01,2013-02-18 08:57:00,
2013-02-18 03:58:00,19.4,4.2,30.10,SSE,164,0.0,0.0,51,0.00,,,0.00,0.00,VWS V14.01,2013-02-18 08:58:00,
2013-02-18 03:59:00,19.5,3.9,30.10,SSE,157,0.0,0.0,50,0.00,,,0.00,0.00,VWS V14.01,2013-02-18 08:59:00,
2013-02-18 04:00:00,19.4,4.2,30.11,SSE,164,0.0,0.0,51,0.00,,,0.00,0.00,VWS V14.01,2013-02-18 09:00:00,
2013-02-18 04:01:00,19.4,4.2,30.11,SSE,164,0.0,0.0,51,0.00,,,0.00,0.00,VWS V14.01,2013-02-18 09:01:00,
2013-02-18 04:02:00,19.4,4.2,30.11,SSE,165,0.0,0.0,51,0.00,,,0.00,0.00,VWS V14.01,2013-02-18 09:02:00,
2013-02-18 04:03:00,19.4,4.2,30.11,SSE,164,0.0,0.0,51,0.00,,,0.00,0.00,VWS V14.01,2013-02-18 09:03:00,
2013-02-18 04:04:00,19.4,4.2,30.10,SSE,164,0.0,0.0,51,0.00,,,0.00,0.00,VWS V14.01,2013-02-18 09:04:00,
2013-02-18 04:05:00,19.4,4.2,30.11,SSE,164,0.0,0.0,51,0.00,,,0.00,0.00,VWS V14.01,2013-02-18 09:05:00,
2013-02-18 04:06:00,19.2,4.1,30.11,South,169,0.0,0.0,51,0.00,,,0.00,0.00,VWS V14.01,2013-02-18 09:06:00,
2013-02-18 04:07:00,19.2,4.1,30.11,South,171,0.0,0.0,51,0.00,,,0.00,0.00,VWS V14.01,2013-02-18 09:07:00,
2013-02-18 04:08:00,19.2,4.1,30.11,South,169,0.0,0.0,51,0.00,,,0.00,0.00,VWS V14.01,2013-02-18 09:08:00,
2013-02-18 04:09:00,19.4,4.2,30.11,SSE,164,0.0,0.0,51,0.00,,,0.00,0.00,VWS V14.01,2013-02-18 09:09:00,
2013-02-18 04:10:00,19.2,4.1,30.11,South,169,0.0,0.0,51,0.00,,,0.00,0.00,VWS V14.01,2013-02-18 09:10:00,
2013-02-18 04:11:00,19.2,4.1,30.11,South,169,0.0,0.0,51,0.00,,,0.00,0.00,VWS V14.01,2013-02-18 09:11:00,
2013-02-18 04:12:00,19.2,4.1,30.11,South,169,0.0,0.0,51,0.00,,,0.00,0.00,VWS V14.01,2013-02-18 09:12:00,
2013-02-18 04:13:00,19.2,4.1,30.11,South,169,0.0,0.0,51,0.00,,,0.00,0.00,VWS V14.01,2013-02-18 09:13:00,
2013-02-18 04:14:00,19.2,4.1,30.11,South,169,0.0,0.0,51,0.00,,,0.00,0.00,VWS V14.01,2013-02-18 09:14:00,
2013-02-18 04:15:00,19.2,4.1,30.11,South,169,0.0,0.0,51,0.00,,,0.00,0.00,VWS V14.01,2013-02-18 09:15:00,
2013-02-18 04:16:00,19.2,4.1,30.11,South,169,0.0,0.0,51,0.00,,,0.00,0.00,VWS V14.01,2013-02-18 09:16:00,
2013-02-18 04:17:00,19.2,4.1,30.11,South,169,0.0,0.0,51,0.00,,,0.00,0.00,VWS V14.01,2013-02-18 09:17:00,
2013-02-18 04:18:00,19.2,4.1,30.11,South,169,0.0,0.0,51,0.00,,,0.00,0.00,VWS V14.01,2013-02-18 09:18:00,
2013-02-18 04:19:00,19.2,4.1,30.11,South,169,0.0,0.0,51,0.00,,,0.00,0.00,VWS V14.01,2013-02-18 09:19:00,
2013-02-18 04:20:00,19.2,4.1,30.11,South,169,0.0,0.0,51,0.00,,,0.00,0.00,VWS V14.01,2013-02-18 09:20:00,
2013-02-18 04:21:00,19.2,4.1,30.11,South,169,0.0,0.0,51,0.00,,,0.00,0.00,VWS V14.01,2013-02-18 09:21:00,
2013-02-18 04:22:00,19.2,4.1,30.11,South,169,0.0,0.0,51,0.00,,,0.00,0.00,VWS V14.01,2013-02-18 09:22:00,
2013-02-18 04:23:00,19.2,4.1,30.11,South,169,0.0,0.0,51,0.00,,,0.00,0.00,VWS V14.01,2013-02-18 09:23:00,
2013-02-18 04:24:00,19.2,4.1,30.11,South,169,0.0,0.0,51,0.00,,,0.00,0.00,VWS V14.01,2013-02-18 09:24:00,
2013-02-18 04:25:00,19.2,4.1,30.11,South,169,0.0,0.0,51,0.00,,,0.00,0.00,VWS V14.01,2013-02-18 09:25:00,
2013-02-18 04:26:00,19.2,4.1,30.11,South,169,0.0,0.0,51,0.00,,,0.00,0.00,VWS V14.01,2013-02-18 09:26:00,
2013-02-18 04:27:00,19.2,4.1,30.11,South,169,0.0,0.0,51,0.00,,,0.00,0.00,VWS V14.01,2013-02-18 09:27:00,
2013-02-18 04:28:00,19.2,4.1,30.11,South,169,0.0,0.0,51,0.00,,,0.00,0.00,VWS V14.01,2013-02-18 09:28:00,
2013-02-18 04:29:00,19.2,4.1,30.11,South,169,0.0,0.0,51,0.00,,,0.00,0.00,VWS V14.01,2013-02-18 09:29:00,
2013-02-18 04:30:00,19.2,4.1,30.11,South,169,0.0,0.0,51,0.00,,,0.00,0.00,VWS V14.01,2013-02-18 09:30:00,
2013-02-18 04:31:00,19.2,4.1,30.11,South,169,0.0,0.0,51,0.00,,,0.00,0.00,VWS V14.01,2013-02-18 09:31:00,
2013-02-18 04:32:00,19.2,4.1,30.11,South,169,0.0,0.0,51,0.00,,,0.00,0.00,VWS V14.01,2013-02-18 09:32:00,
2013-02-18 04:33:00,19.2,4.1,30.11,South,169,0.0,0.0,51,0.00,,,0.00,0.00,VWS V14.01,2013-02-18 09:33:00,
2013-02-18 04:34:00,19.2,4.1,30.11,South,169,0.0,0.0,51,0.00,,,0.00,0.00,VWS V14.01,2013-02-18 09:34:00,
2013-02-18 04:35:00,19.2,4.1,30.11,South,169,0.0,0.0,51,0.00,,,0.00,0.00,VWS V14.01,2013-02-18 09:35:00,
2013-02-18 04:36:00,19.2,4.1,30.11,South,169,0.0,0.0,51,0.00,,,0.00,0.00,VWS V14.01,2013-02-18 09:36:00,
2013-02-18 04:37:00,19.2,4.1,30.11,South,169,0.0,0.0,51,0.00,,,0.00,0.00,VWS V14.01,2013-02-18 09:37:00,
2013-02-18 04:38:00,19.2,4.1,30.11,South,169,0.0,0.0,51,0.00,,,0.00,0.00,VWS V14.01,2013-02-18 09:38:00,
2013-02-18 04:39:00,19.2,4.1,30.11,South,169,0.0,0.0,51,0.00,,,0.00,0.00,VWS V14.01,2013-02-18 09:39:00,
2013-02-18 04:40:00,19.2,4.1,30.11,South,169,0.0,0.0,51,0.00,,,0.00,0.00,VWS V14.01,2013-02-18 09:40:00,
2013-02-18 04:41:00,19.2,4.1,30.11,South,169,0.0,0.0,51,0.00,,,0.00,0.00,VWS V14.01,2013-02-18 09:41:00,
2013-02-18 04:42:00,19.2,4.1,30.11,South,169,0.0,0.0,51,0.00,,,0.00,0.00,VWS V14.01,2013-02-18 09:42:00,
2013-02-18 04:43:00,19.2,4.1,30.11,South,169,0.0,0.0,51,0.00,,,0.00,0.00,VWS V14.01,2013-02-18 09:43:00,
2013-02-18 04:44:00,19.4,4.2,30.11,South,169,0.0,0.0,51,0.00,,,0.00,0.00,VWS V14.01,2013-02-18 09:44:00,
2013-02-18 04:45:00,19.4,4.2,30.12,South,169,0.0,0.0,51,0.00,,,0.00,0.00,VWS V14.01,2013-02-18 09:45:00,
2013-02-18 04:46:00,19.4,4.2,30.12,South,169,0.0,0.0,51,0.00,,,0.00,0.00,VWS V14.01,2013-02-18 09:46:00,
2013-02-18 04:47:00,19.4,4.2,30.12,South,169,0.0,0.0,51,0.00,,,0.00,0.00,VWS V14.01,2013-02-18 09:47:00,
2013-02-18 04:48:00,19.4,4.2,30.12,South,169,0.0,0.0,51,0.00,,,0.00,0.00,VWS V14.01,2013-02-18 09:48:00,
2013-02-18 04:49:00,19.4,4.2,30.11,South,169,0.0,0.0,51,0.00,,,0.00,0.00,VWS V14.01,2013-02-18 09:49:00,
2013-02-18 04:50:00,19.4,4.2,30.12,South,169,0.0,0.0,51,0.00,,,0.00,0.00,VWS V14.01,2013-02-18 09:50:00,
2013-02-18 04:51:00,19.4,4.2,30.12,South,169,0.0,0.0,51,0.00,,,0.00,0.00,VWS V14.01,2013-02-18 09:51:00,
2013-02-18 04:52:00,19.4,4.2,30.12,South,169,0.0,0.0,51,0.00,,,0.00,0.00,VWS V14.01,2013-02-18 09:52:00,
2013-02-18 04:53:00,19.4,4.2,30.12,South,169,0.0,0.0,51,0.00,,,0.00,0.00,VWS V14.01,2013-02-18 09:53:00,
2013-02-18 04:54:00,19.4,4.2,30.12,South,169,0.0,0.0,51,0.00,,,0.00,0.00,VWS V14.01,2013-02-18 09:54:00,
2013-02-18 04:55:00,19.4,4.2,30.12,South,169,0.0,0.0,51,0.00,,,0.00,0.00,VWS V14.01,2013-02-18 09:55:00,
2013-02-18 04:59:00,19.5,4.3,30.12,South,169,0.0,0.0,51,0.00,,,0.00,0.00,VWS V14.01,2013-02-18 09:59:00,
2013-02-18 05:00:00,19.5,4.3,30.12,South,169,0.0,0.0,51,0.00,,,0.00,0.00,VWS V14.01,2013-02-18 10:00:00,
2013-02-18 05:01:00,19.5,4.3,30.12,South,169,0.0,0.0,51,0.00,,,0.00,0.00,VWS V14.01,2013-02-18 10:01:00,
2013-02-18 05:02:00,19.5,4.3,30.12,South,169,0.0,0.0,51,0.00,,,0.00,0.00,VWS V14.01,2013-02-18 10:02:00,
2013-02-18 05:03:00,19.5,4.3,30.12,South,169,0.0,0.0,51,0.00,,,0.00,0.00,VWS V14.01,2013-02-18 10:03:00,
2013-02-18 05:04:00,19.5,4.3,30.12,South,169,0.0,0.0,51,0.00,,,0.00,0.00,VWS V14.01,2013-02-18 10:04:00,
2013-02-18 05:05:00,19.5,4.3,30.12,South,169,0.0,0.0,51,0.00,,,0.00,0.00,VWS V14.01,2013-02-18 10:05:00,
2013-02-18 05:06:00,19.5,4.3,30.12,South,169,0.0,0.0,51,0.00,,,0.00,0.00,VWS V14.01,2013-02-18 10:06:00,
2013-02-18 05:07:00,19.5,4.3,30.12,South,169,0.0,0.0,51,0.00,,,0.00,0.00,VWS V14.01,2013-02-18 10:07:00,
2013-02-18 05:08:00,19.5,4.3,30.12,South,169,0.0,0.0,51,0.00,,,0.00,0.00,VWS V14.01,2013-02-18 10:08:00,
2013-02-18 05:09:00,19.5,4.3,30.12,South,169,0.0,0.0,51,0.00,,,0.00,0.00,VWS V14.01,2013-02-18 10:09:00,
2013-02-18 05:10:00,19.5,4.3,30.12,South,169,0.0,0.0,51,0.00,,,0.00,0.00,VWS V14.01,2013-02-18 10:10:00,
2013-02-18 05:11:00,19.5,4.3,30.12,South,169,0.0,0.0,51,0.00,,,0.00,0.00,VWS V14.01,2013-02-18 10:11:00,
2013-02-18 05:12:00,19.5,4.3,30.12,South,169,0.0,0.0,51,0.00,,,0.00,0.00,VWS V14.01,2013-02-18 10:12:00,
2013-02-18 05:13:00,19.5,4.8,30.12,South,169,0.0,0.0,52,0.00,,,0.00,0.00,VWS V14.01,2013-02-18 10:13:00,
2013-02-18 05:14:00,19.5,4.8,30.12,South,169,0.0,0.0,52,0.00,,,0.00,0.00,VWS V14.01,2013-02-18 10:14:00,
2013-02-18 05:15:00,19.5,4.8,30.13,South,169,0.0,0.0,52,0.00,,,0.00,0.00,VWS V14.01,2013-02-18 10:15:00,
2013-02-18 05:16:00,19.5,4.3,30.12,South,169,0.0,0.0,51,0.00,,,0.00,0.00,VWS V14.01,2013-02-18 10:16:00,
2013-02-18 05:17:00,19.4,4.7,30.13,South,169,0.0,0.0,52,0.00,,,0.00,0.00,VWS V14.01,2013-02-18 10:17:00,
2013-02-18 05:18:00,19.4,4.7,30.13,South,169,0.0,0.0,52,0.00,,,0.00,0.00,VWS V14.01,2013-02-18 10:18:00,
2013-02-18 05:19:00,19.4,4.7,30.13,South,169,0.0,0.0,52,0.00,,,0.00,0.00,VWS V14.01,2013-02-18 10:19:00,
2013-02-18 05:20:00,19.4,4.7,30.13,South,169,0.0,0.0,52,0.00,,,0.00,0.00,VWS V14.01,2013-02-18 10:20:00,
2013-02-18 05:21:00,19.5,4.8,30.13,South,169,0.0,0.0,52,0.00,,,0.00,0.00,VWS V14.01,2013-02-18 10:21:00,
2013-02-18 05:22:00,19.4,4.7,30.13,South,169,0.0,0.0,52,0.00,,,0.00,0.00,VWS V14.01,2013-02-18 10:22:00,
2013-02-18 05:23:00,19.4,4.7,30.13,South,169,0.0,0.0,52,0.00,,,0.00,0.00,VWS V14.01,2013-02-18 10:23:00,
2013-02-18 05:24:00,19.2,4.9,30.13,South,169,0.0,0.0,53,0.00,,,0.00,0.00,VWS V14.01,2013-02-18 10:24:00,
2013-02-18 05:25:00,19.2,4.9,30.13,South,169,0.0,0.0,53,0.00,,,0.00,0.00,VWS V14.01,2013-02-18 10:25:00,
2013-02-18 05:26:00,19.4,4.7,30.13,South,169,0.0,0.0,52,0.00,,,0.00,0.00,VWS V14.01,2013-02-18 10:26:00,
2013-02-18 05:27:00,19.2,4.9,30.13,South,169,0.0,0.0,53,0.00,,,0.00,0.00,VWS V14.01,2013-02-18 10:27:00,
2013-02-18 05:28:00,19.2,4.9,30.13,South,169,0.0,0.0,53,0.00,,,0.00,0.00,VWS V14.01,2013-02-18 10:28:00,
2013-02-18 05:29:00,19.2,4.9,30.13,South,169,0.0,0.0,53,0.00,,,0.00,0.00,VWS V14.01,2013-02-18 10:29:00,
2013-02-18 05:30:00,19.2,4.9,30.14,South,169,0.0,0.0,53,0.00,,,0.00,0.00,VWS V14.01,2013-02-18 10:30:00,
2013-02-18 05:31:00,19.2,4.9,30.14,South,169,0.0,0.0,53,0.00,,,0.00,0.00,VWS V14.01,2013-02-18 10:31:00,
2013-02-18 05:32:00,19.2,4.9,30.13,South,169,0.0,0.0,53,0.00,,,0.00,0.00,VWS V14.01,2013-02-18 10:32:00,
2013-02-18 05:33:00,19.1,4.8,30.14,South,169,0.0,0.0,53,0.00,,,0.00,0.00,VWS V14.01,2013-02-18 10:33:00,
2013-02-18 05:34:00,19.1,4.8,30.14,South,169,0.0,0.0,53,0.00,,,0.00,0.00,VWS V14.01,2013-02-18 10:34:00,
2013-02-18 05:35:00,19.1,4.8,30.14,South,169,0.0,0.0,53,0.00,,,0.00,0.00,VWS V14.01,2013-02-18 10:35:00,
2013-02-18 05:36:00,19.1,4.8,30.14,South,169,0.0,0.0,53,0.00,,,0.00,0.00,VWS V14.01,2013-02-18 10:36:00,
2013-02-18 05:37:00,19.1,4.8,30.14,South,169,0.0,0.0,53,0.00,,,0.00,0.00,VWS V14.01,2013-02-18 10:37:00,
2013-02-18 05:38:00,18.9,4.6,30.14,South,169,0.0,0.0,53,0.00,,,0.00,0.00,VWS V14.01,2013-02-18 10:38:00,
2013-02-18 05:39:00,18.9,4.6,30.14,South,169,0.0,0.0,53,0.00,,,0.00,0.00,VWS V14.01,2013-02-18 10:39:00,
2013-02-18 05:40:00,18.9,4.6,30.14,South,169,0.0,0.0,53,0.00,,,0.00,0.00,VWS V14.01,2013-02-18 10:40:00,
2013-02-18 05:41:00,18.9,5.0,30.14,South,169,0.0,0.0,54,0.00,,,0.00,0.00,VWS V14.01,2013-02-18 10:41:00,
2013-02-18 05:42:00,18.9,5.0,30.14,South,169,0.0,0.0,54,0.00,,,0.00,0.00,VWS V14.01,2013-02-18 10:42:00,
2013-02-18 05:43:00,18.9,4.6,30.14,South,169,0.0,0.0,53,0.00,,,0.00,0.00,VWS V14.01,2013-02-18 10:43:00,
2013-02-18 05:44:00,18.9,5.0,30.14,South,169,0.0,0.0,54,0.00,,,0.00,0.00,VWS V14.01,2013-02-18 10:44:00,
2013-02-18 05:45:00,18.9,5.0,30.13,South,169,0.0,0.0,54,0.00,,,0.00,0.00,VWS V14.01,2013-02-18 10:45:00,
2013-02-18 05:46:00,18.9,5.0,30.13,South,169,0.0,0.0,54,0.00,,,0.00,0.00,VWS V14.01,2013-02-18 10:46:00,
2013-02-18 05:47:00,18.9,5.0,30.13,South,169,0.0,0.0,54,0.00,,,0.00,0.00,VWS V14.01,2013-02-18 10:47:00,
2013-02-18 05:48:00,18.9,5.0,30.14,South,169,0.0,0.0,54,0.00,,,0.00,0.00,VWS V14.01,2013-02-18 10:48:00,
2013-02-18 05:49:00,18.9,5.0,30.13,South,169,0.0,0.0,54,0.00,,,0.00,0.00,VWS V14.01,2013-02-18 10:49:00,
2013-02-18 05:50:00,18.9,5.0,30.13,South,169,0.0,0.0,54,0.00,,,0.00,0.00,VWS V14.01,2013-02-18 10:50:00,
2013-02-18 05:51:00,18.9,5.0,30.13,South,169,0.0,0.0,54,0.00,,,0.00,0.00,VWS V14.01,2013-02-18 10:51:00,
2013-02-18 05:52:00,18.8,4.9,30.13,South,169,0.0,0.0,54,0.00,,,0.00,0.00,VWS V14.01,2013-02-18 10:52:00,
2013-02-18 05:53:00,18.9,5.0,30.13,South,169,0.0,0.0,54,0.00,,,0.00,0.00,VWS V14.01,2013-02-18 10:53:00,
2013-02-18 05:54:00,18.8,4.9,30.13,South,169,0.0,0.0,54,0.00,,,0.00,0.00,VWS V14.01,2013-02-18 10:54:00,
2013-02-18 05:55:00,18.8,4.9,30.13,South,169,0.0,0.0,54,0.00,,,0.00,0.00,VWS V14.01,2013-02-18 10:55:00,
2013-02-18 05:56:00,18.8,4.9,30.13,South,169,0.0,0.0,54,0.00,,,0.00,0.00,VWS V14.01,2013-02-18 10:56:00,
2013-02-18 05:57:00,18.8,4.9,30.13,South,169,0.0,0.0,54,0.00,,,0.00,0.00,VWS V14.01,2013-02-18 10:57:00,
2013-02-18 05:58:00,18.8,4.9,30.13,South,169,0.0,0.0,54,0.00,,,0.00,0.00,VWS V14.01,2013-02-18 10:58:00,
2013-02-18 05:59:00,18.8,4.9,30.13,South,169,0.0,0.0,54,0.00,,,0.00,0.00,VWS V14.01,2013-02-18 10:59:00,
2013-02-18 06:00:00,18.8,4.9,30.14,South,169,0.0,0.0,54,0.00,,,0.00,0.00,VWS V14.01,2013-02-18 11:00:00,
2013-02-18 06:01:00,18.8,4.9,30.14,South,169,0.0,0.0,54,0.00,,,0.00,0.00,VWS V14.01,2013-02-18 11:01:00,
2013-02-18 06:02:00,18.8,4.9,30.14,South,169,0.0,0.0,54,0.00,,,0.00,0.00,VWS V14.01,2013-02-18 11:02:00,
2013-02-18 06:03:00,18.8,4.9,30.14,South,169,0.0,0.0,54,0.00,,,0.00,0.00,VWS V14.01,2013-02-18 11:03:00,
2013-02-18 06:04:00,18.8,4.9,30.13,South,169,0.0,0.0,54,0.00,,,0.00,0.00,VWS V14.01,2013-02-18 11:04:00,
2013-02-18 06:05:00,18.6,4.7,30.14,South,169,0.0,0.0,54,0.00,,,0.00,0.00,VWS V14.01,2013-02-18 11:05:00,
2013-02-18 06:06:00,18.6,4.7,30.14,South,169,0.0,0.0,54,0.00,,,0.00,0.00,VWS V14.01,2013-02-18 11:06:00,
2013-02-18 06:07:00,18.6,4.7,30.14,South,169,0.0,0.0,54,0.00,,,0.00,0.00,VWS V14.01,2013-02-18 11:07:00,
2013-02-18 06:08:00,18.6,4.7,30.14,South,169,0.0,0.0,54,0.00,,,0.00,0.00,VWS V14.01,2013-02-18 11:08:00,
2013-02-18 06:09:00,18.8,4.9,30.14,South,169,0.0,0.0,54,0.00,,,0.00,0.00,VWS V14.01,2013-02-18 11:09:00,
2013-02-18 06:10:00,18.6,4.7,30.14,South,169,0.0,0.0,54,0.00,,,0.00,0.00,VWS V14.01,2013-02-18 11:10:00,
2013-02-18 06:11:00,18.6,4.7,30.14,South,169,0.0,0.0,54,0.00,,,0.00,0.00,VWS V14.01,2013-02-18 11:11:00,
2013-02-18 06:12:00,18.6,4.7,30.14,South,169,0.0,0.0,54,0.00,,,0.00,0.00,VWS V14.01,2013-02-18 11:12:00,
2013-02-18 06:13:00,18.4,4.6,30.14,South,169,0.0,0.0,54,0.00,,,0.00,0.00,VWS V14.01,2013-02-18 11:13:00,
2013-02-18 06:14:00,18.6,4.7,30.14,South,169,0.0,0.0,54,0.00,,,0.00,0.00,VWS V14.01,2013-02-18 11:14:00,
2013-02-18 06:15:00,18.4,4.6,30.15,South,169,0.0,0.0,54,0.00,,,0.00,0.00,VWS V14.01,2013-02-18 11:15:00,
2013-02-18 06:16:00,18.4,4.6,30.15,South,169,0.0,0.0,54,0.00,,,0.00,0.00,VWS V14.01,2013-02-18 11:16:00,
2013-02-18 06:17:00,18.4,4.6,30.15,South,169,0.0,0.0,54,0.00,,,0.00,0.00,VWS V14.01,2013-02-18 11:17:00,
2013-02-18 06:18:00,18.4,4.6,30.15,South,169,0.0,0.0,54,0.00,,,0.00,0.00,VWS V14.01,2013-02-18 11:18:00,
2013-02-18 06:19:00,18.3,4.4,30.15,South,169,0.0,0.0,54,0.00,,,0.00,0.00,VWS V14.01,2013-02-18 11:19:00,
2013-02-18 06:20:00,18.4,4.6,30.15,South,169,0.0,0.0,54,0.00,,,0.00,0.00,VWS V14.01,2013-02-18 11:20:00,
2013-02-18 06:21:00,18.3,4.8,30.15,South,169,0.0,0.0,55,0.00,,,0.00,0.00,VWS V14.01,2013-02-18 11:21:00,
2013-02-18 06:22:00,18.3,4.8,30.15,South,169,0.0,0.0,55,0.00,,,0.00,0.00,VWS V14.01,2013-02-18 11:22:00,
2013-02-18 06:23:00,18.3,4.8,30.15,South,169,0.0,0.0,55,0.00,,,0.00,0.00,VWS V14.01,2013-02-18 11:23:00,
2013-02-18 06:24:00,18.3,4.8,30.15,South,169,0.0,0.0,55,0.00,,,0.00,0.00,VWS V14.01,2013-02-18 11:24:00,
2013-02-18 06:25:00,18.3,4.8,30.15,South,169,0.0,0.0,55,0.00,,,0.00,0.00,VWS V14.01,2013-02-18 11:25:00,
2013-02-18 06:26:00,18.3,4.8,30.15,South,169,0.0,0.0,55,0.00,,,0.00,0.00,VWS V14.01,2013-02-18 11:26:00,
2013-02-18 06:27:00,18.3,4.8,30.15,South,169,0.0,0.0,55,0.00,,,0.00,0.00,VWS V14.01,2013-02-18 11:27:00,
2013-02-18 06:28:00,18.3,4.8,30.15,South,169,0.0,0.0,55,0.00,,,0.00,0.00,VWS V14.01,2013-02-18 11:28:00,
2013-02-18 06:29:00,18.3,4.8,30.15,South,169,0.0,0.0,55,0.00,,,0.00,0.00,VWS V14.01,2013-02-18 11:29:00,
2013-02-18 06:30:00,18.3,4.8,30.15,South,169,0.0,0.0,55,0.00,,,0.00,0.00,VWS V14.01,2013-02-18 11:30:00,
2013-02-18 06:31:00,18.3,4.8,30.15,South,169,0.0,0.0,55,0.00,,,0.00,0.00,VWS V14.01,2013-02-18 11:31:00,
2013-02-18 06:32:00,18.1,4.7,30.15,South,169,0.0,0.0,55,0.00,,,0.00,0.00,VWS V14.01,2013-02-18 11:32:00,
2013-02-18 06:33:00,18.1,5.1,30.15,South,169,0.0,0.0,56,0.00,,,0.00,0.00,VWS V14.01,2013-02-18 11:33:00,
2013-02-18 06:34:00,18.1,5.1,30.15,South,169,0.0,0.0,56,0.00,,,0.00,0.00,VWS V14.01,2013-02-18 11:34:00,
2013-02-18 06:35:00,18.1,5.1,30.15,South,169,0.0,0.0,56,0.00,,,0.00,0.00,VWS V14.01,2013-02-18 11:35:00,
2013-02-18 06:36:00,18.1,5.1,30.15,South,169,0.0,0.0,56,0.00,,,0.00,0.00,VWS V14.01,2013-02-18 11:36:00,
2013-02-18 06:37:00,18.1,5.1,30.15,South,169,0.0,0.0,56,0.00,,,0.00,0.00,VWS V14.01,2013-02-18 11:37:00,
2013-02-18 06:38:00,18.1,5.1,30.15,South,169,0.0,0.0,56,0.00,,,0.00,0.00,VWS V14.01,2013-02-18 11:38:00,
2013-02-18 06:39:00,18.1,5.1,30.15,South,169,0.0,0.0,56,0.00,,,0.00,0.00,VWS V14.01,2013-02-18 11:39:00,
2013-02-18 06:40:00,18.1,5.1,30.15,South,169,0.0,0.0,56,0.00,,,0.00,0.00,VWS V14.01,2013-02-18 11:40:00,
2013-02-18 06:41:00,18.1,5.1,30.15,South,169,0.0,0.0,56,0.00,,,0.00,0.00,VWS V14.01,2013-02-18 11:41:00,
2013-02-18 06:42:00,18.1,5.1,30.15,South,169,0.0,0.0,56,0.00,,,0.00,0.00,VWS V14.01,2013-02-18 11:42:00,
2013-02-18 06:43:00,18.1,5.1,30.15,South,169,0.0,0.0,56,0.00,,,0.00,0.00,VWS V14.01,2013-02-18 11:43:00,
2013-02-18 06:44:00,18.1,5.4,30.15,South,169,0.0,0.0,57,0.00,,,0.00,0.00,VWS V14.01,2013-02-18 11:44:00,
2013-02-18 06:45:00,18.1,5.4,30.15,South,169,0.0,0.0,57,0.00,,,0.00,0.00,VWS V14.01,2013-02-18 11:45:00,
2013-02-18 06:46:00,18.1,5.4,30.15,South,169,0.0,0.0,57,0.00,,,0.00,0.00,VWS V14.01,2013-02-18 11:46:00,
2013-02-18 06:47:00,18.1,5.4,30.15,South,169,0.0,0.0,57,0.00,,,0.00,0.00,VWS V14.01,2013-02-18 11:47:00,
2013-02-18 06:48:00,18.1,5.4,30.15,South,169,0.0,0.0,57,0.00,,,0.00,0.00,VWS V14.01,2013-02-18 11:48:00,
2013-02-18 06:49:00,18.1,5.4,30.15,South,169,0.0,0.0,57,0.00,,,0.00,0.00,VWS V14.01,2013-02-18 11:49:00,
2013-02-18 06:50:00,18.0,5.7,30.15,South,169,0.0,0.0,58,0.00,,,0.00,0.00,VWS V14.01,2013-02-18 11:50:00,
2013-02-18 06:51:00,18.0,5.7,30.15,South,169,0.0,0.0,58,0.00,,,0.00,0.00,VWS V14.01,2013-02-18 11:51:00,
2013-02-18 06:52:00,18.0,5.7,30.15,South,169,0.0,0.0,58,0.00,,,0.00,0.00,VWS V14.01,2013-02-18 11:52:00,
2013-02-18 06:53:00,18.0,5.7,30.15,South,169,0.0,0.0,58,0.00,,,0.00,0.00,VWS V14.01,2013-02-18 11:53:00,
2013-02-18 06:54:00,18.0,5.7,30.15,South,169,0.0,0.0,58,0.00,,,0.00,0.00,VWS V14.01,2013-02-18 11:54:00,
2013-02-18 06:55:00,18.0,5.7,30.15,South,169,0.0,0.0,58,0.00,,,0.00,0.00,VWS V14.01,2013-02-18 11:55:00,
2013-02-18 06:56:00,18.0,5.7,30.15,South,169,0.0,0.0,58,0.00,,,0.00,0.00,VWS V14.01,2013-02-18 11:56:00,
2013-02-18 06:57:00,18.0,5.7,30.15,South,169,0.0,0.0,58,0.00,,,0.00,0.00,VWS V14.01,2013-02-18 11:57:00,
2013-02-18 06:58:00,18.0,5.7,30.15,South,169,0.0,0.0,58,0.00,,,0.00,0.00,VWS V14.01,2013-02-18 11:58:00,
2013-02-18 06:59:00,18.0,5.7,30.15,South,169,0.0,0.0,58,0.00,,,0.00,0.00,VWS V14.01,2013-02-18 11:59:00,
2013-02-18 07:00:00,18.0,5.7,30.16,South,169,0.0,0.0,58,0.00,,,0.00,0.00,VWS V14.01,2013-02-18 12:00:00,
2013-02-18 07:01:00,18.0,5.7,30.16,South,169,0.0,0.0,58,0.00,,,0.00,0.00,VWS V14.01,2013-02-18 12:01:00,
2013-02-18 07:02:00,18.0,5.7,30.15,South,169,0.0,0.0,58,0.00,,,0.00,0.00,VWS V14.01,2013-02-18 12:02:00,
2013-02-18 07:03:00,17.8,5.5,30.16,South,169,0.0,0.0,58,0.00,,,0.00,0.00,VWS V14.01,2013-02-18 12:03:00,
2013-02-18 07:04:00,17.8,5.9,30.16,South,169,0.0,0.0,59,0.00,,,0.00,0.00,VWS V14.01,2013-02-18 12:04:00,
2013-02-18 07:05:00,17.8,5.5,30.16,South,169,0.0,0.0,58,0.00,,,0.00,0.00,VWS V14.01,2013-02-18 12:05:00,
2013-02-18 07:06:00,17.8,5.9,30.16,South,169,0.0,0.0,59,0.00,,,0.00,0.00,VWS V14.01,2013-02-18 12:06:00,
2013-02-18 07:07:00,17.8,5.9,30.16,South,169,0.0,0.0,59,0.00,,,0.00,0.00,VWS V14.01,2013-02-18 12:07:00,
2013-02-18 07:08:00,17.8,5.5,30.16,South,169,0.0,0.0,58,0.00,,,0.00,0.00,VWS V14.01,2013-02-18 12:08:00,
2013-02-18 07:09:00,17.7,5.8,30.16,South,169,0.0,0.0,59,0.00,,,0.00,0.00,VWS V14.01,2013-02-18 12:09:00,
2013-02-18 07:10:00,17.7,5.8,30.16,South,169,0.0,0.0,59,0.00,,,0.00,0.00,VWS V14.01,2013-02-18 12:10:00,
2013-02-18 07:11:00,17.7,5.8,30.16,South,169,0.0,0.0,59,0.00,,,0.00,5.00,VWS V14.01,2013-02-18 12:11:00,
2013-02-18 07:12:00,17.7,5.8,30.16,South,169,0.0,0.0,59,0.00,,,0.00,5.00,VWS V14.01,2013-02-18 12:12:00,
2013-02-18 07:13:00,17.8,5.9,30.16,South,169,0.0,0.0,59,0.00,,,0.00,0.00,VWS V14.01,2013-02-18 12:13:00,
2013-02-18 07:14:00,17.7,6.2,30.16,South,169,0.0,0.0,60,0.00,,,0.00,5.00,VWS V14.01,2013-02-18 12:14:00,
2013-02-18 07:15:00,17.7,6.2,30.16,South,169,0.0,0.0,60,0.00,,,0.00,14.00,VWS V14.01,2013-02-18 12:15:00,
2013-02-18 07:16:00,17.7,6.2,30.16,South,169,0.0,0.0,60,0.00,,,0.00,14.00,VWS V14.01,2013-02-18 12:16:00,
2013-02-18 07:17:00,17.7,6.2,30.16,South,169,0.0,0.0,60,0.00,,,0.00,14.00,VWS V14.01,2013-02-18 12:17:00,
2013-02-18 07:18:00,17.7,6.2,30.16,South,169,0.0,0.0,60,0.00,,,0.00,14.00,VWS V14.01,2013-02-18 12:18:00,
2013-02-18 07:19:00,17.7,6.2,30.16,South,169,0.0,0.0,60,0.00,,,0.00,5.00,VWS V14.01,2013-02-18 12:19:00,
2013-02-18 07:20:00,17.7,6.2,30.16,South,169,0.0,0.0,60,0.00,,,0.00,21.00,VWS V14.01,2013-02-18 12:20:00,
2013-02-18 07:21:00,17.7,6.2,30.16,South,169,0.0,0.0,60,0.00,,,0.00,21.00,VWS V14.01,2013-02-18 12:21:00,
2013-02-18 07:22:00,17.7,6.2,30.16,South,169,0.0,0.0,60,0.00,,,0.00,21.00,VWS V14.01,2013-02-18 12:22:00,
2013-02-18 07:23:00,17.7,6.6,30.16,South,169,0.0,0.0,61,0.00,,,0.00,21.00,VWS V14.01,2013-02-18 12:23:00,
2013-02-18 07:24:00,17.7,6.2,30.16,South,169,0.0,0.0,60,0.00,,,0.00,21.00,VWS V14.01,2013-02-18 12:24:00,
2013-02-18 07:25:00,17.7,6.6,30.16,South,169,0.0,0.0,61,0.00,,,0.00,30.00,VWS V14.01,2013-02-18 12:25:00,
2013-02-18 07:26:00,17.7,6.6,30.16,South,169,0.0,0.0,61,0.00,,,0.00,30.00,VWS V14.01,2013-02-18 12:26:00,
2013-02-18 07:27:00,17.7,6.6,30.16,South,169,0.0,0.0,61,0.00,,,0.00,30.00,VWS V14.01,2013-02-18 12:27:00,
2013-02-18 07:28:00,17.7,6.6,30.16,South,169,0.0,0.0,61,0.00,,,0.00,40.00,VWS V14.01,2013-02-18 12:28:00,
2013-02-18 07:29:00,17.7,6.6,30.16,South,169,0.0,0.0,61,0.00,,,0.00,30.00,VWS V14.01,2013-02-18 12:29:00,
2013-02-18 07:30:00,17.7,6.9,30.17,South,169,0.0,0.0,62,0.00,,,0.00,40.00,VWS V14.01,2013-02-18 12:30:00,
2013-02-18 07:31:00,17.7,6.9,30.17,South,169,0.0,0.0,62,0.00,,,0.00,40.00,VWS V14.01,2013-02-18 12:31:00,
2013-02-18 07:32:00,17.7,6.9,30.17,South,169,0.0,0.0,62,0.00,,,0.00,51.00,VWS V14.01,2013-02-18 12:32:00,
2013-02-18 07:33:00,17.8,7.0,30.17,South,169,0.0,0.0,62,0.00,,,0.00,51.00,VWS V14.01,2013-02-18 12:33:00,
2013-02-18 07:34:00,17.7,6.6,30.16,South,169,0.0,0.0,61,0.00,,,0.00,40.00,VWS V14.01,2013-02-18 12:34:00,
2013-02-18 07:35:00,17.8,7.0,30.17,South,169,0.0,0.0,62,0.00,,,0.00,51.00,VWS V14.01,2013-02-18 12:35:00,
2013-02-18 07:36:00,17.8,7.0,30.17,South,169,0.0,0.0,62,0.00,,,0.00,63.00,VWS V14.01,2013-02-18 12:36:00,
2013-02-18 07:37:00,18.0,7.2,30.17,South,169,0.0,0.0,62,0.00,,,0.00,72.00,VWS V14.01,2013-02-18 12:37:00,
2013-02-18 07:38:00,18.0,7.2,30.17,South,169,0.0,0.0,62,0.00,,,0.00,74.00,VWS V14.01,2013-02-18 12:38:00,
2013-02-18 07:39:00,18.1,7.3,30.17,South,169,0.0,0.0,62,0.00,,,0.00,76.00,VWS V14.01,2013-02-18 12:39:00,
2013-02-18 07:40:00,17.8,7.0,30.17,South,169,0.0,0.0,62,0.00,,,0.00,51.00,VWS V14.01,2013-02-18 12:40:00,
2013-02-18 07:41:00,18.3,7.5,30.17,East,100,0.0,0.0,62,0.00,,,0.00,84.00,VWS V14.01,2013-02-18 12:41:00,
2013-02-18 07:42:00,18.3,7.5,30.17,East,99,0.0,0.0,62,0.00,,,0.00,86.00,VWS V14.01,2013-02-18 12:42:00,
2013-02-18 07:43:00,18.4,7.2,30.17,East,100,0.0,0.0,61,0.00,,,0.00,90.00,VWS V14.01,2013-02-18 12:43:00,
2013-02-18 07:44:00,18.4,7.6,30.17,East,100,0.0,0.0,62,0.00,,,0.00,95.00,VWS V14.01,2013-02-18 12:44:00,
2013-02-18 07:45:00,18.6,7.4,30.17,East,99,0.0,0.0,61,0.00,,,0.00,97.00,VWS V14.01,2013-02-18 12:45:00,
2013-02-18 07:46:00,18.3,7.5,30.17,East,100,0.0,0.0,62,0.00,,,0.00,84.00,VWS V14.01,2013-02-18 12:46:00,
2013-02-18 07:47:00,18.6,7.4,30.17,SE,133,0.0,0.0,61,0.00,,,0.00,102.00,VWS V14.01,2013-02-18 12:47:00,
2013-02-18 07:48:00,18.8,7.6,30.17,SE,133,0.0,0.0,61,0.00,,,0.00,104.00,VWS V14.01,2013-02-18 12:48:00,
2013-02-18 07:49:00,18.9,7.7,30.17,SE,140,0.0,0.0,61,0.00,,,0.00,109.00,VWS V14.01,2013-02-18 12:49:00,
2013-02-18 07:50:00,18.9,7.3,30.17,SE,140,0.0,0.0,60,0.00,,,0.00,113.00,VWS V14.01,2013-02-18 12:50:00,
2013-02-18 07:51:00,19.1,7.5,30.17,SE,140,0.0,0.0,60,0.00,,,0.00,114.00,VWS V14.01,2013-02-18 12:51:00,
2013-02-18 07:52:00,18.6,7.4,30.17,SE,133,0.0,0.0,61,0.00,,,0.00,102.00,VWS V14.01,2013-02-18 12:52:00,
2013-02-18 07:53:00,19.2,7.6,30.17,ESE,120,0.0,0.0,60,0.00,,,0.00,121.00,VWS V14.01,2013-02-18 12:53:00,
2013-02-18 07:54:00,19.4,7.4,30.17,ESE,114,0.0,0.0,59,0.00,,,0.00,127.00,VWS V14.01,2013-02-18 12:54:00,
2013-02-18 07:55:00,19.5,7.5,30.17,ESE,117,0.0,0.0,59,0.00,,,0.00,128.00,VWS V14.01,2013-02-18 12:55:00,
2013-02-18 07:56:00,19.5,7.5,30.17,ESE,117,0.0,0.0,59,0.00,,,0.00,132.00,VWS V14.01,2013-02-18 12:56:00,
2013-02-18 07:57:00,19.1,7.5,30.17,SE,143,0.0,0.0,60,0.00,,,0.00,118.00,VWS V14.01,2013-02-18 12:57:00,
2013-02-18 07:58:00,19.9,7.5,30.17,ESE,116,0.0,0.0,58,0.00,,,0.00,134.00,VWS V14.01,2013-02-18 12:58:00,
2013-02-18 07:59:00,19.9,7.5,30.17,ESE,120,0.0,0.0,58,0.00,,,0.00,135.00,VWS V14.01,2013-02-18 12:59:00,
2013-02-18 08:00:00,20.0,7.6,30.17,ESE,119,0.0,0.0,58,0.00,,,0.00,134.00,VWS V14.01,2013-02-18 13:00:00,
2013-02-18 08:01:00,20.2,7.8,30.17,ESE,119,0.0,0.0,58,0.00,,,0.00,125.00,VWS V14.01,2013-02-18 13:01:00,
2013-02-18 08:02:00,20.3,7.9,30.17,SE,124,0.0,0.0,58,0.00,,,0.00,120.00,VWS V14.01,2013-02-18 13:02:00,
2013-02-18 08:03:00,19.9,7.5,30.17,ESE,116,0.0,0.0,58,0.00,,,0.00,134.00,VWS V14.01,2013-02-18 13:03:00,
2013-02-18 08:04:00,20.5,8.1,30.17,ESE,113,0.0,0.0,58,0.00,,,0.00,127.00,VWS V14.01,2013-02-18 13:04:00,
2013-02-18 08:05:00,20.6,8.2,30.17,East,88,0.0,0.0,58,0.00,,,0.00,114.00,VWS V14.01,2013-02-18 13:05:00,
2013-02-18 08:06:00,20.8,8.0,30.17,SSE,148,0.0,0.0,57,0.00,,,0.00,97.00,VWS V14.01,2013-02-18 13:06:00,
2013-02-18 08:07:00,21.0,8.6,30.17,SSE,148,0.0,0.0,58,0.00,,,0.00,99.00,VWS V14.01,2013-02-18 13:07:00,
2013-02-18 08:08:00,20.5,8.1,30.17,ESE,107,0.0,0.0,58,0.00,,,0.00,116.00,VWS V14.01,2013-02-18 13:08:00,
2013-02-18 08:09:00,21.1,8.6,30.17,SSE,147,0.0,0.0,58,0.00,,,0.00,106.00,VWS V14.01,2013-02-18 13:09:00,
2013-02-18 08:10:00,21.1,8.6,30.17,SSE,147,0.0,0.0,58,0.00,,,0.00,90.00,VWS V14.01,2013-02-18 13:10:00,
2013-02-18 08:11:00,21.1,8.6,30.17,SSE,164,0.0,0.0,58,0.00,,,0.00,134.00,VWS V14.01,2013-02-18 13:11:00,
2013-02-18 08:12:00,21.3,8.8,30.17,SSE,165,0.0,0.0,58,0.00,,,0.00,134.00,VWS V14.01,2013-02-18 13:12:00,
2013-02-18 08:13:00,21.3,9.2,30.17,SSE,164,0.0,0.0,59,0.00,,,0.00,181.00,VWS V14.01,2013-02-18 13:13:00,
2013-02-18 08:14:00,21.1,8.6,30.17,SSE,147,0.0,0.0,58,0.00,,,0.00,106.00,VWS V14.01,2013-02-18 13:14:00,
2013-02-18 08:15:00,21.4,9.3,30.18,SSE,164,0.0,0.0,59,0.00,,,0.00,162.00,VWS V14.01,2013-02-18 13:15:00,
2013-02-18 08:16:00,21.6,9.5,30.18,SSE,164,0.0,0.0,59,0.00,,,0.00,183.00,VWS V14.01,2013-02-18 13:16:00,
2013-02-18 08:17:00,21.6,10.2,30.18,SSE,165,0.0,0.0,61,0.00,,,0.00,183.00,VWS V14.01,2013-02-18 13:17:00,
2013-02-18 08:18:00,21.8,10.4,30.18,SSE,164,0.0,0.0,61,0.00,,,0.00,83.00,VWS V14.01,2013-02-18 13:18:00,
2013-02-18 08:19:00,21.9,10.2,30.18,SSE,164,0.0,0.0,60,0.00,,,0.00,113.00,VWS V14.01,2013-02-18 13:19:00,
2013-02-18 08:20:00,21.4,9.3,30.18,SSE,164,0.0,0.0,59,0.00,,,0.00,162.00,VWS V14.01,2013-02-18 13:20:00,
2013-02-18 08:21:00,21.9,9.8,30.18,SSE,164,0.0,0.0,59,0.00,,,0.00,151.00,VWS V14.01,2013-02-18 13:21:00,
2013-02-18 08:22:00,21.9,9.8,30.18,SSE,165,0.0,0.0,59,0.00,,,0.00,169.00,VWS V14.01,2013-02-18 13:22:00,
2013-02-18 08:23:00,21.9,9.8,30.18,SSE,164,0.0,0.0,59,0.00,,,0.00,167.00,VWS V14.01,2013-02-18 13:23:00,
2013-02-18 08:24:00,22.1,10.4,30.18,SSE,165,0.0,0.0,60,0.00,,,0.00,137.00,VWS V14.01,2013-02-18 13:24:00,
2013-02-18 08:25:00,21.9,10.2,30.18,SSE,165,0.0,0.0,60,0.00,,,0.00,130.00,VWS V14.01,2013-02-18 13:25:00,
2013-02-18 08:26:00,22.2,10.4,30.18,SSE,164,0.0,0.0,60,0.00,,,0.00,150.00,VWS V14.01,2013-02-18 13:26:00,
2013-02-18 08:27:00,22.4,10.6,30.18,SSE,164,0.0,0.0,60,0.00,,,0.00,150.00,VWS V14.01,2013-02-18 13:27:00,
2013-02-18 08:28:00,22.4,10.3,30.18,SSE,164,0.0,0.0,59,0.00,,,0.00,213.00,VWS V14.01,2013-02-18 13:28:00,
2013-02-18 08:29:00,22.4,10.3,30.18,SSE,165,0.0,0.0,59,0.00,,,0.00,234.00,VWS V14.01,2013-02-18 13:29:00,
2013-02-18 08:30:00,22.2,10.4,30.18,SSE,165,0.0,0.0,60,0.00,,,0.00,123.00,VWS V14.01,2013-02-18 13:30:00,
2013-02-18 08:31:00,22.4,10.3,30.18,SSE,164,0.0,0.0,59,0.00,,,0.00,234.00,VWS V14.01,2013-02-18 13:31:00,
2013-02-18 08:32:00,22.4,10.3,30.18,SSE,164,0.0,0.0,59,0.00,,,0.00,209.00,VWS V14.01,2013-02-18 13:32:00,
2013-02-18 08:33:00,22.4,10.3,30.18,SSE,164,0.0,0.0,59,0.00,,,0.00,195.00,VWS V14.01,2013-02-18 13:33:00,
2013-02-18 08:34:00,22.4,10.3,30.18,SSE,164,0.0,0.0,59,0.00,,,0.00,169.00,VWS V14.01,2013-02-18 13:34:00,
2013-02-18 08:35:00,22.5,10.4,30.18,SSE,164,0.0,0.0,59,0.00,,,0.00,202.00,VWS V14.01,2013-02-18 13:35:00,
2013-02-18 08:36:00,22.4,10.3,30.18,SSE,164,0.0,0.0,59,0.00,,,0.00,234.00,VWS V14.01,2013-02-18 13:36:00,
2013-02-18 08:37:00,22.9,11.1,30.18,SSE,164,0.0,0.0,60,0.00,,,0.00,167.00,VWS V14.01,2013-02-18 13:37:00,
2013-02-18 08:38:00,23.0,11.2,30.18,SSE,165,0.0,0.0,60,0.00,,,0.00,167.00,VWS V14.01,2013-02-18 13:38:00,
2013-02-18 08:39:00,23.0,10.8,30.18,SSE,164,0.0,0.0,59,0.00,,,0.00,234.00,VWS V14.01,2013-02-18 13:39:00,
2013-02-18 08:40:00,23.0,10.8,30.18,SSE,165,0.0,0.0,59,0.00,,,0.00,234.00,VWS V14.01,2013-02-18 13:40:00,
2013-02-18 08:41:00,23.0,10.4,30.18,SSE,165,0.0,0.0,58,0.00,,,0.00,114.00,VWS V14.01,2013-02-18 13:41:00,
2013-02-18 08:42:00,22.9,11.1,30.18,SSE,164,0.0,0.0,60,0.00,,,0.00,167.00,VWS V14.01,2013-02-18 13:42:00,
2013-02-18 08:43:00,23.2,11.0,30.18,East,96,0.0,0.0,59,0.00,,,0.00,171.00,VWS V14.01,2013-02-18 13:43:00,
2013-02-18 08:44:00,23.3,10.7,30.18,East,100,0.0,0.0,58,0.00,,,0.00,118.00,VWS V14.01,2013-02-18 13:44:00,
2013-02-18 08:45:00,23.3,10.3,30.17,East,100,0.0,0.0,57,0.00,,,0.00,155.00,VWS V14.01,2013-02-18 13:45:00,
2013-02-18 08:46:00,23.5,10.5,30.17,ESE,102,0.0,0.0,57,0.00,,,0.00,183.00,VWS V14.01,2013-02-18 13:46:00,
2013-02-18 08:47:00,23.5,10.5,30.17,ESE,123,0.0,0.0,57,0.00,,,0.00,183.00,VWS V14.01,2013-02-18 13:47:00,
2013-02-18 08:48:00,23.2,11.0,30.18,East,96,0.0,0.0,59,0.00,,,0.00,171.00,VWS V14.01,2013-02-18 13:48:00,
2013-02-18 08:49:00,23.6,10.6,30.17,SE,143,0.0,0.0,57,0.00,,,0.00,134.00,VWS V14.01,2013-02-18 13:49:00,
2013-02-18 08:50:00,23.6,10.6,30.17,SE,141,0.0,0.0,57,0.00,,,0.00,135.00,VWS V14.01,2013-02-18 13:50:00,
2013-02-18 08:51:00,23.8,10.8,30.17,SSE,152,0.0,0.0,57,0.00,,,0.00,141.00,VWS V14.01,2013-02-18 13:51:00,
2013-02-18 08:52:00,23.8,10.8,30.17,SSE,151,0.0,0.0,57,0.00,,,0.00,139.00,VWS V14.01,2013-02-18 13:52:00,
2013-02-18 08:53:00,23.9,10.5,30.17,SSE,151,0.0,0.0,56,0.00,,,0.00,148.00,VWS V14.01,2013-02-18 13:53:00,
2013-02-18 08:54:00,23.6,10.6,30.17,SE,143,0.0,0.0,57,0.00,,,0.00,134.00,VWS V14.01,2013-02-18 13:54:00,
2013-02-18 08:55:00,23.9,10.9,30.17,SSE,162,0.0,0.0,57,0.00,,,0.00,209.00,VWS V14.01,2013-02-18 13:55:00,
2013-02-18 08:56:00,24.1,11.1,30.17,South,188,0.0,0.0,57,0.00,,,0.00,239.00,VWS V14.01,2013-02-18 13:56:00,
2013-02-18 08:57:00,24.1,11.5,30.17,SSE,165,0.0,0.0,58,0.00,,,0.00,229.00,VWS V14.01,2013-02-18 13:57:00,
2013-02-18 08:58:00,24.2,11.2,30.17,SE,128,0.0,0.0,57,0.00,,,0.00,215.00,VWS V14.01,2013-02-18 13:58:00,
2013-02-18 08:59:00,23.9,10.5,30.17,SSE,162,0.0,0.0,56,0.00,,,0.00,208.00,VWS V14.01,2013-02-18 13:59:00,
2013-02-18 09:00:00,24.4,11.0,30.18,SE,126,0.0,0.0,56,0.00,,,0.00,241.00,VWS V14.01,2013-02-18 14:00:00,
2013-02-18 09:01:00,24.5,11.1,30.18,SE,126,0.0,0.0,56,0.00,,,0.00,211.00,VWS V14.01,2013-02-18 14:01:00,
2013-02-18 09:02:00,24.5,11.1,30.18,SE,143,0.0,0.0,56,0.00,,,0.00,211.00,VWS V14.01,2013-02-18 14:02:00,
2013-02-18 09:03:00,24.7,10.9,30.18,SSE,147,0.0,0.0,55,0.00,,,0.00,155.00,VWS V14.01,2013-02-18 14:03:00,
2013-02-18 09:04:00,24.2,11.2,30.17,ESE,123,0.0,0.0,57,0.00,,,0.00,267.00,VWS V14.01,2013-02-18 14:04:00,
2013-02-18 09:05:00,24.7,11.2,30.18,SSE,157,0.0,0.0,56,0.00,,,0.00,239.00,VWS V14.01,2013-02-18 14:05:00,
2013-02-18 09:06:00,24.8,11.3,30.18,SSE,161,0.0,0.0,56,0.00,,,0.00,273.00,VWS V14.01,2013-02-18 14:06:00,
2013-02-18 09:07:00,24.8,11.3,30.18,South,176,0.0,0.0,56,0.00,,,0.00,306.00,VWS V14.01,2013-02-18 14:07:00,
2013-02-18 09:08:00,24.8,10.9,30.18,SSE,148,0.0,0.0,55,0.00,,,0.00,317.00,VWS V14.01,2013-02-18 14:08:00,
2013-02-18 09:09:00,25.0,11.1,30.18,South,174,0.0,0.0,55,0.00,,,0.00,331.00,VWS V14.01,2013-02-18 14:09:00,
2013-02-18 09:10:00,24.7,11.2,30.18,SSE,157,0.0,0.0,56,0.00,,,0.00,239.00,VWS V14.01,2013-02-18 14:10:00,
2013-02-18 09:11:00,25.0,10.7,30.18,SSE,152,0.0,0.0,54,0.00,,,0.00,248.00,VWS V14.01,2013-02-18 14:11:00,
2013-02-18 09:12:00,25.1,10.8,30.18,SSE,165,0.0,0.0,54,0.00,,,0.00,204.00,VWS V14.01,2013-02-18 14:12:00,
2013-02-18 09:13:00,25.1,10.8,30.18,South,172,0.0,0.0,54,0.00,,,0.00,252.00,VWS V14.01,2013-02-18 14:13:00,
2013-02-18 09:14:00,25.1,10.8,30.18,SE,137,0.0,0.0,54,0.00,,,0.00,333.00,VWS V14.01,2013-02-18 14:14:00,
2013-02-18 09:15:00,25.0,11.1,30.18,SSE,157,0.0,0.0,55,0.00,,,0.00,273.00,VWS V14.01,2013-02-18 14:15:00,
2013-02-18 09:16:00,25.3,11.0,30.17,SSE,148,0.0,0.0,54,0.00,,,0.00,333.00,VWS V14.01,2013-02-18 14:16:00,
2013-02-18 09:17:00,25.3,10.6,30.17,SSE,148,0.0,0.0,53,0.00,,,0.00,195.00,VWS V14.01,2013-02-18 14:17:00,
2013-02-18 09:18:00,25.3,10.6,30.17,SE,134,0.0,0.0,53,0.00,,,0.00,164.00,VWS V14.01,2013-02-18 14:18:00,
2013-02-18 09:19:00,25.4,11.1,30.17,SE,133,0.0,0.0,54,0.00,,,0.00,134.00,VWS V14.01,2013-02-18 14:19:00,
2013-02-18 09:20:00,25.1,10.8,30.17,South,169,0.0,0.0,54,0.00,,,0.00,333.00,VWS V14.01,2013-02-18 14:20:00,
2013-02-18 09:21:00,25.6,10.9,30.17,SSE,155,0.0,0.0,53,0.00,,,0.00,232.00,VWS V14.01,2013-02-18 14:21:00,
2013-02-18 09:22:00,25.7,10.5,30.17,South,171,0.0,0.0,52,0.00,,,0.00,187.00,VWS V14.01,2013-02-18 14:22:00,
2013-02-18 09:23:00,25.7,10.5,30.17,South,171,0.0,0.0,52,0.00,,,0.00,178.00,VWS V14.01,2013-02-18 14:23:00,
2013-02-18 09:24:00,25.7,10.9,30.17,South,171,0.0,0.0,53,0.00,,,0.00,215.00,VWS V14.01,2013-02-18 14:24:00,
2013-02-18 09:25:00,25.8,11.0,30.17,ESE,116,0.0,0.0,53,0.00,,,0.00,216.00,VWS V14.01,2013-02-18 14:25:00,
2013-02-18 09:26:00,25.6,10.9,30.17,SSE,155,0.0,0.0,53,0.00,,,0.00,232.00,VWS V14.01,2013-02-18 14:26:00,
2013-02-18 09:27:00,26.1,11.3,30.17,SSE,147,0.0,0.0,53,0.00,,,0.00,241.00,VWS V14.01,2013-02-18 14:27:00,
2013-02-18 09:28:00,26.3,11.1,30.17,SE,134,0.0,0.0,52,0.00,,,0.00,260.00,VWS V14.01,2013-02-18 14:28:00,
2013-02-18 09:29:00,26.4,11.2,30.17,SE,124,0.0,0.0,52,0.00,,,0.00,211.00,VWS V14.01,2013-02-18 14:29:00,
2013-02-18 09:30:00,26.6,11.4,30.17,SE,128,0.0,0.0,52,0.00,,,0.00,181.00,VWS V14.01,2013-02-18 14:30:00,
2013-02-18 09:31:00,26.6,11.4,30.17,SE,133,0.0,0.0,52,0.00,,,0.00,167.00,VWS V14.01,2013-02-18 14:31:00,
2013-02-18 09:32:00,26.1,11.3,30.17,SSE,147,0.0,0.0,53,0.00,,,0.00,241.00,VWS V14.01,2013-02-18 14:32:00,
2013-02-18 09:33:00,26.7,11.4,30.17,SSE,158,0.0,0.0,52,0.00,,,0.00,230.00,VWS V14.01,2013-02-18 14:33:00,
2013-02-18 09:34:00,26.7,11.4,30.17,SE,140,0.0,0.0,52,0.00,,,0.00,289.00,VWS V14.01,2013-02-18 14:34:00,
2013-02-18 09:35:00,26.7,11.0,30.17,SSE,158,0.0,0.0,51,0.00,,,0.00,283.00,VWS V14.01,2013-02-18 14:35:00,
2013-02-18 09:36:00,26.9,11.6,30.17,SSE,158,0.0,0.0,52,0.00,,,0.00,283.00,VWS V14.01,2013-02-18 14:36:00,
2013-02-18 09:37:00,26.6,10.9,30.17,South,171,0.0,0.0,51,0.00,,,0.00,188.00,VWS V14.01,2013-02-18 14:37:00,
2013-02-18 09:38:00,27.2,11.5,30.17,SE,136,0.0,0.0,51,0.00,,,0.00,310.00,VWS V14.01,2013-02-18 14:38:00,
2013-02-18 09:39:00,27.2,11.5,30.17,East,96,0.0,0.0,51,0.00,,,0.00,250.00,VWS V14.01,2013-02-18 14:39:00,
2013-02-18 09:40:00,27.3,11.6,30.17,ESE,104,0.0,0.0,51,0.00,,,0.00,243.00,VWS V14.01,2013-02-18 14:40:00,
2013-02-18 09:41:00,27.3,11.1,30.17,SSE,152,0.0,0.0,50,0.00,,,0.00,243.00,VWS V14.01,2013-02-18 14:41:00,
2013-02-18 09:42:00,27.5,11.8,30.17,East,97,0.0,0.0,51,0.00,,,0.00,243.00,VWS V14.01,2013-02-18 14:42:00,
2013-02-18 09:43:00,27.2,11.5,30.17,SE,136,0.0,0.0,51,0.00,,,0.00,310.00,VWS V14.01,2013-02-18 14:43:00,
2013-02-18 09:44:00,27.6,11.4,30.17,South,179,0.0,0.0,50,0.00,,,0.00,120.00,VWS V14.01,2013-02-18 14:44:00,
2013-02-18 09:45:00,27.6,11.4,30.16,SSE,155,0.0,0.0,50,0.00,,,0.00,220.00,VWS V14.01,2013-02-18 14:45:00,
2013-02-18 09:46:00,27.8,12.0,30.16,SSE,154,0.0,0.0,51,0.00,,,0.00,220.00,VWS V14.01,2013-02-18 14:46:00,
2013-02-18 09:47:00,27.9,11.7,30.16,SSE,160,0.0,0.0,50,0.00,,,0.00,178.00,VWS V14.01,2013-02-18 14:47:00,
2013-02-18 09:48:00,27.5,11.8,30.17,ESE,110,0.0,0.0,51,0.00,,,0.00,77.00,VWS V14.01,2013-02-18 14:48:00,
2013-02-18 09:53:00,28.5,11.8,30.16,South,174,0.0,0.0,49,0.00,,,0.00,181.00,VWS V14.01,2013-02-18 14:53:00,
2013-02-18 09:54:00,28.5,11.8,30.16,SSE,152,0.0,0.0,49,0.00,,,0.00,181.00,VWS V14.01,2013-02-18 14:54:00,
2013-02-18 09:55:00,28.7,12.0,30.16,SSE,155,0.0,0.0,49,0.00,,,0.00,181.00,VWS V14.01,2013-02-18 14:55:00,
2013-02-18 09:57:00,28.8,11.6,30.16,South,176,0.0,0.0,48,0.00,,,0.00,385.00,VWS V14.01,2013-02-18 14:57:00,
2013-02-18 09:58:00,28.8,12.1,30.16,SE,130,0.0,0.0,49,0.00,,,0.00,387.00,VWS V14.01,2013-02-18 14:58:00,
2013-02-18 09:59:00,28.5,11.8,30.16,South,174,0.0,0.0,49,0.00,,,0.00,181.00,VWS V14.01,2013-02-18 14:59:00,
2013-02-18 10:00:00,29.1,12.3,30.15,SSE,165,0.0,0.0,49,0.00,,,0.00,378.00,VWS V14.01,2013-02-18 15:00:00,
2013-02-18 10:01:00,29.1,11.9,30.15,SSE,155,0.0,0.0,48,0.00,,,0.00,347.00,VWS V14.01,2013-02-18 15:01:00,
2013-02-18 10:02:00,29.1,11.9,30.15,SE,143,0.0,0.0,48,0.00,,,0.00,345.00,VWS V14.01,2013-02-18 15:02:00,
2013-02-18 10:03:00,29.3,12.1,30.15,South,172,0.0,0.0,48,0.00,,,0.00,345.00,VWS V14.01,2013-02-18 15:03:00,
2013-02-18 10:04:00,29.0,12.2,30.16,SSE,150,0.0,0.0,49,0.00,,,0.00,370.00,VWS V14.01,2013-02-18 15:04:00,
2013-02-18 10:05:00,29.4,12.1,30.15,South,181,0.0,0.0,48,0.00,,,0.00,165.00,VWS V14.01,2013-02-18 15:05:00,
2013-02-18 10:07:00,29.5,12.2,30.15,SSW,193,0.0,0.0,48,0.00,,,0.00,181.00,VWS V14.01,2013-02-18 15:07:00,
2013-02-18 10:08:00,29.7,12.4,30.15,South,189,0.0,0.0,48,0.00,,,0.00,282.00,VWS V14.01,2013-02-18 15:08:00,
2013-02-18 10:09:00,29.4,12.1,30.15,South,174,0.0,0.0,48,0.00,,,0.00,343.00,VWS V14.01,2013-02-18 15:09:00,
2013-02-18 10:10:00,29.8,12.0,30.15,SE,144,0.0,0.0,47,0.00,,,0.00,348.00,VWS V14.01,2013-02-18 15:10:00,
2013-02-18 10:11:00,30.0,12.2,30.15,South,179,0.0,0.0,47,0.00,,,0.00,371.00,VWS V14.01,2013-02-18 15:11:00,
2013-02-18 10:12:00,30.0,12.2,30.15,SSE,164,0.0,0.0,47,0.00,,,0.00,403.00,VWS V14.01,2013-02-18 15:12:00,
2013-02-18 10:13:00,30.0,12.2,30.15,South,171,0.0,0.0,47,0.00,,,0.00,413.00,VWS V14.01,2013-02-18 15:13:00,
2013-02-18 10:14:00,29.8,12.0,30.15,SSE,148,0.0,0.0,47,0.00,,,0.00,357.00,VWS V14.01,2013-02-18 15:14:00,
2013-02-18 10:15:00,30.1,12.3,30.15,SE,144,0.0,0.0,47,0.00,,,0.00,421.00,VWS V14.01,2013-02-18 15:15:00,
2013-02-18 10:16:00,30.3,12.5,30.15,SSW,199,0.0,0.0,47,0.00,,,0.00,417.00,VWS V14.01,2013-02-18 15:16:00,
2013-02-18 10:17:00,30.3,12.5,30.15,South,169,0.0,0.0,47,0.00,,,0.00,424.00,VWS V14.01,2013-02-18 15:17:00,
2013-02-18 10:18:00,30.4,12.6,30.15,South,172,0.0,0.0,47,0.00,,,0.00,424.00,VWS V14.01,2013-02-18 15:18:00,
2013-02-18 10:19:00,30.1,12.3,30.15,SSE,154,0.0,0.0,47,0.00,,,0.00,421.00,VWS V14.01,2013-02-18 15:19:00,
2013-02-18 10:20:00,30.6,12.8,30.15,SSE,148,0.0,0.0,47,0.00,,,0.00,413.00,VWS V14.01,2013-02-18 15:20:00,
2013-02-18 10:21:00,30.7,12.9,30.15,SE,145,0.0,0.0,47,0.00,,,0.00,413.00,VWS V14.01,2013-02-18 15:21:00,
2013-02-18 10:22:00,30.9,12.6,30.15,SSE,151,0.0,0.0,46,0.00,,,0.00,413.00,VWS V14.01,2013-02-18 15:22:00,
2013-02-18 10:23:00,30.9,12.6,30.15,South,186,0.0,0.0,46,0.00,,,0.00,301.00,VWS V14.01,2013-02-18 15:23:00,
2013-02-18 10:24:00,30.4,12.6,30.15,South,189,0.0,0.0,47,0.00,,,0.00,413.00,VWS V14.01,2013-02-18 15:24:00,
2013-02-18 10:25:00,31.2,12.8,30.15,SSE,168,0.0,0.0,46,0.00,,,0.00,371.00,VWS V14.01,2013-02-18 15:25:00,
2013-02-18 10:26:00,31.2,12.8,30.15,SSE,161,0.0,0.0,46,0.00,,,0.00,331.00,VWS V14.01,2013-02-18 15:26:00,
2013-02-18 10:27:00,31.3,12.4,30.15,South,174,0.0,0.0,45,0.00,,,0.00,310.00,VWS V14.01,2013-02-18 15:27:00,
2013-02-18 10:28:00,31.3,12.9,30.15,SSE,151,0.0,0.0,46,0.00,,,0.00,297.00,VWS V14.01,2013-02-18 15:28:00,
2013-02-18 10:29:00,31.0,12.7,30.15,SSE,157,0.0,0.0,46,0.00,,,0.00,345.00,VWS V14.01,2013-02-18 15:29:00,
2013-02-18 10:30:00,31.6,12.7,30.14,SSW,195,0.0,0.0,45,0.00,,,0.00,220.00,VWS V14.01,2013-02-18 15:30:00,
2013-02-18 10:31:00,31.6,12.7,30.14,SSW,196,0.0,0.0,45,0.00,,,0.00,220.00,VWS V14.01,2013-02-18 15:31:00,
2013-02-18 10:32:00,31.6,12.7,30.14,South,175,0.0,0.0,45,0.00,,,0.00,220.00,VWS V14.01,2013-02-18 15:32:00,
2013-02-18 10:33:00,31.8,12.9,30.14,SE,144,0.0,0.0,45,0.00,,,0.00,382.00,VWS V14.01,2013-02-18 15:33:00,
2013-02-18 10:34:00,31.8,12.9,30.14,South,179,0.0,0.0,45,0.00,,,0.00,396.00,VWS V14.01,2013-02-18 15:34:00,
2013-02-18 10:35:00,31.6,12.7,30.14,SSW,195,0.0,0.0,45,0.00,,,0.00,220.00,VWS V14.01,2013-02-18 15:35:00,
2013-02-18 10:36:00,31.9,13.5,30.14,SSE,162,0.0,0.0,46,0.00,,,0.00,412.00,VWS V14.01,2013-02-18 15:36:00,
2013-02-18 10:37:00,32.2,13.8,30.14,South,175,0.0,0.0,46,0.00,,,0.00,412.00,VWS V14.01,2013-02-18 15:37:00,
2013-02-18 10:38:00,32.4,13.4,30.14,South,172,0.0,0.0,45,0.00,,,0.00,398.00,VWS V14.01,2013-02-18 15:38:00,
2013-02-18 10:39:00,32.5,13.0,30.14,SSE,150,0.0,0.0,44,0.00,,,0.00,403.00,VWS V14.01,2013-02-18 15:39:00,
2013-02-18 10:40:00,31.9,13.5,30.14,SSE,164,0.0,0.0,46,0.00,,,0.00,412.00,VWS V14.01,2013-02-18 15:40:00,
2013-02-18 10:41:00,32.7,13.7,30.14,ESE,123,0.0,0.0,45,0.00,,,0.00,422.00,VWS V14.01,2013-02-18 15:41:00,
2013-02-18 10:42:00,32.9,13.9,30.14,SE,140,0.0,0.0,45,0.00,,,0.00,428.00,VWS V14.01,2013-02-18 15:42:00,
2013-02-18 10:43:00,33.1,14.1,30.14,South,182,0.0,0.0,45,0.00,,,0.00,419.00,VWS V14.01,2013-02-18 15:43:00,
2013-02-18 10:44:00,33.1,13.6,30.14,SE,136,0.0,0.0,44,0.00,,,0.00,429.00,VWS V14.01,2013-02-18 15:44:00,
2013-02-18 10:45:00,33.2,13.7,30.14,South,172,0.0,0.0,44,0.00,,,0.00,421.00,VWS V14.01,2013-02-18 15:45:00,
2013-02-18 10:46:00,32.7,13.7,30.14,ESE,123,0.0,0.0,45,0.00,,,0.00,422.00,VWS V14.01,2013-02-18 15:46:00,
2013-02-18 10:47:00,33.5,13.9,30.14,SE,140,0.0,0.0,44,0.00,,,0.00,421.00,VWS V14.01,2013-02-18 15:47:00,
2013-02-18 10:48:00,33.7,13.6,30.14,SSE,150,0.0,0.0,43,0.00,,,0.00,429.00,VWS V14.01,2013-02-18 15:48:00,
2013-02-18 10:49:00,33.7,13.6,30.14,South,186,0.0,0.0,43,0.00,,,0.00,447.00,VWS V14.01,2013-02-18 15:49:00,
2013-02-18 10:50:00,33.8,13.7,30.14,SSE,160,0.0,0.0,43,0.00,,,0.00,440.00,VWS V14.01,2013-02-18 15:50:00,
2013-02-18 10:51:00,33.5,13.9,30.14,SSE,151,0.0,0.0,44,0.00,,,0.00,413.00,VWS V14.01,2013-02-18 15:51:00,
2013-02-18 10:52:00,33.8,13.1,30.14,SSE,150,0.0,0.0,42,0.00,,,0.00,450.00,VWS V14.01,2013-02-18 15:52:00,
2013-02-18 10:53:00,34.0,13.9,30.14,South,185,0.0,0.0,43,0.00,,,0.00,450.00,VWS V14.01,2013-02-18 15:53:00,
2013-02-18 10:54:00,34.0,13.9,30.14,SE,136,0.0,0.0,43,0.00,,,0.00,436.00,VWS V14.01,2013-02-18 15:54:00,
2013-02-18 10:55:00,34.1,14.0,30.14,South,179,0.0,0.0,43,0.00,,,0.00,433.00,VWS V14.01,2013-02-18 15:55:00,
2013-02-18 10:56:00,33.8,13.1,30.14,SSE,165,0.0,0.0,42,0.00,,,0.00,450.00,VWS V14.01,2013-02-18 15:56:00,
2013-02-18 10:57:00,34.6,14.4,30.14,SE,126,0.0,0.0,43,0.00,,,0.00,436.00,VWS V14.01,2013-02-18 15:57:00,
2013-02-18 10:58:00,34.6,13.9,30.14,SE,134,0.0,0.0,42,0.00,,,0.00,431.00,VWS V14.01,2013-02-18 15:58:00,
2013-02-18 10:59:00,34.9,14.7,30.14,SE,145,0.0,0.0,43,0.00,,,0.00,436.00,VWS V14.01,2013-02-18 15:59:00,
2013-02-18 11:00:00,34.9,14.1,30.13,ESE,116,0.0,0.0,42,0.00,,,0.00,438.00,VWS V14.01,2013-02-18 16:00:00,
2013-02-18 11:01:00,34.4,14.2,30.14,ESE,123,0.0,0.0,43,0.00,,,0.00,433.00,VWS V14.01,2013-02-18 16:01:00,
2013-02-18 11:02:00,35.2,14.4,30.13,SSE,162,0.0,0.0,42,0.00,,,0.00,436.00,VWS V14.01,2013-02-18 16:02:00,
2013-02-18 11:03:00,35.2,14.4,30.13,SSE,147,0.0,0.0,42,0.00,,,0.00,445.00,VWS V14.01,2013-02-18 16:03:00,
2013-02-18 11:04:00,35.2,14.4,30.13,SE,144,0.0,0.0,42,0.00,,,0.00,433.00,VWS V14.01,2013-02-18 16:04:00,
2013-02-18 11:05:00,35.2,14.4,30.13,SE,134,0.0,0.0,42,0.00,,,0.00,438.00,VWS V14.01,2013-02-18 16:05:00,
2013-02-18 11:06:00,35.0,14.2,30.13,SSE,152,0.0,0.0,42,0.00,,,0.00,436.00,VWS V14.01,2013-02-18 16:06:00,
2013-02-18 11:07:00,35.3,15.1,30.13,SE,136,0.0,0.0,43,0.00,,,0.00,447.00,VWS V14.01,2013-02-18 16:07:00,
2013-02-18 11:08:00,35.5,15.2,30.13,SE,136,0.0,0.0,43,0.00,,,0.00,449.00,VWS V14.01,2013-02-18 16:08:00,
2013-02-18 11:09:00,35.5,15.2,30.13,SE,136,0.0,0.0,43,0.00,,,0.00,445.00,VWS V14.01,2013-02-18 16:09:00,
2013-02-18 11:10:00,35.6,14.8,30.13,SE,124,0.0,0.0,42,0.00,,,0.00,445.00,VWS V14.01,2013-02-18 16:10:00,
2013-02-18 11:11:00,35.8,15.5,30.13,South,172,0.0,0.0,43,0.00,,,0.00,442.00,VWS V14.01,2013-02-18 16:11:00,
2013-02-18 11:12:00,35.3,15.1,30.13,SE,136,0.0,0.0,43,0.00,,,0.00,447.00,VWS V14.01,2013-02-18 16:12:00,
2013-02-18 11:13:00,35.9,15.1,30.13,SSE,157,0.0,0.0,42,0.00,,,0.00,428.00,VWS V14.01,2013-02-18 16:13:00,
2013-02-18 11:14:00,36.0,15.1,30.13,SSE,160,0.0,0.0,42,0.00,,,0.00,435.00,VWS V14.01,2013-02-18 16:14:00,
2013-02-18 11:15:00,36.0,15.1,30.13,SE,144,0.0,0.0,42,0.00,,,0.00,438.00,VWS V14.01,2013-02-18 16:15:00,
2013-02-18 11:16:00,36.2,15.3,30.13,SSE,157,0.0,0.0,42,0.00,,,0.00,436.00,VWS V14.01,2013-02-18 16:16:00,
2013-02-18 11:17:00,35.9,15.6,30.13,SE,133,0.0,0.0,43,0.00,,,0.00,438.00,VWS V14.01,2013-02-18 16:17:00,
2013-02-18 11:18:00,36.3,15.4,30.13,SSE,158,0.0,0.0,42,0.00,,,0.00,433.00,VWS V14.01,2013-02-18 16:18:00,
2013-02-18 11:19:00,36.3,15.4,30.13,South,172,0.0,0.0,42,0.00,,,0.00,435.00,VWS V14.01,2013-02-18 16:19:00,
2013-02-18 11:20:00,36.5,15.6,30.13,SE,136,0.0,0.0,42,0.00,,,0.00,433.00,VWS V14.01,2013-02-18 16:20:00,
2013-02-18 11:21:00,36.6,15.7,30.13,South,169,0.0,0.0,42,0.00,,,0.00,436.00,VWS V14.01,2013-02-18 16:21:00,
2013-02-18 11:22:00,36.6,15.7,30.13,SE,141,0.0,0.0,42,0.00,,,0.00,436.00,VWS V14.01,2013-02-18 16:22:00,
2013-02-18 11:23:00,36.3,15.4,30.13,SSE,158,0.0,0.0,42,0.00,,,0.00,433.00,VWS V14.01,2013-02-18 16:23:00,
2013-02-18 11:24:00,36.6,15.1,30.13,SE,128,0.0,0.0,41,0.00,,,0.00,421.00,VWS V14.01,2013-02-18 16:24:00,
2013-02-18 11:25:00,36.8,15.9,30.13,SSE,167,0.0,0.0,42,0.00,,,0.00,421.00,VWS V14.01,2013-02-18 16:25:00,
2013-02-18 11:26:00,36.8,15.9,30.13,SE,143,0.0,0.0,42,0.00,,,0.00,421.00,VWS V14.01,2013-02-18 16:26:00,
2013-02-18 11:27:00,36.8,15.9,30.13,SE,145,0.0,0.0,42,0.00,,,0.00,424.00,VWS V14.01,2013-02-18 16:27:00,
2013-02-18 11:28:00,36.6,15.7,30.13,ESE,110,0.0,0.0,42,0.00,,,0.00,431.00,VWS V14.01,2013-02-18 16:28:00,
2013-02-18 11:29:00,36.9,16.5,30.13,SSE,150,0.0,0.0,43,0.00,,,0.00,440.00,VWS V14.01,2013-02-18 16:29:00,
2013-02-18 11:30:00,37.0,16.1,30.13,SE,137,0.0,0.0,42,0.00,,,0.00,438.00,VWS V14.01,2013-02-18 16:30:00,
2013-02-18 11:31:00,37.3,16.9,30.13,South,176,0.0,0.0,43,0.00,,,0.00,436.00,VWS V14.01,2013-02-18 16:31:00,
2013-02-18 11:32:00,37.5,16.5,30.13,SE,144,0.0,0.0,42,0.00,,,0.00,440.00,VWS V14.01,2013-02-18 16:32:00,
2013-02-18 11:33:00,36.8,15.9,30.13,SSE,160,0.0,0.0,42,0.00,,,0.00,431.00,VWS V14.01,2013-02-18 16:33:00,
2013-02-18 11:34:00,37.8,16.8,30.13,SSE,150,0.0,0.0,42,0.00,,,0.00,436.00,VWS V14.01,2013-02-18 16:34:00,
2013-02-18 11:35:00,37.9,16.9,30.13,ESE,103,0.0,0.0,42,0.00,,,0.00,461.00,VWS V14.01,2013-02-18 16:35:00,
2013-02-18 11:36:00,38.2,17.1,30.13,SSW,195,0.0,0.0,42,0.00,,,0.00,454.00,VWS V14.01,2013-02-18 16:36:00,
2013-02-18 11:37:00,38.3,16.7,30.13,SSW,198,0.0,0.0,41,0.00,,,0.00,442.00,VWS V14.01,2013-02-18 16:37:00,
2013-02-18 11:38:00,37.6,16.6,30.13,SSE,157,0.0,0.0,42,0.00,,,0.00,440.00,VWS V14.01,2013-02-18 16:38:00,
2013-02-18 11:39:00,38.8,16.6,30.13,South,178,0.0,0.0,40,0.00,,,0.00,426.00,VWS V14.01,2013-02-18 16:39:00,
2013-02-18 11:40:00,39.1,17.4,30.13,SSW,198,0.0,0.0,41,0.00,,,0.00,442.00,VWS V14.01,2013-02-18 16:40:00,
2013-02-18 11:41:00,39.2,16.3,30.13,South,191,0.0,0.0,39,0.00,,,0.00,438.00,VWS V14.01,2013-02-18 16:41:00,
2013-02-18 11:42:00,39.3,16.4,30.13,South,185,0.0,0.0,39,0.00,,,0.00,438.00,VWS V14.01,2013-02-18 16:42:00,
2013-02-18 11:43:00,39.5,16.6,30.13,South,191,0.0,0.0,39,0.00,,,0.00,449.00,VWS V14.01,2013-02-18 16:43:00,
2013-02-18 11:44:00,38.8,16.6,30.13,South,178,0.0,0.0,40,0.00,,,0.00,426.00,VWS V14.01,2013-02-18 16:44:00,
2013-02-18 11:45:00,39.8,16.9,30.11,South,169,0.0,0.0,39,0.00,,,0.00,442.00,VWS V14.01,2013-02-18 16:45:00,
2013-02-18 11:46:00,39.9,17.0,30.11,South,182,0.0,0.0,39,0.00,,,0.00,431.00,VWS V14.01,2013-02-18 16:46:00,
2013-02-18 11:47:00,39.9,16.4,30.11,SSE,162,0.0,0.0,38,0.00,,,0.00,442.00,VWS V14.01,2013-02-18 16:47:00,
2013-02-18 11:48:00,40.1,17.1,30.11,South,174,0.0,0.0,39,0.00,,,0.00,443.00,VWS V14.01,2013-02-18 16:48:00,
2013-02-18 11:49:00,39.6,16.7,30.13,West,271,0.0,0.0,39,0.00,,,0.00,438.00,VWS V14.01,2013-02-18 16:49:00,
2013-02-18 11:50:00,40.5,16.9,30.11,North,0,0.0,0.0,38,0.00,,,0.00,443.00,VWS V14.01,2013-02-18 16:50:00,
2013-02-18 11:51:00,40.8,17.8,30.11,SW,223,0.0,0.0,39,0.00,,,0.00,438.00,VWS V14.01,2013-02-18 16:51:00,
2013-02-18 11:52:00,40.9,17.3,30.11,SW,222,0.0,0.0,38,0.00,,,0.00,443.00,VWS V14.01,2013-02-18 16:52:00,
2013-02-18 11:53:00,41.2,17.5,30.11,South,185,0.0,0.0,38,0.00,,,0.00,445.00,VWS V14.01,2013-02-18 16:53:00,
2013-02-18 11:54:00,41.3,17.0,30.11,South,171,0.0,0.0,37,0.00,,,0.00,461.00,VWS V14.01,2013-02-18 16:54:00,
2013-02-18 11:55:00,40.5,16.9,30.11,North,0,0.0,0.0,38,0.00,,,0.00,443.00,VWS V14.01,2013-02-18 16:55:00,
2013-02-18 11:56:00,41.6,17.3,30.11,WSW,241,0.0,0.0,37,0.00,,,0.00,429.00,VWS V14.01,2013-02-18 16:56:00,
2013-02-18 11:57:00,41.9,17.5,30.11,SW,216,0.0,0.0,37,0.00,,,0.00,442.00,VWS V14.01,2013-02-18 16:57:00,
2013-02-18 11:58:00,42.2,17.2,30.11,SE,138,0.0,0.0,36,0.00,,,0.00,433.00,VWS V14.01,2013-02-18 16:58:00,
2013-02-18 11:59:00,42.2,17.2,30.11,SE,128,0.0,0.0,36,0.00,,,0.00,422.00,VWS V14.01,2013-02-18 16:59:00,
2013-02-18 12:00:00,41.5,16.5,30.11,NW,316,0.0,0.0,36,0.00,,,0.00,449.00,VWS V14.01,2013-02-18 17:00:00,
2013-02-18 12:01:00,42.2,17.2,30.10,SSE,161,0.0,0.0,36,0.00,,,0.00,415.00,VWS V14.01,2013-02-18 17:01:00,
2013-02-18 12:02:00,42.3,17.9,30.10,SE,144,0.0,0.0,37,0.00,,,0.00,470.00,VWS V14.01,2013-02-18 17:02:00,
2013-02-18 12:03:00,42.2,16.5,30.10,ESE,119,0.0,0.0,35,0.00,,,0.00,457.00,VWS V14.01,2013-02-18 17:03:00,
2013-02-18 12:04:00,41.9,16.9,30.10,SE,144,0.0,0.0,36,0.00,,,0.00,463.00,VWS V14.01,2013-02-18 17:04:00,
2013-02-18 12:05:00,42.2,16.5,30.10,SE,136,0.0,0.0,35,0.00,,,0.00,415.00,VWS V14.01,2013-02-18 17:05:00,
2013-02-18 12:06:00,41.6,17.3,30.10,SSE,154,0.0,0.0,37,0.00,,,0.00,445.00,VWS V14.01,2013-02-18 17:06:00,
2013-02-18 12:07:00,41.5,16.5,30.10,SE,144,0.0,0.0,36,0.00,,,0.00,470.00,VWS V14.01,2013-02-18 17:07:00,
2013-02-18 12:08:00,41.5,17.2,30.10,SSE,162,0.0,0.0,37,0.00,,,0.00,449.00,VWS V14.01,2013-02-18 17:08:00,
2013-02-18 12:09:00,41.3,17.0,30.10,SE,141,0.0,0.0,37,0.00,,,0.00,457.00,VWS V14.01,2013-02-18 17:09:00,
2013-02-18 12:10:00,41.2,16.3,30.10,SE,128,0.0,0.0,36,0.00,,,0.00,454.00,VWS V14.01,2013-02-18 17:10:00,
2013-02-18 12:11:00,41.6,17.3,30.10,SSE,154,0.0,0.0,37,0.00,,,0.00,445.00,VWS V14.01,2013-02-18 17:11:00,
2013-02-18 12:12:00,41.1,17.4,30.10,SSE,155,0.0,0.0,38,0.00,,,0.00,452.00,VWS V14.01,2013-02-18 17:12:00,
2013-02-18 12:13:00,41.1,16.8,30.10,SE,134,0.0,0.0,37,0.00,,,0.00,447.00,VWS V14.01,2013-02-18 17:13:00,
2013-02-18 12:14:00,41.1,17.4,30.10,SE,140,0.0,0.0,38,0.00,,,0.00,429.00,VWS V14.01,2013-02-18 17:14:00,
2013-02-18 12:15:00,41.1,16.8,30.10,SE,128,0.0,0.0,37,0.00,,,0.00,417.00,VWS V14.01,2013-02-18 17:15:00,
2013-02-18 12:16:00,41.2,17.5,30.10,SSE,164,0.0,0.0,38,0.00,,,0.00,428.00,VWS V14.01,2013-02-18 17:16:00,
2013-02-18 12:17:00,41.1,17.4,30.10,SSE,155,0.0,0.0,38,0.00,,,0.00,452.00,VWS V14.01,2013-02-18 17:17:00,
2013-02-18 12:18:00,41.2,16.9,30.10,SSW,202,0.0,0.0,37,0.00,,,0.00,449.00,VWS V14.01,2013-02-18 17:18:00,
2013-02-18 12:19:00,41.3,17.0,30.10,SSW,213,0.0,0.0,37,0.00,,,0.00,456.00,VWS V14.01,2013-02-18 17:19:00,
2013-02-18 12:20:00,41.5,17.2,30.10,SSW,212,0.0,0.0,37,0.00,,,0.00,450.00,VWS V14.01,2013-02-18 17:20:00,
2013-02-18 12:21:00,41.6,17.9,30.10,South,175,0.0,0.0,38,0.00,,,0.00,450.00,VWS V14.01,2013-02-18 17:21:00,
2013-02-18 12:22:00,41.2,16.9,30.10,ESE,119,0.0,0.0,37,0.00,,,0.00,445.00,VWS V14.01,2013-02-18 17:22:00,
2013-02-18 12:23:00,41.8,16.8,30.10,ESE,123,0.0,0.0,36,0.00,,,0.00,468.00,VWS V14.01,2013-02-18 17:23:00,
2013-02-18 12:24:00,41.8,16.8,30.10,South,182,0.0,0.0,36,0.00,,,0.00,466.00,VWS V14.01,2013-02-18 17:24:00,
2013-02-18 12:25:00,42.1,17.7,30.10,SSE,155,0.0,0.0,37,0.00,,,0.00,468.00,VWS V14.01,2013-02-18 17:25:00,
2013-02-18 12:26:00,42.1,17.1,30.10,SE,137,0.0,0.0,36,0.00,,,0.00,466.00,VWS V14.01,2013-02-18 17:26:00,
2013-02-18 12:27:00,42.2,17.2,30.10,East,99,0.0,0.0,36,0.00,,,0.00,466.00,VWS V14.01,2013-02-18 17:27:00,
2013-02-18 12:28:00,41.8,16.8,30.10,ESE,123,0.0,0.0,36,0.00,,,0.00,468.00,VWS V14.01,2013-02-18 17:28:00,
2013-02-18 12:29:00,42.1,17.1,30.10,East,97,0.0,0.0,36,0.00,,,0.00,463.00,VWS V14.01,2013-02-18 17:29:00,
2013-02-18 12:30:00,42.3,17.3,30.09,SE,144,0.0,0.0,36,0.00,,,0.00,466.00,VWS V14.01,2013-02-18 17:30:00,
2013-02-18 12:31:00,42.3,16.6,30.09,SE,141,0.0,0.0,35,0.00,,,0.00,457.00,VWS V14.01,2013-02-18 17:31:00,
2013-02-18 12:32:00,42.3,16.6,30.09,East,95,0.0,0.0,35,0.00,,,0.00,457.00,VWS V14.01,2013-02-18 17:32:00,
2013-02-18 12:33:00,42.2,16.5,30.09,SE,134,0.0,0.0,35,0.00,,,0.00,456.00,VWS V14.01,2013-02-18 17:33:00,
2013-02-18 12:34:00,42.1,16.4,30.10,East,96,0.0,0.0,35,0.00,,,0.00,468.00,VWS V14.01,2013-02-18 17:34:00,
2013-02-18 12:35:00,42.2,16.5,30.09,ESE,110,0.0,0.0,35,0.00,,,0.00,465.00,VWS V14.01,2013-02-18 17:35:00,
2013-02-18 12:36:00,42.2,16.5,30.09,ESE,123,0.0,0.0,35,0.00,,,0.00,459.00,VWS V14.01,2013-02-18 17:36:00,
2013-02-18 12:37:00,42.3,17.3,30.09,ESE,113,0.0,0.0,36,0.00,,,0.00,459.00,VWS V14.01,2013-02-18 17:37:00,
2013-02-18 12:38:00,42.6,17.5,30.09,SSE,165,0.0,0.0,36,0.00,,,0.00,463.00,VWS V14.01,2013-02-18 17:38:00,
2013-02-18 12:39:00,42.2,16.5,30.09,ESE,109,0.0,0.0,35,0.00,,,0.00,461.00,VWS V14.01,2013-02-18 17:39:00,
2013-02-18 12:40:00,42.8,17.1,30.09,SE,143,0.0,0.0,35,0.00,,,0.00,465.00,VWS V14.01,2013-02-18 17:40:00,
2013-02-18 12:41:00,42.9,17.1,30.09,East,96,0.0,0.0,35,0.00,,,0.00,461.00,VWS V14.01,2013-02-18 17:41:00,
2013-02-18 12:42:00,43.2,18.1,30.09,SSE,148,0.0,0.0,36,0.00,,,0.00,457.00,VWS V14.01,2013-02-18 17:42:00,
2013-02-18 12:43:00,43.3,17.5,30.09,SSE,157,0.0,0.0,35,0.00,,,0.00,459.00,VWS V14.01,2013-02-18 17:43:00,
2013-02-18 12:44:00,43.3,17.5,30.09,East,100,0.0,0.0,35,0.00,,,0.00,463.00,VWS V14.01,2013-02-18 17:44:00,
2013-02-18 12:45:00,42.8,17.1,30.09,SE,143,0.0,0.0,35,0.00,,,0.00,465.00,VWS V14.01,2013-02-18 17:45:00,
2013-02-18 12:46:00,43.6,18.4,30.08,ESE,106,0.0,0.0,36,0.00,,,0.00,445.00,VWS V14.01,2013-02-18 17:46:00,
2013-02-18 12:47:00,43.6,17.1,30.08,ESE,109,0.0,0.0,34,0.00,,,0.00,470.00,VWS V14.01,2013-02-18 17:47:00,
2013-02-18 12:48:00,43.8,18.0,30.08,SSE,157,0.0,0.0,35,0.00,,,0.00,454.00,VWS V14.01,2013-02-18 17:48:00,
2013-02-18 12:49:00,43.8,18.0,30.08,SSW,192,0.0,0.0,35,0.00,,,0.00,456.00,VWS V14.01,2013-02-18 17:49:00,
2013-02-18 12:50:00,43.8,17.3,30.08,South,175,0.0,0.0,34,0.00,,,0.00,443.00,VWS V14.01,2013-02-18 17:50:00,
2013-02-18 12:51:00,43.6,18.4,30.08,ESE,106,0.0,0.0,36,0.00,,,0.00,445.00,VWS V14.01,2013-02-18 17:51:00,
2013-02-18 12:52:00,43.9,18.0,30.08,SSW,192,0.0,0.0,35,0.00,,,0.00,436.00,VWS V14.01,2013-02-18 17:52:00,
2013-02-18 12:53:00,43.9,17.4,30.08,SW,226,0.0,0.0,34,0.00,,,0.00,438.00,VWS V14.01,2013-02-18 17:53:00,
2013-02-18 12:54:00,44.1,17.5,30.08,South,188,0.0,0.0,34,0.00,,,0.00,438.00,VWS V14.01,2013-02-18 17:54:00,
2013-02-18 12:55:00,44.1,17.5,30.08,South,188,0.0,0.0,34,0.00,,,0.00,438.00,VWS V14.01,2013-02-18 17:55:00,
2013-02-18 12:56:00,44.3,17.0,30.08,SE,145,0.0,0.0,33,0.00,,,0.00,429.00,VWS V14.01,2013-02-18 17:56:00,
2013-02-18 12:57:00,43.9,18.0,30.08,SSW,192,0.0,0.0,35,0.00,,,0.00,436.00,VWS V14.01,2013-02-18 17:57:00,
2013-02-18 12:58:00,44.5,17.9,30.08,South,179,0.0,0.0,34,0.00,,,0.00,419.00,VWS V14.01,2013-02-18 17:58:00,
2013-02-18 12:59:00,44.5,17.9,30.08,SW,232,0.0,0.0,34,0.00,,,0.00,426.00,VWS V14.01,2013-02-18 17:59:00,
2013-02-18 13:00:00,44.8,18.2,30.07,South,189,0.0,0.0,34,0.00,,,0.00,433.00,VWS V14.01,2013-02-18 18:00:00,
2013-02-18 13:01:00,44.8,18.2,30.07,SSW,193,0.0,0.0,34,0.00,,,0.00,422.00,VWS V14.01,2013-02-18 18:01:00,
2013-02-18 13:02:00,44.5,17.9,30.08,SSE,165,0.0,0.0,34,0.00,,,0.00,422.00,VWS V14.01,2013-02-18 18:02:00,
2013-02-18 13:03:00,44.6,17.3,30.07,ESE,121,0.0,0.0,33,0.00,,,0.00,419.00,VWS V14.01,2013-02-18 18:03:00,
2013-02-18 13:04:00,44.6,18.0,30.07,South,178,0.0,0.0,34,0.00,,,0.00,417.00,VWS V14.01,2013-02-18 18:04:00,
2013-02-18 13:05:00,44.6,18.0,30.07,South,169,0.0,0.0,34,0.00,,,0.00,426.00,VWS V14.01,2013-02-18 18:05:00,
2013-02-18 13:06:00,44.5,17.9,30.07,SSW,193,0.0,0.0,34,0.00,,,0.00,417.00,VWS V14.01,2013-02-18 18:06:00,
2013-02-18 13:07:00,44.3,17.0,30.07,SE,136,0.0,0.0,33,0.00,,,0.00,413.00,VWS V14.01,2013-02-18 18:07:00,
2013-02-18 13:08:00,44.6,17.3,30.07,ESE,121,0.0,0.0,33,0.00,,,0.00,419.00,VWS V14.01,2013-02-18 18:08:00,
2013-02-18 13:09:00,44.1,17.5,30.07,SE,126,0.0,0.0,34,0.00,,,0.00,419.00,VWS V14.01,2013-02-18 18:09:00,
2013-02-18 13:10:00,44.2,18.3,30.07,SE,127,0.0,0.0,35,0.00,,,0.00,433.00,VWS V14.01,2013-02-18 18:10:00,
2013-02-18 13:11:00,44.2,18.3,30.07,SE,127,0.0,0.0,35,0.00,,,0.00,426.00,VWS V14.01,2013-02-18 18:11:00,
2013-02-18 13:12:00,44.1,18.2,30.07,SE,133,0.0,0.0,35,0.00,,,0.00,428.00,VWS V14.01,2013-02-18 18:12:00,
2013-02-18 13:13:00,44.2,18.3,30.07,ESE,116,0.0,0.0,35,0.00,,,0.00,419.00,VWS V14.01,2013-02-18 18:13:00,
2013-02-18 13:14:00,44.1,17.5,30.07,SE,126,0.0,0.0,34,0.00,,,0.00,419.00,VWS V14.01,2013-02-18 18:14:00,
2013-02-18 13:15:00,44.5,18.6,30.07,SSE,155,0.0,0.0,35,0.00,,,0.00,468.00,VWS V14.01,2013-02-18 18:15:00,
2013-02-18 13:16:00,44.6,18.0,30.07,SSW,199,0.0,0.0,34,0.00,,,0.00,468.00,VWS V14.01,2013-02-18 18:16:00,
2013-02-18 13:17:00,44.6,18.7,30.07,South,182,0.0,0.0,35,0.00,,,0.00,410.00,VWS V14.01,2013-02-18 18:17:00,
2013-02-18 13:18:00,44.8,18.2,30.07,SE,145,0.0,0.0,34,0.00,,,0.00,412.00,VWS V14.01,2013-02-18 18:18:00,
2013-02-18 13:19:00,44.3,19.0,30.07,South,186,0.0,0.0,36,0.00,,,0.00,422.00,VWS V14.01,2013-02-18 18:19:00,
2013-02-18 13:20:00,44.8,18.8,30.07,SSE,164,0.0,0.0,35,0.00,,,0.00,442.00,VWS V14.01,2013-02-18 18:20:00,
2013-02-18 13:21:00,44.9,18.9,30.07,SSE,152,0.0,0.0,35,0.00,,,0.00,405.00,VWS V14.01,2013-02-18 18:21:00,
2013-02-18 13:22:00,44.9,18.9,30.07,SE,145,0.0,0.0,35,0.00,,,0.00,408.00,VWS V14.01,2013-02-18 18:22:00,
2013-02-18 13:23:00,44.9,18.9,30.07,SE,143,0.0,0.0,35,0.00,,,0.00,403.00,VWS V14.01,2013-02-18 18:23:00,
2013-02-18 13:24:00,44.8,18.2,30.07,SSW,196,0.0,0.0,34,0.00,,,0.00,399.00,VWS V14.01,2013-02-18 18:24:00,
2013-02-18 13:25:00,44.8,18.8,30.07,SSE,164,0.0,0.0,35,0.00,,,0.00,442.00,VWS V14.01,2013-02-18 18:25:00,
2013-02-18 13:26:00,44.8,18.8,30.07,South,176,0.0,0.0,35,0.00,,,0.00,417.00,VWS V14.01,2013-02-18 18:26:00,
2013-02-18 13:27:00,44.9,18.9,30.07,SSE,148,0.0,0.0,35,0.00,,,0.00,413.00,VWS V14.01,2013-02-18 18:27:00,
2013-02-18 13:28:00,45.1,19.8,30.07,SSE,148,0.0,0.0,36,0.00,,,0.00,433.00,VWS V14.01,2013-02-18 18:28:00,
2013-02-18 13:29:00,45.2,19.2,30.07,SSE,160,0.0,0.0,35,0.00,,,0.00,405.00,VWS V14.01,2013-02-18 18:29:00,
2013-02-18 13:30:00,44.8,18.8,30.07,South,191,0.0,0.0,35,0.00,,,0.00,406.00,VWS V14.01,2013-02-18 18:30:00,
2013-02-18 13:31:00,45.4,19.4,30.06,SSE,147,0.0,0.0,35,0.00,,,0.00,399.00,VWS V14.01,2013-02-18 18:31:00,
2013-02-18 13:32:00,45.4,18.7,30.06,SSE,158,0.0,0.0,34,0.00,,,0.00,398.00,VWS V14.01,2013-02-18 18:32:00,
2013-02-18 13:33:00,45.2,19.2,30.06,SSE,151,0.0,0.0,35,0.00,,,0.00,396.00,VWS V14.01,2013-02-18 18:33:00,
2013-02-18 13:34:00,45.2,18.5,30.06,SSE,151,0.0,0.0,34,0.00,,,0.00,399.00,VWS V14.01,2013-02-18 18:34:00,
2013-02-18 13:35:00,45.2,19.2,30.06,South,174,0.0,0.0,35,0.00,,,0.00,403.00,VWS V14.01,2013-02-18 18:35:00,
2013-02-18 13:36:00,45.5,19.5,30.06,SSE,152,0.0,0.0,35,0.00,,,0.00,392.00,VWS V14.01,2013-02-18 18:36:00,
2013-02-18 13:37:00,45.8,19.7,30.06,SSE,152,0.0,0.0,35,0.00,,,0.00,392.00,VWS V14.01,2013-02-18 18:37:00,
2013-02-18 13:38:00,46.1,19.3,30.06,SSE,151,0.0,0.0,34,0.00,,,0.00,403.00,VWS V14.01,2013-02-18 18:38:00,
2013-02-18 13:39:00,46.2,19.4,30.06,SSE,151,0.0,0.0,34,0.00,,,0.00,384.00,VWS V14.01,2013-02-18 18:39:00,
2013-02-18 13:40:00,46.4,19.6,30.06,WSW,256,0.0,0.0,34,0.00,,,0.00,384.00,VWS V14.01,2013-02-18 18:40:00,
2013-02-18 13:41:00,45.5,19.5,30.06,SSE,152,0.0,0.0,35,0.00,,,0.00,392.00,VWS V14.01,2013-02-18 18:41:00,
2013-02-18 13:42:00,46.5,19.7,30.06,South,191,0.0,0.0,34,0.00,,,0.00,401.00,VWS V14.01,2013-02-18 18:42:00,
2013-02-18 13:43:00,46.8,19.9,30.06,South,191,0.0,0.0,34,0.00,,,0.00,403.00,VWS V14.01,2013-02-18 18:43:00,
2013-02-18 13:44:00,47.0,20.1,30.06,SSW,193,0.0,0.0,34,0.00,,,0.00,450.00,VWS V14.01,2013-02-18 18:44:00,
2013-02-18 13:45:00,47.1,19.5,30.04,SSW,196,0.0,0.0,33,0.00,,,0.00,435.00,VWS V14.01,2013-02-18 18:45:00,
2013-02-18 13:46:00,46.4,18.9,30.06,WSW,256,0.0,0.0,33,0.00,,,0.00,384.00,VWS V14.01,2013-02-18 18:46:00,
2013-02-18 13:47:00,47.6,20.6,30.04,SSW,195,0.0,0.0,34,0.00,,,0.00,421.00,VWS V14.01,2013-02-18 18:47:00,
2013-02-18 13:48:00,47.7,19.3,30.04,SSW,203,0.0,0.0,32,0.00,,,0.00,436.00,VWS V14.01,2013-02-18 18:48:00,
2013-02-18 13:49:00,47.7,19.3,30.04,SSE,150,0.0,0.0,32,0.00,,,0.00,410.00,VWS V14.01,2013-02-18 18:49:00,
2013-02-18 13:50:00,47.7,19.3,30.04,SSE,150,0.0,0.0,32,0.00,,,0.00,405.00,VWS V14.01,2013-02-18 18:50:00,
2013-02-18 13:51:00,47.7,19.3,30.04,SSE,150,0.0,0.0,32,0.00,,,0.00,424.00,VWS V14.01,2013-02-18 18:51:00,
2013-02-18 13:52:00,47.6,20.6,30.04,SSW,195,0.0,0.0,34,0.00,,,0.00,421.00,VWS V14.01,2013-02-18 18:52:00,
2013-02-18 13:53:00,48.2,21.2,30.04,SSE,162,0.0,0.0,34,0.00,,,0.00,399.00,VWS V14.01,2013-02-18 18:53:00,
2013-02-18 13:54:00,48.5,20.7,30.04,SSE,164,0.0,0.0,33,0.00,,,0.00,406.00,VWS V14.01,2013-02-18 18:54:00,
2013-02-18 13:55:00,48.8,21.0,30.04,SSE,164,0.0,0.0,33,0.00,,,0.00,394.00,VWS V14.01,2013-02-18 18:55:00,
2013-02-18 13:56:00,49.1,22.0,30.04,SSW,196,0.0,0.0,34,0.00,,,0.00,389.00,VWS V14.01,2013-02-18 18:56:00,
2013-02-18 13:57:00,48.0,21.0,30.04,SSE,161,0.0,0.0,34,0.00,,,0.00,401.00,VWS V14.01,2013-02-18 18:57:00,
2013-02-18 13:58:00,49.1,19.8,30.04,SE,133,0.0,0.0,31,0.00,,,0.00,377.00,VWS V14.01,2013-02-18 18:58:00,
2013-02-18 13:59:00,48.9,20.4,30.04,SSE,154,0.0,0.0,32,0.00,,,0.00,378.00,VWS V14.01,2013-02-18 18:59:00,
2013-02-18 14:00:00,48.9,21.1,30.03,South,175,0.0,0.0,33,0.00,,,0.00,382.00,VWS V14.01,2013-02-18 19:00:00,
2013-02-18 14:01:00,48.9,21.1,30.03,SSW,198,0.0,0.0,33,0.00,,,0.00,382.00,VWS V14.01,2013-02-18 19:01:00,
2013-02-18 14:02:00,48.9,21.1,30.03,SSW,200,0.0,0.0,33,0.00,,,0.00,389.00,VWS V14.01,2013-02-18 19:02:00,
2013-02-18 14:03:00,49.1,19.8,30.04,SE,133,0.0,0.0,31,0.00,,,0.00,377.00,VWS V14.01,2013-02-18 19:03:00,
2013-02-18 14:04:00,49.1,21.2,30.03,SE,126,0.0,0.0,33,0.00,,,0.00,389.00,VWS V14.01,2013-02-18 19:04:00,
2013-02-18 14:05:00,48.9,21.1,30.03,South,189,0.0,0.0,33,0.00,,,0.00,396.00,VWS V14.01,2013-02-18 19:05:00,
2013-02-18 14:06:00,48.9,21.1,30.03,SSE,161,0.0,0.0,33,0.00,,,0.00,391.00,VWS V14.01,2013-02-18 19:06:00,
2013-02-18 14:07:00,48.9,21.1,30.03,SSE,165,0.0,0.0,33,0.00,,,0.00,389.00,VWS V14.01,2013-02-18 19:07:00,
2013-02-18 14:08:00,48.9,21.1,30.03,South,188,0.0,0.0,33,0.00,,,0.00,392.00,VWS V14.01,2013-02-18 19:08:00,
2013-02-18 14:09:00,49.1,21.3,30.03,SE,126,0.0,0.0,33,0.00,,,0.00,389.00,VWS V14.01,2013-02-18 19:09:00,
2013-02-18 14:10:00,48.9,21.1,30.03,South,176,0.0,0.0,33,0.00,,,0.00,398.00,VWS V14.01,2013-02-18 19:10:00,
2013-02-18 14:11:00,48.8,21.0,30.03,SSE,160,0.0,0.0,33,0.00,,,0.00,392.00,VWS V14.01,2013-02-18 19:11:00,
2013-02-18 14:12:00,48.6,21.5,30.03,SSE,158,0.0,0.0,34,0.00,,,0.00,398.00,VWS V14.01,2013-02-18 19:12:00,
2013-02-18 14:13:00,48.6,21.5,30.03,SSE,167,0.0,0.0,34,0.00,,,0.00,399.00,VWS V14.01,2013-02-18 19:13:00,
2013-02-18 14:14:00,48.9,21.8,30.03,SE,138,0.0,0.0,34,0.00,,,0.00,389.00,VWS V14.01,2013-02-18 19:14:00,
2013-02-18 14:15:00,48.6,22.2,30.01,South,186,0.0,0.0,35,0.00,,,0.00,442.00,VWS V14.01,2013-02-18 19:15:00,
2013-02-18 14:16:00,48.6,22.2,30.01,South,172,0.0,0.0,35,0.00,,,0.00,433.00,VWS V14.01,2013-02-18 19:16:00,
2013-02-18 14:17:00,48.5,22.1,30.01,SE,136,0.0,0.0,35,0.00,,,0.00,447.00,VWS V14.01,2013-02-18 19:17:00,
2013-02-18 14:18:00,48.5,22.1,30.01,SE,137,0.0,0.0,35,0.00,,,0.00,428.00,VWS V14.01,2013-02-18 19:18:00,
2013-02-18 14:19:00,48.3,21.9,30.01,SSE,168,0.0,0.0,35,0.00,,,0.00,433.00,VWS V14.01,2013-02-18 19:19:00,
2013-02-18 14:20:00,48.6,22.2,30.01,South,186,0.0,0.0,35,0.00,,,0.00,442.00,VWS V14.01,2013-02-18 19:20:00,
2013-02-18 14:21:00,48.3,22.6,30.01,SSE,160,0.0,0.0,36,0.00,,,0.00,431.00,VWS V14.01,2013-02-18 19:21:00,
2013-02-18 14:22:00,48.5,22.8,30.01,ESE,123,0.0,0.0,36,0.00,,,0.00,431.00,VWS V14.01,2013-02-18 19:22:00,
2013-02-18 14:23:00,48.5,22.8,30.01,SSE,167,0.0,0.0,36,0.00,,,0.00,431.00,VWS V14.01,2013-02-18 19:23:00,
2013-02-18 14:24:00,48.5,22.8,30.01,South,178,0.0,0.0,36,0.00,,,0.00,421.00,VWS V14.01,2013-02-18 19:24:00,
2013-02-18 14:25:00,48.3,22.6,30.01,ESE,121,0.0,0.0,36,0.00,,,0.00,447.00,VWS V14.01,2013-02-18 19:25:00,
2013-02-18 14:26:00,48.6,22.9,30.01,SSE,151,0.0,0.0,36,0.00,,,0.00,431.00,VWS V14.01,2013-02-18 19:26:00,
2013-02-18 14:27:00,48.6,22.9,30.01,SSE,152,0.0,0.0,36,0.00,,,0.00,392.00,VWS V14.01,2013-02-18 19:27:00,
2013-02-18 14:28:00,48.6,22.2,30.01,SE,143,0.0,0.0,35,0.00,,,0.00,443.00,VWS V14.01,2013-02-18 19:28:00,
2013-02-18 14:29:00,48.6,22.2,30.01,SSE,168,0.0,0.0,35,0.00,,,0.00,431.00,VWS V14.01,2013-02-18 19:29:00,
2013-02-18 14:30:00,48.6,22.9,30.01,SSE,157,0.0,0.0,36,0.00,,,0.00,442.00,VWS V14.01,2013-02-18 19:30:00,
2013-02-18 14:31:00,48.8,23.0,30.01,SE,145,0.0,0.0,36,0.00,,,0.00,438.00,VWS V14.01,2013-02-18 19:31:00,
2013-02-18 14:32:00,48.8,23.0,30.01,SSE,165,0.0,0.0,36,0.00,,,0.00,419.00,VWS V14.01,2013-02-18 19:32:00,
2013-02-18 14:33:00,48.8,23.0,30.01,East,93,0.0,0.0,36,0.00,,,0.00,433.00,VWS V14.01,2013-02-18 19:33:00,
2013-02-18 14:34:00,48.6,23.5,30.01,ESE,112,0.0,0.0,37,0.00,,,0.00,433.00,VWS V14.01,2013-02-18 19:34:00,
2013-02-18 14:35:00,48.8,23.7,30.01,SE,144,0.0,0.0,37,0.00,,,0.00,440.00,VWS V14.01,2013-02-18 19:35:00,
2013-02-18 14:36:00,48.8,23.0,30.01,SE,145,0.0,0.0,36,0.00,,,0.00,438.00,VWS V14.01,2013-02-18 19:36:00,
2013-02-18 14:37:00,48.9,23.1,30.01,SSE,151,0.0,0.0,36,0.00,,,0.00,424.00,VWS V14.01,2013-02-18 19:37:00,
2013-02-18 14:38:00,48.9,23.1,30.01,East,79,0.0,0.0,36,0.00,,,0.00,424.00,VWS V14.01,2013-02-18 19:38:00,
2013-02-18 14:39:00,48.9,23.8,30.01,SE,133,0.0,0.0,37,0.00,,,0.00,424.00,VWS V14.01,2013-02-18 19:39:00,
2013-02-18 14:40:00,48.9,23.8,30.01,ESE,120,0.0,0.0,37,0.00,,,0.00,415.00,VWS V14.01,2013-02-18 19:40:00,
2013-02-18 14:41:00,48.9,23.8,30.01,South,191,0.0,0.0,37,0.00,,,0.00,410.00,VWS V14.01,2013-02-18 19:41:00,
2013-02-18 14:42:00,48.9,23.1,30.01,SSE,151,0.0,0.0,36,0.00,,,0.00,424.00,VWS V14.01,2013-02-18 19:42:00,
2013-02-18 14:43:00,49.1,24.0,30.01,South,179,0.0,0.0,37,0.00,,,0.00,417.00,VWS V14.01,2013-02-18 19:43:00,
2013-02-18 14:44:00,49.1,24.0,30.01,SSE,152,0.0,0.0,37,0.00,,,0.00,431.00,VWS V14.01,2013-02-18 19:44:00,
2013-02-18 14:45:00,49.2,24.1,30.00,SSE,161,0.0,0.0,37,0.00,,,0.00,429.00,VWS V14.01,2013-02-18 19:45:00,
2013-02-18 14:46:00,49.4,23.6,30.00,South,172,0.0,0.0,36,0.00,,,0.00,405.00,VWS V14.01,2013-02-18 19:46:00,
2013-02-18 14:47:00,49.1,24.0,30.01,SSE,152,0.0,0.0,37,0.00,,,0.00,417.00,VWS V14.01,2013-02-18 19:47:00,
2013-02-18 14:48:00,49.6,25.0,30.00,South,188,0.0,0.0,38,0.00,,,0.00,421.00,VWS V14.01,2013-02-18 19:48:00,
2013-02-18 14:49:00,49.8,25.2,30.00,SSE,167,0.0,0.0,38,0.00,,,0.00,408.00,VWS V14.01,2013-02-18 19:49:00,
2013-02-18 14:50:00,49.9,24.0,30.00,South,172,0.0,0.0,36,0.00,,,0.00,408.00,VWS V14.01,2013-02-18 19:50:00,
2013-02-18 14:51:00,49.9,24.0,30.00,SSW,192,0.0,0.0,36,0.00,,,0.00,417.00,VWS V14.01,2013-02-18 19:51:00,
2013-02-18 14:52:00,49.5,24.3,30.00,SE,137,0.0,0.0,37,0.00,,,0.00,415.00,VWS V14.01,2013-02-18 19:52:00,
2013-02-18 14:53:00,50.2,24.3,30.00,SE,133,0.0,0.0,36,0.00,,,0.00,428.00,VWS V14.01,2013-02-18 19:53:00,
2013-02-18 14:54:00,50.2,24.3,30.00,ESE,117,0.0,0.0,36,0.00,,,0.00,428.00,VWS V14.01,2013-02-18 19:54:00,
2013-02-18 14:55:00,50.4,25.1,30.00,SE,137,0.0,0.0,37,0.00,,,0.00,398.00,VWS V14.01,2013-02-18 19:55:00,
2013-02-18 14:56:00,50.4,25.1,30.00,SE,134,0.0,0.0,37,0.00,,,0.00,394.00,VWS V14.01,2013-02-18 19:56:00,
2013-02-18 14:57:00,50.1,24.9,30.00,SSE,155,0.0,0.0,37,0.00,,,0.00,431.00,VWS V14.01,2013-02-18 19:57:00,
2013-02-18 14:58:00,50.5,24.6,30.00,SSE,152,0.0,0.0,36,0.00,,,0.00,392.00,VWS V14.01,2013-02-18 19:58:00,
2013-02-18 14:59:00,50.5,24.6,30.00,SE,138,0.0,0.0,36,0.00,,,0.00,406.00,VWS V14.01,2013-02-18 19:59:00,
2013-02-18 15:00:00,50.5,25.2,29.99,South,188,0.0,0.0,37,0.00,,,0.00,428.00,VWS V14.01,2013-02-18 20:00:00,
2013-02-18 15:01:00,50.4,25.1,29.99,SSE,151,0.0,0.0,37,0.00,,,0.00,428.00,VWS V14.01,2013-02-18 20:01:00,
2013-02-18 15:02:00,50.4,24.5,29.99,SSE,161,0.0,0.0,36,0.00,,,0.00,424.00,VWS V14.01,2013-02-18 20:02:00,
2013-02-18 15:03:00,50.5,24.6,30.00,SSE,152,0.0,0.0,36,0.00,,,0.00,392.00,VWS V14.01,2013-02-18 20:03:00,
2013-02-18 15:04:00,50.2,25.6,29.99,SSE,147,0.0,0.0,38,0.00,,,0.00,391.00,VWS V14.01,2013-02-18 20:04:00,
2013-02-18 15:05:00,50.2,25.0,29.99,SE,145,0.0,0.0,37,0.00,,,0.00,421.00,VWS V14.01,2013-02-18 20:05:00,
2013-02-18 15:06:00,50.2,25.0,29.99,SSE,162,0.0,0.0,37,0.00,,,0.00,424.00,VWS V14.01,2013-02-18 20:06:00,
2013-02-18 15:07:00,50.2,25.6,29.99,SSE,157,0.0,0.0,38,0.00,,,0.00,415.00,VWS V14.01,2013-02-18 20:07:00,
2013-02-18 15:08:00,50.2,25.0,29.99,SSE,154,0.0,0.0,37,0.00,,,0.00,415.00,VWS V14.01,2013-02-18 20:08:00,
2013-02-18 15:09:00,50.2,25.6,29.99,SSE,147,0.0,0.0,38,0.00,,,0.00,391.00,VWS V14.01,2013-02-18 20:09:00,
2013-02-18 15:10:00,50.4,24.5,29.99,SSE,147,0.0,0.0,36,0.00,,,0.00,419.00,VWS V14.01,2013-02-18 20:10:00,
2013-02-18 15:11:00,50.4,23.8,29.99,South,175,0.0,0.0,35,0.00,,,0.00,413.00,VWS V14.01,2013-02-18 20:11:00,
2013-02-18 15:12:00,50.4,23.1,29.99,SE,143,0.0,0.0,34,0.00,,,0.00,408.00,VWS V14.01,2013-02-18 20:12:00,
2013-02-18 15:13:00,50.2,22.2,29.99,SE,128,0.0,0.0,33,0.00,,,0.00,417.00,VWS V14.01,2013-02-18 20:13:00,
2013-02-18 15:14:00,50.2,25.0,29.99,SE,144,0.0,0.0,37,0.00,,,0.00,422.00,VWS V14.01,2013-02-18 20:14:00,
2013-02-18 15:15:00,50.2,22.2,29.99,SE,137,0.0,0.0,33,0.00,,,0.00,382.00,VWS V14.01,2013-02-18 20:15:00,
2013-02-18 15:16:00,50.1,22.1,29.99,ESE,116,0.0,0.0,33,0.00,,,0.00,382.00,VWS V14.01,2013-02-18 20:16:00,
2013-02-18 15:17:00,49.9,22.0,29.99,SE,131,0.0,0.0,33,0.00,,,0.00,366.00,VWS V14.01,2013-02-18 20:17:00,
2013-02-18 15:18:00,49.9,22.7,29.99,SE,141,0.0,0.0,34,0.00,,,0.00,340.00,VWS V14.01,2013-02-18 20:18:00,
2013-02-18 15:19:00,50.2,22.2,29.99,ESE,104,0.0,0.0,33,0.00,,,0.00,410.00,VWS V14.01,2013-02-18 20:19:00,
2013-02-18 15:20:00,49.8,21.9,29.99,SE,138,0.0,0.0,33,0.00,,,0.00,392.00,VWS V14.01,2013-02-18 20:20:00,
2013-02-18 15:21:00,49.6,21.7,29.99,ESE,114,0.0,0.0,33,0.00,,,0.00,391.00,VWS V14.01,2013-02-18 20:21:00,
2013-02-18 15:22:00,49.6,21.7,29.99,SSE,148,0.0,0.0,33,0.00,,,0.00,391.00,VWS V14.01,2013-02-18 20:22:00,
2013-02-18 15:23:00,49.5,21.6,29.99,East,95,0.0,0.0,33,0.00,,,0.00,405.00,VWS V14.01,2013-02-18 20:23:00,
2013-02-18 15:24:00,49.8,21.9,29.99,SSE,152,0.0,0.0,33,0.00,,,0.00,371.00,VWS V14.01,2013-02-18 20:24:00,
2013-02-18 15:25:00,49.5,21.6,29.99,East,100,0.0,0.0,33,0.00,,,0.00,380.00,VWS V14.01,2013-02-18 20:25:00,
2013-02-18 15:26:00,49.4,21.5,29.99,SSE,155,0.0,0.0,33,0.00,,,0.00,382.00,VWS V14.01,2013-02-18 20:26:00,
2013-02-18 15:27:00,49.4,21.5,29.99,SE,137,0.0,0.0,33,0.00,,,0.00,384.00,VWS V14.01,2013-02-18 20:27:00,
2013-02-18 15:28:00,49.4,21.5,29.99,ENE,72,0.0,0.0,33,0.00,,,0.00,375.00,VWS V14.01,2013-02-18 20:28:00,
2013-02-18 15:29:00,49.5,22.3,29.99,East,86,0.0,0.0,34,0.00,,,0.00,384.00,VWS V14.01,2013-02-18 20:29:00,
2013-02-18 15:30:00,49.4,21.5,30.00,ESE,119,0.0,0.0,33,0.00,,,0.00,378.00,VWS V14.01,2013-02-18 20:30:00,
2013-02-18 15:31:00,49.4,22.2,30.00,SE,124,0.0,0.0,34,0.00,,,0.00,385.00,VWS V14.01,2013-02-18 20:31:00,
2013-02-18 15:32:00,49.5,21.6,30.00,East,90,0.0,0.0,33,0.00,,,0.00,384.00,VWS V14.01,2013-02-18 20:32:00,
2013-02-18 15:33:00,49.5,21.6,30.00,ESE,107,0.0,0.0,33,0.00,,,0.00,384.00,VWS V14.01,2013-02-18 20:33:00,
2013-02-18 15:34:00,49.6,21.7,30.00,ESE,120,0.0,0.0,33,0.00,,,0.00,370.00,VWS V14.01,2013-02-18 20:34:00,
2013-02-18 15:35:00,49.4,21.5,30.00,ESE,119,0.0,0.0,33,0.00,,,0.00,378.00,VWS V14.01,2013-02-18 20:35:00,
2013-02-18 15:36:00,49.6,21.0,30.00,ESE,121,0.0,0.0,32,0.00,,,0.00,368.00,VWS V14.01,2013-02-18 20:36:00,
2013-02-18 15:37:00,49.6,21.0,30.00,SE,134,0.0,0.0,32,0.00,,,0.00,368.00,VWS V14.01,2013-02-18 20:37:00,
2013-02-18 15:38:00,49.8,21.9,30.00,East,95,0.0,0.0,33,0.00,,,0.00,287.00,VWS V14.01,2013-02-18 20:38:00,
2013-02-18 15:39:00,49.8,21.9,30.00,SE,140,0.0,0.0,33,0.00,,,0.00,324.00,VWS V14.01,2013-02-18 20:39:00,
2013-02-18 15:40:00,49.8,21.9,30.00,SE,127,0.0,0.0,33,0.00,,,0.00,347.00,VWS V14.01,2013-02-18 20:40:00,
2013-02-18 15:41:00,49.6,21.0,30.00,ESE,121,0.0,0.0,32,0.00,,,0.00,368.00,VWS V14.01,2013-02-18 20:41:00,
2013-02-18 15:42:00,49.6,21.7,30.00,ESE,123,0.0,0.0,33,0.00,,,0.00,354.00,VWS V14.01,2013-02-18 20:42:00,
2013-02-18 15:43:00,49.6,21.7,30.00,East,93,0.0,0.0,33,0.00,,,0.00,352.00,VWS V14.01,2013-02-18 20:43:00,
2013-02-18 15:44:00,49.5,21.6,30.00,ESE,110,0.0,0.0,33,0.00,,,0.00,320.00,VWS V14.01,2013-02-18 20:44:00,
2013-02-18 15:45:00,49.5,21.6,30.00,ESE,123,0.0,0.0,33,0.00,,,0.00,345.00,VWS V14.01,2013-02-18 20:45:00,
2013-02-18 15:46:00,49.8,21.9,30.00,SE,138,0.0,0.0,33,0.00,,,0.00,343.00,VWS V14.01,2013-02-18 20:46:00,
2013-02-18 15:47:00,49.6,21.7,30.00,ESE,114,0.0,0.0,33,0.00,,,0.00,308.00,VWS V14.01,2013-02-18 20:47:00,
2013-02-18 15:48:00,49.6,21.7,30.00,SSE,154,0.0,0.0,33,0.00,,,0.00,322.00,VWS V14.01,2013-02-18 20:48:00,
2013-02-18 15:49:00,49.6,21.0,30.00,East,99,0.0,0.0,32,0.00,,,0.00,355.00,VWS V14.01,2013-02-18 20:49:00,
2013-02-18 15:50:00,49.5,20.9,30.00,ESE,107,0.0,0.0,32,0.00,,,0.00,359.00,VWS V14.01,2013-02-18 20:50:00,
2013-02-18 15:51:00,49.5,21.6,30.00,ESE,120,0.0,0.0,33,0.00,,,0.00,355.00,VWS V14.01,2013-02-18 20:51:00,
2013-02-18 15:52:00,49.4,21.5,30.00,SSE,155,0.0,0.0,33,0.00,,,0.00,343.00,VWS V14.01,2013-02-18 20:52:00,
2013-02-18 15:53:00,49.4,21.5,30.00,SE,143,0.0,0.0,33,0.00,,,0.00,313.00,VWS V14.01,2013-02-18 20:53:00,
2013-02-18 15:54:00,49.4,21.5,30.00,SE,138,0.0,0.0,33,0.00,,,0.00,313.00,VWS V14.01,2013-02-18 20:54:00,
2013-02-18 15:55:00,49.5,21.6,30.00,ESE,109,0.0,0.0,33,0.00,,,0.00,280.00,VWS V14.01,2013-02-18 20:55:00,
2013-02-18 15:56:00,49.5,21.6,30.00,SE,140,0.0,0.0,33,0.00,,,0.00,274.00,VWS V14.01,2013-02-18 20:56:00,
2013-02-18 15:57:00,49.4,21.5,30.00,SSE,155,0.0,0.0,33,0.00,,,0.00,343.00,VWS V14.01,2013-02-18 20:57:00,
2013-02-18 15:58:00,49.5,20.9,30.00,ESE,121,0.0,0.0,32,0.00,,,0.00,287.00,VWS V14.01,2013-02-18 20:58:00,
2013-02-18 15:59:00,49.5,20.9,30.00,SE,141,0.0,0.0,32,0.00,,,0.00,329.00,VWS V14.01,2013-02-18 20:59:00,
2013-02-18 16:00:00,49.5,21.6,30.00,SE,127,0.0,0.0,33,0.00,,,0.00,320.00,VWS V14.01,2013-02-18 21:00:00,
2013-02-18 16:01:00,49.5,20.9,30.00,ESE,121,0.0,0.0,32,0.00,,,0.00,306.00,VWS V14.01,2013-02-18 21:01:00,
2013-02-18 16:02:00,49.5,21.6,30.00,ESE,110,0.0,0.0,33,0.00,,,0.00,287.00,VWS V14.01,2013-02-18 21:02:00,
2013-02-18 16:03:00,49.5,20.9,30.00,ESE,116,0.0,0.0,32,0.00,,,0.00,245.00,VWS V14.01,2013-02-18 21:03:00,
2013-02-18 16:04:00,49.4,20.8,30.00,ESE,116,0.0,0.0,32,0.00,,,0.00,211.00,VWS V14.01,2013-02-18 21:04:00,
2013-02-18 16:05:00,49.5,21.6,30.00,ESE,113,0.0,0.0,33,0.00,,,0.00,209.00,VWS V14.01,2013-02-18 21:05:00,
2013-02-18 16:06:00,49.4,21.5,30.00,ESE,123,0.0,0.0,33,0.00,,,0.00,236.00,VWS V14.01,2013-02-18 21:06:00,
2013-02-18 16:07:00,49.5,20.9,30.00,SE,124,0.0,0.0,32,0.00,,,0.00,306.00,VWS V14.01,2013-02-18 21:07:00,
2013-02-18 16:08:00,49.2,20.6,30.00,ESE,119,0.0,0.0,32,0.00,,,0.00,222.00,VWS V14.01,2013-02-18 21:08:00,
2013-02-18 16:09:00,49.1,21.2,30.00,ESE,123,0.0,0.0,33,0.00,,,0.00,252.00,VWS V14.01,2013-02-18 21:09:00,
2013-02-18 16:10:00,49.1,20.5,30.00,SE,130,0.0,0.0,32,0.00,,,0.00,269.00,VWS V14.01,2013-02-18 21:10:00,
2013-02-18 16:11:00,48.9,21.1,30.00,SE,145,0.0,0.0,33,0.00,,,0.00,269.00,VWS V14.01,2013-02-18 21:11:00,
2013-02-18 16:12:00,49.4,20.8,30.00,SE,140,0.0,0.0,32,0.00,,,0.00,246.00,VWS V14.01,2013-02-18 21:12:00,
2013-02-18 16:13:00,48.9,21.1,30.00,SE,138,0.0,0.0,33,0.00,,,0.00,202.00,VWS V14.01,2013-02-18 21:13:00,
2013-02-18 16:14:00,48.9,21.1,30.00,SE,133,0.0,0.0,33,0.00,,,0.00,151.00,VWS V14.01,2013-02-18 21:14:00,
2013-02-18 16:15:00,48.9,21.1,29.99,SE,127,0.0,0.0,33,0.00,,,0.00,155.00,VWS V14.01,2013-02-18 21:15:00,
2013-02-18 16:16:00,48.8,21.0,29.99,SE,141,0.0,0.0,33,0.00,,,0.00,178.00,VWS V14.01,2013-02-18 21:16:00,
2013-02-18 16:17:00,48.9,20.4,30.00,SSE,152,0.0,0.0,32,0.00,,,0.00,195.00,VWS V14.01,2013-02-18 21:17:00,
2013-02-18 16:18:00,48.6,20.8,29.99,SE,127,0.0,0.0,33,0.00,,,0.00,192.00,VWS V14.01,2013-02-18 21:18:00,
2013-02-18 16:19:00,48.6,20.8,29.99,SE,126,0.0,0.0,33,0.00,,,0.00,158.00,VWS V14.01,2013-02-18 21:19:00,
2013-02-18 16:20:00,48.5,20.7,29.99,SE,137,0.0,0.0,33,0.00,,,0.00,143.00,VWS V14.01,2013-02-18 21:20:00,
2013-02-18 16:21:00,48.3,20.5,29.99,SE,137,0.0,0.0,33,0.00,,,0.00,143.00,VWS V14.01,2013-02-18 21:21:00,
2013-02-18 16:22:00,48.3,20.5,29.99,SE,138,0.0,0.0,33,0.00,,,0.00,148.00,VWS V14.01,2013-02-18 21:22:00,
2013-02-18 16:23:00,48.6,20.8,29.99,SE,127,0.0,0.0,33,0.00,,,0.00,192.00,VWS V14.01,2013-02-18 21:23:00,
2013-02-18 16:24:00,48.2,20.5,29.99,SSE,160,0.0,0.0,33,0.00,,,0.00,153.00,VWS V14.01,2013-02-18 21:24:00,
2013-02-18 16:25:00,48.2,20.5,29.99,ESE,113,0.0,0.0,33,0.00,,,0.00,190.00,VWS V14.01,2013-02-18 21:25:00,
2013-02-18 16:26:00,48.0,21.0,29.99,SE,138,0.0,0.0,34,0.00,,,0.00,218.00,VWS V14.01,2013-02-18 21:26:00,
2013-02-18 16:27:00,48.0,20.3,29.99,SE,138,0.0,0.0,33,0.00,,,0.00,248.00,VWS V14.01,2013-02-18 21:27:00,
2013-02-18 16:28:00,48.3,20.5,29.99,ESE,110,0.0,0.0,33,0.00,,,0.00,164.00,VWS V14.01,2013-02-18 21:28:00,
2013-02-18 16:29:00,48.0,21.0,29.99,South,174,0.0,0.0,34,0.00,,,0.00,206.00,VWS V14.01,2013-02-18 21:29:00,
2013-02-18 16:30:00,48.0,20.3,30.00,South,181,0.0,0.0,33,0.00,,,0.00,223.00,VWS V14.01,2013-02-18 21:30:00,
2013-02-18 16:31:00,48.0,20.3,30.00,SE,136,0.0,0.0,33,0.00,,,0.00,211.00,VWS V14.01,2013-02-18 21:31:00,
2013-02-18 16:32:00,48.2,21.2,30.00,SSE,154,0.0,0.0,34,0.00,,,0.00,192.00,VWS V14.01,2013-02-18 21:32:00,
2013-02-18 16:33:00,48.0,21.0,29.99,South,169,0.0,0.0,34,0.00,,,0.00,253.00,VWS V14.01,2013-02-18 21:33:00,
2013-02-18 16:34:00,48.2,20.5,30.00,SE,140,0.0,0.0,33,0.00,,,0.00,269.00,VWS V14.01,2013-02-18 21:34:00,
2013-02-18 16:35:00,48.2,21.2,30.00,SE,130,0.0,0.0,34,0.00,,,0.00,167.00,VWS V14.01,2013-02-18 21:35:00,
2013-02-18 16:36:00,48.0,20.3,30.00,ESE,103,0.0,0.0,33,0.00,,,0.00,165.00,VWS V14.01,2013-02-18 21:36:00,
2013-02-18 16:37:00,48.0,20.3,30.00,SSE,147,0.0,0.0,33,0.00,,,0.00,153.00,VWS V14.01,2013-02-18 21:37:00,
2013-02-18 16:38:00,48.2,21.2,30.00,SE,137,0.0,0.0,34,0.00,,,0.00,192.00,VWS V14.01,2013-02-18 21:38:00,
2013-02-18 16:39:00,48.0,21.0,30.00,SSE,147,0.0,0.0,34,0.00,,,0.00,187.00,VWS V14.01,2013-02-18 21:39:00,
2013-02-18 16:40:00,47.9,20.9,30.00,SSE,154,0.0,0.0,34,0.00,,,0.00,181.00,VWS V14.01,2013-02-18 21:40:00,
2013-02-18 16:41:00,47.9,20.9,30.00,SSE,158,0.0,0.0,34,0.00,,,0.00,143.00,VWS V14.01,2013-02-18 21:41:00,
2013-02-18 16:42:00,47.7,20.0,30.00,SSE,152,0.0,0.0,33,0.00,,,0.00,135.00,VWS V14.01,2013-02-18 21:42:00,
2013-02-18 16:43:00,47.7,20.7,30.00,SSE,168,0.0,0.0,34,0.00,,,0.00,116.00,VWS V14.01,2013-02-18 21:43:00,
2013-02-18 16:44:00,48.0,21.0,30.00,SSE,147,0.0,0.0,34,0.00,,,0.00,187.00,VWS V14.01,2013-02-18 21:44:00,
2013-02-18 16:45:00,47.6,20.6,30.00,SSE,155,0.0,0.0,34,0.00,,,0.00,127.00,VWS V14.01,2013-02-18 21:45:00,
2013-02-18 16:46:00,47.4,20.5,30.00,SE,133,0.0,0.0,34,0.00,,,0.00,120.00,VWS V14.01,2013-02-18 21:46:00,
2013-02-18 16:47:00,47.4,20.5,30.00,ESE,123,0.0,0.0,34,0.00,,,0.00,128.00,VWS V14.01,2013-02-18 21:47:00,
2013-02-18 16:48:00,47.4,20.5,30.00,East,95,0.0,0.0,34,0.00,,,0.00,134.00,VWS V14.01,2013-02-18 21:48:00,
2013-02-18 16:49:00,47.6,20.6,30.00,SSE,151,0.0,0.0,34,0.00,,,0.00,123.00,VWS V14.01,2013-02-18 21:49:00,
2013-02-18 16:50:00,47.4,21.1,30.00,ESE,116,0.0,0.0,35,0.00,,,0.00,130.00,VWS V14.01,2013-02-18 21:50:00,
2013-02-18 16:51:00,47.3,20.4,30.00,SSE,154,0.0,0.0,34,0.00,,,0.00,127.00,VWS V14.01,2013-02-18 21:51:00,
2013-02-18 16:52:00,47.3,20.4,30.00,SE,144,0.0,0.0,34,0.00,,,0.00,132.00,VWS V14.01,2013-02-18 21:52:00,
2013-02-18 16:53:00,47.3,20.4,30.00,ESE,106,0.0,0.0,34,0.00,,,0.00,150.00,VWS V14.01,2013-02-18 21:53:00,
2013-02-18 16:54:00,47.4,21.1,30.00,ESE,110,0.0,0.0,35,0.00,,,0.00,158.00,VWS V14.01,2013-02-18 21:54:00,
2013-02-18 16:55:00,47.1,20.2,30.00,SE,141,0.0,0.0,34,0.00,,,0.00,137.00,VWS V14.01,2013-02-18 21:55:00,
2013-02-18 16:56:00,47.1,20.9,30.00,SSE,147,0.0,0.0,35,0.00,,,0.00,143.00,VWS V14.01,2013-02-18 21:56:00,
2013-02-18 16:57:00,47.0,20.8,30.00,SSE,155,0.0,0.0,35,0.00,,,0.00,144.00,VWS V14.01,2013-02-18 21:57:00,
2013-02-18 16:58:00,47.0,20.8,30.00,SSE,154,0.0,0.0,35,0.00,,,0.00,130.00,VWS V14.01,2013-02-18 21:58:00,
2013-02-18 16:59:00,47.1,20.9,30.00,SE,140,0.0,0.0,35,0.00,,,0.00,137.00,VWS V14.01,2013-02-18 21:59:00,
2013-02-18 17:00:00,47.0,20.8,30.00,SE,140,0.0,0.0,35,0.00,,,0.00,123.00,VWS V14.01,2013-02-18 22:00:00,
2013-02-18 17:01:00,47.0,20.8,30.00,ESE,114,0.0,0.0,35,0.00,,,0.00,113.00,VWS V14.01,2013-02-18 22:01:00,
2013-02-18 17:02:00,46.8,20.6,30.00,SE,137,0.0,0.0,35,0.00,,,0.00,106.00,VWS V14.01,2013-02-18 22:02:00,
2013-02-18 17:03:00,46.8,20.6,30.00,SE,138,0.0,0.0,35,0.00,,,0.00,102.00,VWS V14.01,2013-02-18 22:03:00,
2013-02-18 17:04:00,47.0,20.8,30.00,ESE,109,0.0,0.0,35,0.00,,,0.00,141.00,VWS V14.01,2013-02-18 22:04:00,
2013-02-18 17:05:00,46.8,20.6,30.00,SE,127,0.0,0.0,35,0.00,,,0.00,91.00,VWS V14.01,2013-02-18 22:05:00,
2013-02-18 17:06:00,46.7,20.5,30.00,SE,144,0.0,0.0,35,0.00,,,0.00,86.00,VWS V14.01,2013-02-18 22:06:00,
2013-02-18 17:07:00,46.7,20.5,30.00,SE,131,0.0,0.0,35,0.00,,,0.00,88.00,VWS V14.01,2013-02-18 22:07:00,
2013-02-18 17:08:00,46.7,20.5,30.00,SE,127,0.0,0.0,35,0.00,,,0.00,90.00,VWS V14.01,2013-02-18 22:08:00,
2013-02-18 17:09:00,46.8,20.6,30.00,SE,140,0.0,0.0,35,0.00,,,0.00,99.00,VWS V14.01,2013-02-18 22:09:00,
2013-02-18 17:10:00,46.5,20.3,30.00,ESE,123,0.0,0.0,35,0.00,,,0.00,134.00,VWS V14.01,2013-02-18 22:10:00,
2013-02-18 17:11:00,46.5,20.3,30.00,SSE,164,0.0,0.0,35,0.00,,,0.00,132.00,VWS V14.01,2013-02-18 22:11:00,
2013-02-18 17:12:00,46.5,20.3,30.00,SSE,160,0.0,0.0,35,0.00,,,0.00,111.00,VWS V14.01,2013-02-18 22:12:00,
2013-02-18 17:13:00,46.5,20.3,30.00,SE,140,0.0,0.0,35,0.00,,,0.00,116.00,VWS V14.01,2013-02-18 22:13:00,
2013-02-18 17:14:00,46.5,20.3,30.00,ESE,106,0.0,0.0,35,0.00,,,0.00,113.00,VWS V14.01,2013-02-18 22:14:00,
2013-02-18 17:15:00,46.5,20.3,30.00,ESE,123,0.0,0.0,35,0.00,,,0.00,134.00,VWS V14.01,2013-02-18 22:15:00,
2013-02-18 17:16:00,46.5,20.3,30.00,ESE,121,0.0,0.0,35,0.00,,,0.00,88.00,VWS V14.01,2013-02-18 22:16:00,
2013-02-18 17:17:00,46.5,20.3,30.00,SE,136,0.0,0.0,35,0.00,,,0.00,81.00,VWS V14.01,2013-02-18 22:17:00,
2013-02-18 17:18:00,46.5,21.0,30.00,SSE,158,0.0,0.0,36,0.00,,,0.00,83.00,VWS V14.01,2013-02-18 22:18:00,
2013-02-18 17:19:00,46.5,21.0,30.00,SE,141,0.0,0.0,36,0.00,,,0.00,74.00,VWS V14.01,2013-02-18 22:19:00,
2013-02-18 17:20:00,46.5,21.0,30.00,SE,131,0.0,0.0,36,0.00,,,0.00,69.00,VWS V14.01,2013-02-18 22:20:00,
2013-02-18 17:21:00,46.5,20.3,30.00,ESE,121,0.0,0.0,35,0.00,,,0.00,88.00,VWS V14.01,2013-02-18 22:21:00,
2013-02-18 17:22:00,46.5,21.0,30.00,South,174,0.0,0.0,36,0.00,,,0.00,69.00,VWS V14.01,2013-02-18 22:22:00,
2013-02-18 17:23:00,46.5,21.0,30.00,SE,126,0.0,0.0,36,0.00,,,0.00,63.00,VWS V14.01,2013-02-18 22:23:00,
2013-02-18 17:24:00,46.4,20.9,30.00,ESE,119,0.0,0.0,36,0.00,,,0.00,62.00,VWS V14.01,2013-02-18 22:24:00,
2013-02-18 17:25:00,46.4,20.9,30.00,SE,124,0.0,0.0,36,0.00,,,0.00,55.00,VWS V14.01,2013-02-18 22:25:00,
2013-02-18 17:26:00,46.5,21.0,30.00,SSE,150,0.0,0.0,36,0.00,,,0.00,69.00,VWS V14.01,2013-02-18 22:26:00,
2013-02-18 17:27:00,46.4,20.9,30.00,SE,140,0.0,0.0,36,0.00,,,0.00,53.00,VWS V14.01,2013-02-18 22:27:00,
2013-02-18 17:28:00,46.4,20.9,30.00,East,93,0.0,0.0,36,0.00,,,0.00,53.00,VWS V14.01,2013-02-18 22:28:00,
2013-02-18 17:29:00,46.2,20.7,30.00,ESE,117,0.0,0.0,36,0.00,,,0.00,49.00,VWS V14.01,2013-02-18 22:29:00,
2013-02-18 17:30:00,46.2,20.7,30.02,SSE,150,0.0,0.0,36,0.00,,,0.00,46.00,VWS V14.01,2013-02-18 22:30:00,
2013-02-18 17:31:00,46.1,20.6,30.02,SE,145,0.0,0.0,36,0.00,,,0.00,48.00,VWS V14.01,2013-02-18 22:31:00,
2013-02-18 17:32:00,46.4,20.9,30.00,SE,140,0.0,0.0,36,0.00,,,0.00,53.00,VWS V14.01,2013-02-18 22:32:00,
2013-02-18 17:33:00,46.1,20.6,30.02,SSE,148,0.0,0.0,36,0.00,,,0.00,42.00,VWS V14.01,2013-02-18 22:33:00,
2013-02-18 17:34:00,46.0,20.6,30.02,SE,138,0.0,0.0,36,0.00,,,0.00,44.00,VWS V14.01,2013-02-18 22:34:00,
2013-02-18 17:35:00,46.0,21.2,30.02,SSE,151,0.0,0.0,37,0.00,,,0.00,39.00,VWS V14.01,2013-02-18 22:35:00,
2013-02-18 17:36:00,45.8,21.0,30.02,SE,133,0.0,0.0,37,0.00,,,0.00,33.00,VWS V14.01,2013-02-18 22:36:00,
2013-02-18 17:37:00,45.8,21.0,30.02,SE,138,0.0,0.0,37,0.00,,,0.00,33.00,VWS V14.01,2013-02-18 22:37:00,
2013-02-18 17:38:00,46.1,20.6,30.02,SSE,148,0.0,0.0,36,0.00,,,0.00,42.00,VWS V14.01,2013-02-18 22:38:00,
2013-02-18 17:39:00,45.7,20.9,30.02,SE,145,0.0,0.0,37,0.00,,,0.00,33.00,VWS V14.01,2013-02-18 22:39:00,
2013-02-18 17:40:00,45.7,20.9,30.02,SE,133,0.0,0.0,37,0.00,,,0.00,33.00,VWS V14.01,2013-02-18 22:40:00,
2013-02-18 17:41:00,45.5,20.8,30.02,SE,130,0.0,0.0,37,0.00,,,0.00,19.00,VWS V14.01,2013-02-18 22:41:00,
2013-02-18 17:42:00,45.5,20.8,30.02,SE,141,0.0,0.0,37,0.00,,,0.00,19.00,VWS V14.01,2013-02-18 22:42:00,
2013-02-18 17:43:00,45.4,20.7,30.02,ESE,102,0.0,0.0,37,0.00,,,0.00,19.00,VWS V14.01,2013-02-18 22:43:00,
2013-02-18 17:44:00,45.7,20.9,30.02,SE,145,0.0,0.0,37,0.00,,,0.00,33.00,VWS V14.01,2013-02-18 22:44:00,
2013-02-18 17:45:00,45.4,20.7,30.01,East,88,0.0,0.0,37,0.00,,,0.00,11.00,VWS V14.01,2013-02-18 22:45:00,
2013-02-18 17:46:00,45.2,20.5,30.01,SE,136,0.0,0.0,37,0.00,,,0.00,11.00,VWS V14.01,2013-02-18 22:46:00,
2013-02-18 17:47:00,45.2,20.5,30.01,ESE,116,0.0,0.0,37,0.00,,,0.00,11.00,VWS V14.01,2013-02-18 22:47:00,
2013-02-18 17:48:00,45.1,21.0,30.01,ESE,121,0.0,0.0,38,0.00,,,0.00,11.00,VWS V14.01,2013-02-18 22:48:00,
2013-02-18 17:49:00,45.4,20.7,30.02,SSE,150,0.0,0.0,37,0.00,,,0.00,19.00,VWS V14.01,2013-02-18 22:49:00,
2013-02-18 17:50:00,45.1,21.0,30.01,SE,141,0.0,0.0,38,0.00,,,0.00,7.00,VWS V14.01,2013-02-18 22:50:00,
2013-02-18 17:51:00,44.9,20.9,30.01,SE,145,0.0,0.0,38,0.00,,,0.00,7.00,VWS V14.01,2013-02-18 22:51:00,
2013-02-18 17:52:00,44.9,20.9,30.01,ESE,106,0.0,0.0,38,0.00,,,0.00,7.00,VWS V14.01,2013-02-18 22:52:00,
2013-02-18 17:53:00,44.9,20.9,30.01,SSE,152,0.0,0.0,38,0.00,,,0.00,5.00,VWS V14.01,2013-02-18 22:53:00,
2013-02-18 17:54:00,45.1,21.0,30.01,ESE,119,0.0,0.0,38,0.00,,,0.00,7.00,VWS V14.01,2013-02-18 22:54:00,
2013-02-18 17:55:00,44.8,21.4,30.01,SE,140,0.0,0.0,39,0.00,,,0.00,5.00,VWS V14.01,2013-02-18 22:55:00,
2013-02-18 17:56:00,44.8,21.4,30.01,SE,141,0.0,0.0,39,0.00,,,0.00,5.00,VWS V14.01,2013-02-18 22:56:00,
2013-02-18 17:57:00,44.6,21.2,30.01,SE,127,0.0,0.0,39,0.00,,,0.00,5.00,VWS V14.01,2013-02-18 22:57:00,
2013-02-18 17:58:00,44.6,21.2,30.01,SSE,154,0.0,0.0,39,0.00,,,0.00,0.00,VWS V14.01,2013-02-18 22:58:00,
2013-02-18 17:59:00,44.8,20.8,30.01,ESE,112,0.0,0.0,38,0.00,,,0.00,5.00,VWS V14.01,2013-02-18 22:59:00,
2013-02-18 18:00:00,44.5,21.1,30.02,SE,131,0.0,0.0,39,0.00,,,0.00,0.00,VWS V14.01,2013-02-18 23:00:00,
2013-02-18 18:01:00,44.5,21.1,30.02,SSE,151,0.0,0.0,39,0.00,,,0.00,0.00,VWS V14.01,2013-02-18 23:01:00,
2013-02-18 18:02:00,44.5,21.1,30.02,SE,124,0.0,0.0,39,0.00,,,0.00,0.00,VWS V14.01,2013-02-18 23:02:00,
2013-02-18 18:03:00,44.3,20.9,30.02,SE,130,0.0,0.0,39,0.00,,,0.00,0.00,VWS V14.01,2013-02-18 23:03:00,
2013-02-18 18:04:00,44.6,21.2,30.01,ESE,120,0.0,0.0,39,0.00,,,0.00,0.00,VWS V14.01,2013-02-18 23:04:00,
2013-02-18 18:05:00,44.2,20.8,30.02,SE,140,0.0,0.0,39,0.00,,,0.00,0.00,VWS V14.01,2013-02-18 23:05:00,
2013-02-18 18:06:00,44.2,20.8,30.02,ESE,110,0.0,0.0,39,0.00,,,0.00,0.00,VWS V14.01,2013-02-18 23:06:00,
2013-02-18 18:07:00,44.2,20.8,30.02,ESE,104,0.0,0.0,39,0.00,,,0.00,0.00,VWS V14.01,2013-02-18 23:07:00,
2013-02-18 18:08:00,44.2,21.4,30.02,ESE,119,0.0,0.0,40,0.00,,,0.00,0.00,VWS V14.01,2013-02-18 23:08:00,
2013-02-18 18:10:00,44.2,20.8,30.02,SE,140,0.0,0.0,39,0.00,,,0.00,0.00,VWS V14.01,2013-02-18 23:10:00,
2013-02-18 19:28:00,41.8,22.5,30.02,SE,141,0.0,0.0,46,0.00,,,0.00,0.00,VWS V14.01,2013-02-19 00:28:00,
2013-02-18 19:29:00,41.8,22.5,30.02,ESE,120,0.0,0.0,46,0.00,,,0.00,0.00,VWS V14.01,2013-02-19 00:29:00,
2013-02-18 19:30:00,41.6,22.4,30.02,SSE,148,0.0,0.0,46,0.00,,,0.00,0.00,VWS V14.01,2013-02-19 00:30:00,
2013-02-18 19:33:00,41.8,22.5,30.02,SE,141,0.0,0.0,46,0.00,,,0.00,0.00,VWS V14.01,2013-02-19 00:33:00,
2013-02-18 19:35:00,41.5,22.8,30.02,SE,145,0.0,0.0,47,0.00,,,0.00,0.00,VWS V14.01,2013-02-19 00:35:00,
2013-02-18 19:40:00,41.3,22.6,30.02,SE,137,0.0,0.0,47,0.00,,,0.00,0.00,VWS V14.01,2013-02-19 00:40:00,
2013-02-18 19:41:00,41.5,22.8,30.02,SE,145,0.0,0.0,47,0.00,,,0.00,0.00,VWS V14.01,2013-02-19 00:41:00,
2013-02-18 19:46:00,41.3,22.6,30.02,SE,137,0.0,0.0,47,0.00,,,0.00,0.00,VWS V14.01,2013-02-19 00:46:00,
2013-02-18 19:51:00,41.2,22.5,30.02,SSE,148,0.0,0.0,47,0.00,,,0.00,0.00,VWS V14.01,2013-02-19 00:51:00,
2013-02-18 19:53:00,40.9,22.7,30.02,SE,141,0.0,0.0,48,0.00,,,0.00,0.00,VWS V14.01,2013-02-19 00:53:00,
2013-02-18 19:54:00,40.9,22.7,30.02,SE,137,0.0,0.0,48,0.00,,,0.00,0.00,VWS V14.01,2013-02-19 00:54:00,
2013-02-18 19:55:00,40.9,22.7,30.02,ESE,121,0.0,0.0,48,0.00,,,0.00,0.00,VWS V14.01,2013-02-19 00:55:00,
2013-02-18 19:56:00,40.9,22.7,30.02,SSE,152,0.0,0.0,48,0.00,,,0.00,0.00,VWS V14.01,2013-02-19 00:56:00,
2013-02-18 19:57:00,41.1,22.9,30.02,SSE,147,0.0,0.0,48,0.00,,,0.00,0.00,VWS V14.01,2013-02-19 00:57:00,
2013-02-18 19:58:00,40.9,22.7,30.02,SE,126,0.0,0.0,48,0.00,,,0.00,0.00,VWS V14.01,2013-02-19 00:58:00,
2013-02-18 19:59:00,40.9,22.7,30.02,SSE,147,0.0,0.0,48,0.00,,,0.00,0.00,VWS V14.01,2013-02-19 00:59:00,
2013-02-18 20:00:00,40.9,22.7,30.02,SE,144,0.0,0.0,48,0.00,,,0.00,0.00,VWS V14.01,2013-02-19 01:00:00,
2013-02-18 20:01:00,40.9,22.7,30.02,SSE,152,0.0,0.0,48,0.00,,,0.00,0.00,VWS V14.01,2013-02-19 01:01:00,
2013-02-18 20:02:00,40.8,22.6,30.02,SE,141,0.0,0.0,48,0.00,,,0.00,0.00,VWS V14.01,2013-02-19 01:02:00,
2013-02-18 20:03:00,40.8,22.6,30.02,SE,144,0.0,0.0,48,0.00,,,0.00,0.00,VWS V14.01,2013-02-19 01:03:00,
2013-02-18 20:04:00,40.8,22.6,30.02,SE,144,0.0,0.0,48,0.00,,,0.00,0.00,VWS V14.01,2013-02-19 01:04:00,
2013-02-18 20:05:00,40.8,22.6,30.02,SSE,152,0.0,0.0,48,0.00,,,0.00,0.00,VWS V14.01,2013-02-19 01:05:00,
2013-02-18 20:06:00,40.8,22.6,30.02,SSE,148,0.0,0.0,48,0.00,,,0.00,0.00,VWS V14.01,2013-02-19 01:06:00,
2013-02-18 20:07:00,40.8,22.6,30.02,SSE,160,0.0,0.0,48,0.00,,,0.00,0.00,VWS V14.01,2013-02-19 01:07:00,
2013-02-18 20:17:00,40.8,22.6,30.02,ESE,119,0.0,0.0,48,0.00,,,0.00,0.00,VWS V14.01,2013-02-19 01:17:00,
2013-02-18 20:22:00,40.8,22.6,30.01,SE,145,0.0,0.0,48,0.00,,,0.00,0.00,VWS V14.01,2013-02-19 01:22:00,
2013-02-18 20:27:00,40.8,22.6,30.01,South,174,0.0,0.0,48,0.00,,,0.00,0.00,VWS V14.01,2013-02-19 01:27:00,
2013-02-18 20:33:00,40.8,23.1,30.01,SSE,147,0.0,0.0,49,0.00,,,0.00,0.00,VWS V14.01,2013-02-19 01:33:00,
2013-02-18 20:38:00,40.6,23.0,30.00,SE,128,0.0,0.0,49,0.00,,,0.00,0.00,VWS V14.01,2013-02-19 01:38:00,
2013-02-18 20:44:00,40.5,22.9,30.00,ESE,114,0.0,0.0,49,0.00,,,0.00,0.00,VWS V14.01,2013-02-19 01:44:00,
2013-02-18 20:50:00,40.2,23.1,30.00,SE,143,0.0,0.0,50,0.00,,,0.00,0.00,VWS V14.01,2013-02-19 01:50:00,
2013-02-18 20:55:00,40.1,23.0,30.00,SSE,147,0.0,0.0,50,0.00,,,0.00,0.00,VWS V14.01,2013-02-19 01:55:00,
2013-02-18 21:00:00,40.1,23.0,30.00,SE,126,0.0,0.0,50,0.00,,,0.00,0.00,VWS V14.01,2013-02-19 02:00:00,
2013-02-18 21:05:00,39.8,23.2,30.00,SE,140,0.0,0.0,51,0.00,,,0.00,0.00,VWS V14.01,2013-02-19 02:05:00,
2013-02-18 21:11:00,39.6,23.0,30.00,SE,127,0.0,0.0,51,0.00,,,0.00,0.00,VWS V14.01,2013-02-19 02:11:00,
2013-02-18 21:16:00,39.5,22.9,30.00,ESE,104,0.0,0.0,51,0.00,,,0.00,0.00,VWS V14.01,2013-02-19 02:16:00,
2013-02-18 21:22:00,39.3,23.2,29.99,SSW,192,0.0,0.0,52,0.00,,,0.00,0.00,VWS V14.01,2013-02-19 02:22:00,
2013-02-18 21:28:00,39.2,23.1,29.99,SSE,148,0.0,0.0,52,0.00,,,0.00,0.00,VWS V14.01,2013-02-19 02:28:00,
2013-02-18 21:34:00,39.1,23.0,29.99,SE,133,0.0,0.0,52,0.00,,,0.00,0.00,VWS V14.01,2013-02-19 02:34:00,
2013-02-18 21:39:00,39.1,23.0,29.98,SE,138,0.0,0.0,52,0.00,,,0.00,0.00,VWS V14.01,2013-02-19 02:39:00,
2013-02-18 21:45:00,38.9,22.8,29.98,SE,138,0.0,0.0,52,0.00,,,0.00,0.00,VWS V14.01,2013-02-19 02:45:00,
2013-02-18 21:50:00,38.8,23.1,29.98,SE,138,0.0,0.0,53,0.00,,,0.00,0.00,VWS V14.01,2013-02-19 02:50:00,
2013-02-18 21:57:00,38.6,23.0,29.98,SE,127,0.0,0.0,53,0.00,,,0.00,0.00,VWS V14.01,2013-02-19 02:57:00,
2013-02-18 22:03:00,38.6,23.0,29.98,SE,126,0.0,0.0,53,0.00,,,0.00,0.00,VWS V14.01,2013-02-19 03:03:00,
2013-02-18 22:10:00,38.5,22.9,29.98,SE,127,0.0,0.0,53,0.00,,,0.00,0.00,VWS V14.01,2013-02-19 03:10:00,
2013-02-18 22:16:00,38.3,23.1,29.98,SE,134,0.0,0.0,54,0.00,,,0.00,0.00,VWS V14.01,2013-02-19 03:16:00,
2013-02-18 22:22:00,38.3,23.1,29.97,ESE,110,0.0,0.0,54,0.00,,,0.00,0.00,VWS V14.01,2013-02-19 03:22:00,
2013-02-18 22:27:00,38.3,23.1,29.97,SE,137,0.0,0.0,54,0.00,,,0.00,0.00,VWS V14.01,2013-02-19 03:27:00,
2013-02-18 22:32:00,38.5,23.3,29.97,ESE,119,0.0,0.0,54,0.00,,,0.00,0.00,VWS V14.01,2013-02-19 03:32:00,
2013-02-18 22:37:00,38.5,23.3,29.96,ESE,109,0.0,0.0,54,0.00,,,0.00,0.00,VWS V14.01,2013-02-19 03:37:00,
2013-02-18 22:43:00,38.6,23.4,29.96,ESE,123,0.0,0.0,54,0.00,,,0.00,0.00,VWS V14.01,2013-02-19 03:43:00,
2013-02-18 22:49:00,38.8,23.6,29.96,ESE,107,0.0,0.0,54,0.00,,,0.00,0.00,VWS V14.01,2013-02-19 03:49:00,
2013-02-18 22:54:00,38.6,23.4,29.94,ESE,104,0.0,0.0,54,0.00,,,0.00,0.00,VWS V14.01,2013-02-19 03:54:00,
2013-02-18 23:00:00,38.5,23.3,29.94,ESE,102,0.0,0.0,54,0.00,,,0.00,0.00,VWS V14.01,2013-02-19 04:00:00,
2013-02-18 23:05:00,38.3,23.1,29.93,NE,49,0.0,0.0,54,0.00,,,0.00,0.00,VWS V14.01,2013-02-19 04:05:00,
2013-02-18 23:10:00,38.3,23.1,29.93,ESE,109,0.0,0.0,54,0.00,,,0.00,0.00,VWS V14.01,2013-02-19 04:10:00,
2013-02-18 23:16:00,38.2,23.5,29.93,ESE,109,0.0,0.0,55,0.00,,,0.00,0.00,VWS V14.01,2013-02-19 04:16:00,
2013-02-18 23:21:00,38.2,23.5,29.90,ESE,106,0.0,0.0,55,0.00,,,0.00,0.00,VWS V14.01,2013-02-19 04:21:00,
2013-02-18 23:26:00,38.5,23.8,29.90,East,95,0.0,0.0,55,0.00,,,0.00,0.00,VWS V14.01,2013-02-19 04:26:00,
2013-02-18 23:31:00,38.6,23.8,29.90,East,99,0.0,0.0,55,0.00,,,0.00,0.00,VWS V14.01,2013-02-19 04:31:00,
2013-02-18 23:36:00,38.9,23.7,29.90,ESE,112,0.0,0.0,54,0.00,,,0.00,0.00,VWS V14.01,2013-02-19 04:36:00,
2013-02-18 23:42:00,38.9,23.7,29.90,SE,144,0.0,0.0,54,0.00,,,0.00,0.00,VWS V14.01,2013-02-19 04:42:00,
2013-02-18 23:48:00,39.2,24.0,29.90,ESE,117,0.0,0.0,54,0.00,,,0.00,0.00,VWS V14.01,2013-02-19 04:48:00,
2013-02-18 23:53:00,39.2,24.0,29.90,ESE,116,0.0,0.0,54,0.00,,,0.00,0.00,VWS V14.01,2013-02-19 04:53:00,
2013-02-18 23:59:00,39.5,23.8,29.90,SSE,154,0.0,0.0,53,0.00,,,0.00,0.00,VWS V14.01,2013-02-19 04:59:00,